[[{"header":{"parameterUnit":"m.s-1","parameterCategory":1,"la1":30.6,"la2":29.2853,"lo1":-89.7004,"lo2":-87.6739,"dy":0.0162,"dx":0.0183,"nx":112,"ny":82,"refTime":"2023-03-18T18:00:00:Z","depth":0,"parameterNumber":2,"parameterNumberName":"U-component_of_WINDS"},"data":[0.0,0.0,0.0,0.0,0.0,0.0,0.0,0.0,0.0,0.0,0.0,0.0,0.0,0.0,0.0,0.0,0.0,0.0,0.0,0.0,0.0,0.0,0.0,0.0,0.0,0.0,0.0,0.0,0.0,0.0,0.0,0.0,0.0,0.0,0.0,0.0,0.0,0.0,0.0,0.0,0.0,0.0,0.0,0.0,0.0,0.0,0.0,0.0,0.0,0.0,0.0,0.0,0.0,0.0,0.0,0.0,0.0,0.0,0.0,0.0,0.0,0.0,0.0,0.0,0.0,0.0,0.0,0.0,0.0,0.0,0.0,0.0,0.0,0.0,0.0,0.0,0.0,0.0,0.0,0.0,0.0,0.0,0.0,0.0,0.0,0.0,0.0,0.0,0.0,0.0,0.0,6.205,7.0722,7.6237,7.6391,7.5359,7.0827,6.1698,0.0,0.0,0.0,0.0,0.0,0.0,0.0,0.0,0.0,0.0,0.0,0.0,0.0,0.0,0.0,0.0,0.0,0.0,0.0,0.0,0.0,0.0,0.0,0.0,0.0,0.0,0.0,0.0,0.0,0.0,0.0,0.0,0.0,0.0,0.0,0.0,0.0,0.0,0.0,0.0,0.0,0.0,0.0,0.0,0.0,0.0,0.0,0.0,0.0,0.0,0.0,0.0,0.0,0.0,0.0,0.0,0.0,0.0,0.0,0.0,0.0,0.0,0.0,0.0,0.0,0.0,0.0,0.0,0.0,0.0,0.0,0.0,0.0,0.0,0.0,0.0,0.0,0.0,0.0,0.0,0.0,0.0,0.0,0.0,0.0,0.0,0.0,0.0,0.0,0.0,0.0,0.0,0.0,0.0,0.0,0.0,0.0,0.0,0.0,0.0,0.0,0.0,0.0,0.0,5.9473,6.9398,7.3921,7.6507,7.724,7.4664,6.9589,6.1621,0.0,0.0,0.0,0.0,0.0,0.0,0.0,0.0,0.0,0.0,0.0,0.0,0.0,0.0,0.0,0.0,0.0,0.0,0.0,0.0,0.0,0.0,0.0,0.0,0.0,0.0,0.0,0.0,0.0,0.0,0.0,0.0,0.0,0.0,0.0,0.0,0.0,0.0,0.0,0.0,0.0,0.0,0.0,0.0,0.0,0.0,0.0,0.0,0.0,0.0,0.0,0.0,0.0,0.0,0.0,0.0,0.0,0.0,0.0,0.0,0.0,0.0,0.0,0.0,0.0,0.0,0.0,0.0,0.0,0.0,0.0,0.0,0.0,0.0,0.0,0.0,0.0,0.0,0.0,0.0,0.0,0.0,0.0,0.0,0.0,0.0,0.0,0.0,0.0,0.0,0.0,0.0,0.0,0.0,0.0,0.0,0.0,0.0,0.0,0.0,0.0,0.0,0.0,5.6472,6.182,7.0552,7.4306,7.6353,7.6777,7.4664,7.0015,6.2278,6.0151,0.0,0.0,0.0,0.0,0.0,0.0,0.0,0.0,0.0,0.0,0.0,0.0,0.0,0.0,0.0,0.0,0.0,0.0,0.0,0.0,0.0,0.0,0.0,0.0,0.0,0.0,0.0,0.0,0.0,0.0,0.0,0.0,0.0,0.0,0.0,0.0,0.0,0.0,0.0,0.0,0.0,0.0,0.0,0.0,0.0,0.0,0.0,0.0,0.0,0.0,0.0,0.0,0.0,0.0,0.0,0.0,0.0,0.0,0.0,0.0,0.0,0.0,0.0,0.0,0.0,0.0,0.0,0.0,0.0,0.0,0.0,0.0,0.0,0.0,0.0,0.0,0.0,0.0,0.0,0.0,0.0,0.0,0.0,0.0,0.0,0.0,0.0,0.0,0.0,0.0,0.0,0.0,0.0,0.0,0.0,0.0,0.0,0.0,0.0,0.0,0.0,0.0,6.0319,6.4359,7.0552,7.401,7.5941,7.6198,7.3828,6.9529,6.282,5.9261,0.0,0.0,0.0,0.0,0.0,0.0,0.0,0.0,0.0,0.0,0.0,0.0,0.0,0.0,0.0,0.0,0.0,0.0,0.0,0.0,0.0,0.0,0.0,0.0,0.0,0.0,0.0,0.0,0.0,0.0,0.0,0.0,0.0,0.0,0.0,0.0,0.0,0.0,0.0,0.0,0.0,0.0,0.0,0.0,0.0,0.0,0.0,0.0,0.0,0.0,0.0,0.0,0.0,0.0,0.0,0.0,0.0,0.0,0.0,0.0,0.0,0.0,0.0,0.0,0.0,0.0,0.0,0.0,0.0,0.0,0.0,0.0,0.0,0.0,0.0,0.0,0.0,0.0,0.0,0.0,0.0,0.0,0.0,0.0,0.0,0.0,0.0,0.0,0.0,0.0,0.0,0.0,0.0,0.0,0.0,0.0,0.0,0.0,0.0,0.0,0.0,0.0,6.205,6.7244,7.1629,7.379,7.5231,7.6121,7.1077,6.6316,6.2627,5.7018,0.0,0.0,0.0,0.0,0.0,0.0,0.0,0.0,0.0,0.0,0.0,0.0,0.0,0.0,0.0,0.0,0.0,0.0,0.0,0.0,0.0,0.0,0.0,0.0,0.0,0.0,0.0,0.0,0.0,0.0,0.0,0.0,0.0,0.0,0.0,0.0,0.0,0.0,0.0,0.0,0.0,0.0,0.0,0.0,0.0,0.0,0.0,0.0,0.0,0.0,0.0,0.0,0.0,0.0,0.0,0.0,0.0,0.0,0.0,0.0,0.0,0.0,0.0,0.0,0.0,0.0,0.0,0.0,0.0,0.0,0.0,0.0,0.0,0.0,0.0,0.0,0.0,0.0,0.0,0.0,0.0,0.0,0.0,0.0,0.0,0.0,0.0,0.0,0.0,0.0,0.0,0.0,0.0,0.0,0.0,0.0,0.0,0.0,0.0,0.0,0.0,0.0,6.0473,6.5551,0.0,7.302,7.4615,7.6083,7.2235,6.7901,6.3478,0.0,0.0,0.0,0.0,0.0,0.0,0.0,0.0,0.0,0.0,0.0,0.0,0.0,0.0,0.0,0.0,0.0,0.0,0.0,0.0,0.0,0.0,0.0,0.0,0.0,0.0,0.0,0.0,0.0,0.0,0.0,0.0,0.0,0.0,0.0,0.0,0.0,0.0,0.0,0.0,0.0,0.0,0.0,0.0,0.0,0.0,0.0,0.0,0.0,0.0,0.0,0.0,0.0,0.0,0.0,0.0,0.0,0.0,0.0,0.0,0.0,0.0,0.0,0.0,0.0,0.0,0.0,0.0,0.0,0.0,0.0,0.0,0.0,0.0,0.0,0.0,0.0,0.0,0.0,0.0,0.0,0.0,0.0,0.0,0.0,0.0,0.0,0.0,0.0,0.0,0.0,0.0,0.0,0.0,0.0,0.0,0.0,0.0,0.0,0.0,0.0,0.0,5.4934,6.0127,6.5243,0.0,7.2261,7.3856,7.5658,7.1733,6.7492,6.3555,0.0,0.0,0.0,0.0,0.0,0.0,0.0,0.0,0.0,0.0,0.0,0.0,0.0,0.0,0.0,0.0,0.0,0.0,0.0,0.0,0.0,0.0,0.0,0.0,0.0,0.0,0.0,0.0,0.0,0.0,0.0,0.0,0.0,0.0,0.0,0.0,0.0,0.0,0.0,0.0,0.0,0.0,0.0,0.0,0.0,0.0,0.0,0.0,0.0,0.0,0.0,0.0,0.0,0.0,0.0,0.0,0.0,0.0,0.0,0.0,0.0,0.0,0.0,0.0,0.0,0.0,0.0,0.0,0.0,0.0,0.0,0.0,0.0,0.0,0.0,0.0,0.0,0.0,0.0,0.0,0.0,0.0,0.0,0.0,0.0,0.0,0.0,0.0,0.0,0.0,0.0,0.0,0.0,0.0,0.0,0.0,0.0,0.0,0.0,0.0,0.0,0.0,5.5164,6.1666,6.7167,7.0552,7.1668,7.2916,7.4745,6.8728,6.4144,0.0,0.0,0.0,0.0,0.0,0.0,0.0,0.0,0.0,0.0,0.0,0.0,0.0,0.0,0.0,0.0,0.0,0.0,0.0,0.0,0.0,0.0,0.0,0.0,0.0,0.0,0.0,0.0,0.0,0.0,0.0,0.0,0.0,0.0,0.0,0.0,0.0,0.0,0.0,0.0,0.0,0.0,0.0,0.0,0.0,0.0,0.0,0.0,0.0,0.0,0.0,0.0,0.0,0.0,0.0,0.0,0.0,0.0,0.0,0.0,0.0,0.0,0.0,0.0,0.0,0.0,0.0,0.0,0.0,0.0,0.0,0.0,0.0,0.0,0.0,0.0,0.0,0.0,0.0,0.0,0.0,0.0,0.0,0.0,0.0,0.0,0.0,0.0,0.0,0.0,0.0,0.0,0.0,0.0,0.0,0.0,0.0,0.0,0.0,0.0,0.0,0.0,0.0,5.6011,6.1512,6.6744,7.1321,7.1514,7.2261,7.4668,7.0334,6.6019,6.2607,0.0,0.0,0.0,0.0,0.0,0.0,0.0,0.0,0.0,0.0,0.0,0.0,0.0,0.0,0.0,0.0,0.0,0.0,0.0,0.0,0.0,0.0,0.0,0.0,0.0,0.0,0.0,0.0,0.0,0.0,0.0,0.0,0.0,0.0,0.0,0.0,0.0,0.0,0.0,0.0,0.0,0.0,0.0,0.0,0.0,0.0,0.0,0.0,0.0,0.0,0.0,0.0,0.0,0.0,0.0,0.0,0.0,0.0,0.0,0.0,0.0,0.0,0.0,0.0,0.0,0.0,0.0,0.0,0.0,0.0,0.0,0.0,0.0,0.0,0.0,0.0,0.0,0.0,0.0,0.0,0.0,0.0,0.0,0.0,0.0,0.0,0.0,0.0,0.0,0.0,0.0,0.0,0.0,0.0,0.0,0.0,0.0,0.0,0.0,0.0,0.0,0.0,5.6357,6.1435,6.6551,7.1668,7.1398,7.1838,7.4205,7.0836,6.6676,6.2143,0.0,0.0,0.0,0.0,0.0,0.0,0.0,0.0,0.0,0.0,0.0,0.0,0.0,0.0,0.0,0.0,0.0,0.0,0.0,0.0,0.0,0.0,0.0,0.0,0.0,0.0,0.0,0.0,0.0,0.0,0.0,0.0,0.0,0.0,0.0,0.0,0.0,0.0,0.0,0.0,0.0,0.0,0.0,0.0,0.0,0.0,0.0,0.0,0.0,0.0,0.0,0.0,0.0,0.0,0.0,0.0,0.0,0.0,0.0,0.0,0.0,0.0,0.0,0.0,0.0,0.0,0.0,0.0,0.0,0.0,0.0,0.0,0.0,0.0,0.0,0.0,0.0,0.0,0.0,0.0,0.0,0.0,0.0,0.0,0.0,0.0,0.0,0.0,0.0,0.0,0.0,0.0,0.0,0.0,0.0,0.0,0.0,0.0,0.0,0.0,0.0,0.0,5.6472,6.155,6.6628,7.1668,7.1475,7.1761,7.3549,7.072,6.6714,6.1776,0.0,0.0,0.0,0.0,0.0,0.0,0.0,0.0,0.0,0.0,0.0,0.0,0.0,0.0,0.0,0.0,0.0,0.0,0.0,0.0,0.0,0.0,0.0,0.0,0.0,0.0,0.0,0.0,0.0,0.0,0.0,0.0,0.0,0.0,0.0,0.0,0.0,0.0,0.0,0.0,0.0,0.0,0.0,0.0,0.0,0.0,0.0,0.0,0.0,0.0,0.0,0.0,0.0,0.0,0.0,0.0,0.0,0.0,0.0,0.0,5.3356,0.0,0.0,0.0,0.0,0.0,0.0,0.0,0.0,0.0,0.0,0.0,0.0,0.0,0.0,0.0,0.0,0.0,0.0,0.0,0.0,0.0,0.0,0.0,0.0,0.0,0.0,0.0,0.0,0.0,0.0,0.0,0.0,0.0,0.0,0.0,0.0,0.0,0.0,0.0,0.0,0.0,5.7434,6.2474,6.7321,7.1706,7.2014,7.2415,7.3588,7.1762,6.8722,6.4445,6.0532,0.0,0.0,0.0,0.0,0.0,0.0,0.0,0.0,0.0,0.0,0.0,0.0,0.0,0.0,0.0,0.0,0.0,0.0,0.0,0.0,0.0,0.0,0.0,0.0,0.0,0.0,0.0,0.0,0.0,0.0,0.0,0.0,0.0,0.0,0.0,0.0,0.0,0.0,0.0,0.0,0.0,0.0,0.0,0.0,0.0,0.0,0.0,0.0,0.0,0.0,0.0,0.0,0.0,0.0,0.0,0.0,0.0,0.0,0.0,0.0,5.5011,0.0,0.0,0.0,0.0,0.0,0.0,0.0,0.0,0.0,0.0,0.0,0.0,0.0,0.0,0.0,0.0,0.0,0.0,0.0,0.0,0.0,0.0,0.0,0.0,0.0,0.0,0.0,0.0,0.0,0.0,0.0,0.0,0.0,0.0,0.0,0.0,0.0,0.0,0.0,0.0,5.7126,6.2127,6.6898,7.1129,7.1937,7.2608,7.3588,7.2109,6.9533,6.5799,6.2355,0.0,0.0,0.0,0.0,0.0,0.0,0.0,0.0,0.0,0.0,0.0,0.0,0.0,0.0,0.0,0.0,0.0,0.0,0.0,0.0,0.0,0.0,0.0,0.0,0.0,0.0,0.0,0.0,0.0,0.0,0.0,0.0,0.0,0.0,0.0,0.0,0.0,0.0,0.0,0.0,0.0,0.0,0.0,0.0,0.0,0.0,0.0,0.0,0.0,0.0,0.0,0.0,0.0,6.2512,6.3358,6.4474,6.5474,6.5436,6.4436,6.0935,5.9319,5.9011,0.0,0.0,0.0,0.0,0.0,0.0,0.0,0.0,0.0,0.0,0.0,0.0,0.0,0.0,0.0,0.0,0.0,0.0,0.0,0.0,0.0,0.0,0.0,0.0,0.0,5.6896,5.628,0.0,0.0,0.0,0.0,0.0,0.0,0.0,0.0,0.0,0.0,0.0,0.0,5.6703,6.1666,6.632,7.0283,7.1591,7.2608,7.3613,7.2379,7.0266,6.7268,6.4426,6.0476,0.0,0.0,0.0,0.0,0.0,0.0,0.0,0.0,0.0,0.0,0.0,0.0,0.0,0.0,0.0,0.0,0.0,0.0,0.0,0.0,0.0,0.0,0.0,0.0,0.0,0.0,0.0,0.0,0.0,0.0,0.0,0.0,5.3221,5.4655,0.0,0.0,0.0,0.0,0.0,0.0,0.0,0.0,0.0,0.0,0.0,0.0,0.0,0.0,6.2474,6.4782,6.6051,6.632,6.9283,7.0052,6.8898,7.0475,7.0706,6.986,6.9321,0.0,6.2551,6.1512,0.0,0.0,0.0,0.0,0.0,0.0,0.0,0.0,0.0,0.0,0.0,0.0,0.0,0.0,0.0,0.0,0.0,0.0,0.0,0.0,0.0,0.0,5.9665,5.9127,5.9088,5.8973,0.0,5.5972,5.3241,5.0702,5.0356,0.0,0.0,0.0,0.0,0.0,0.0,0.0,5.778,6.2589,6.6782,6.9552,7.1245,7.2608,7.3613,7.3498,7.2583,7.075,6.6922,6.3339,6.0247,5.5785,0.0,0.0,0.0,0.0,0.0,0.0,0.0,0.0,0.0,0.0,0.0,0.0,0.0,0.0,0.0,0.0,0.0,0.0,0.0,0.0,0.0,0.0,0.0,0.0,0.0,0.0,0.0,0.0,0.0,5.1831,5.4509,5.4968,5.5626,5.4972,0.0,0.0,0.0,0.0,0.0,0.0,0.0,0.0,0.0,6.3666,6.4628,6.6359,6.9013,7.0591,7.2091,7.3514,7.5014,7.5592,7.5399,7.613,7.6015,7.5168,7.5168,7.363,7.0821,6.6128,6.2781,6.0242,0.0,0.0,0.0,0.0,5.5011,5.5588,5.7396,5.805,0.0,0.0,0.0,0.0,0.0,0.0,0.0,0.0,0.0,0.0,0.0,0.0,0.0,6.2358,6.3089,6.3512,6.2589,6.1228,5.8902,0.0,5.351,5.2549,4.9548,0.0,0.0,0.0,0.0,0.0,5.8704,6.3435,6.7359,6.9475,7.1629,7.3147,7.36,7.4089,7.3677,7.2075,6.9378,6.6284,6.276,5.9525,5.6272,0.0,0.0,0.0,0.0,0.0,0.0,0.0,0.0,0.0,0.0,0.0,0.0,0.0,0.0,0.0,0.0,0.0,0.0,0.0,0.0,0.0,0.0,0.0,0.0,0.0,0.0,0.0,0.0,5.452,5.6954,5.6092,5.9081,5.9335,0.0,0.0,0.0,0.0,0.0,0.0,6.2627,6.3782,6.5974,6.959,7.0552,7.2437,7.5438,7.6053,7.74,7.9477,7.9477,7.9823,8.0439,8.0439,7.9977,7.9131,7.8938,7.8477,7.74,7.0629,6.6705,6.4589,6.1243,5.9242,5.8319,5.8319,5.8434,5.8896,6.105,6.1781,6.1666,6.1012,0.0,5.9165,5.7242,0.0,0.0,0.0,0.0,5.8896,6.1435,6.3166,6.4474,6.5359,6.6513,6.709,6.5859,6.5293,6.343,0.0,5.7033,5.5955,5.2549,0.0,0.0,0.0,0.0,5.8242,5.9935,6.4205,6.7667,6.9206,7.1437,7.3042,7.3547,7.4179,7.4179,7.321,7.1601,6.911,6.5528,6.3302,6.005,5.5606,0.0,0.0,0.0,0.0,0.0,0.0,0.0,0.0,0.0,0.0,0.0,0.0,0.0,0.0,0.0,0.0,0.0,0.0,0.0,0.0,0.0,0.0,0.0,0.0,0.0,0.0,0.0,0.0,0.0,6.0311,6.5421,0.0,0.0,0.0,0.0,6.1781,6.332,6.5397,6.7898,6.959,7.2399,7.663,7.7553,7.8861,8.0708,8.0746,8.1246,8.2093,8.2093,8.2131,8.217,8.217,8.1747,8.0939,8.0092,7.9708,7.9323,7.4938,7.1629,6.9052,6.5628,6.3281,6.182,6.182,6.232,6.3128,6.4089,6.4397,6.4397,6.4359,6.2166,5.9473,5.9358,5.8204,0.0,0.0,6.0512,6.2435,6.4974,6.6282,6.7128,6.8013,6.8282,6.8321,6.8244,6.7025,6.4879,0.0,6.0596,5.9524,5.6071,0.0,5.6434,5.5511,5.7665,6.0012,6.1743,6.4974,6.7436,6.8359,7.0014,7.1734,7.347,7.3704,7.4063,7.4833,7.3407,7.1706,6.9765,6.6593,6.3571,6.077,5.667,0.0,0.0,0.0,0.0,0.0,0.0,0.0,0.0,0.0,0.0,0.0,0.0,0.0,0.0,0.0,0.0,0.0,0.0,0.0,0.0,0.0,0.0,0.0,0.0,0.0,0.0,0.0,0.0,6.5161,6.9451,0.0,0.0,6.6014,6.7034,6.7293,7.021,7.2783,7.4784,7.6015,7.7823,8.0439,8.0785,8.1785,8.3516,8.3555,8.3939,8.4747,8.4747,8.4478,8.3978,8.3978,8.3208,8.1862,8.1554,8.1131,8.0439,7.7784,7.5207,7.2629,6.9783,6.7975,6.6974,6.6974,6.7167,6.7475,6.7782,6.7898,6.7705,6.6551,6.5013,6.3512,6.2935,6.2743,6.2858,6.3435,6.4436,6.5667,6.7128,6.8129,6.8706,6.8475,6.8821,6.909,6.8513,6.8013,6.7292,6.5961,6.4407,6.2413,5.9496,6.0127,6.0396,5.8434,6.0319,6.2589,6.432,6.6513,6.8475,6.986,7.1052,7.2003,7.2646,7.3331,7.3575,7.333,7.2352,7.1025,6.928,6.7038,6.4329,6.1157,5.8565,5.5415,0.0,0.0,0.0,0.0,0.0,0.0,0.0,0.0,0.0,0.0,0.0,0.0,0.0,0.0,0.0,0.0,0.0,0.0,0.0,0.0,0.0,0.0,0.0,0.0,0.0,0.0,6.9566,6.8706,7.3729,7.5236,7.0118,7.1967,7.3423,7.3216,7.6261,7.8746,8.0131,8.1054,8.217,8.3555,8.3593,8.4132,8.5286,8.5593,8.5863,8.6094,8.6401,8.6094,8.5286,8.5016,8.4286,8.317,8.2862,8.2285,8.14,7.9977,7.8054,7.5745,7.3168,7.186,7.136,7.1091,7.0975,7.0975,7.0975,7.0783,7.0283,6.8859,6.7628,6.659,6.5705,6.5859,6.6282,6.6282,6.709,6.8167,6.9013,6.9667,7.0014,6.9744,6.9898,6.9937,6.9386,6.9373,6.9244,6.8565,6.7089,6.5264,6.2921,6.3435,6.3512,6.1512,6.2666,6.4359,6.609,6.7513,6.8936,7.036,7.1245,7.186,7.2168,7.2572,7.2688,7.2417,7.1186,6.9976,6.8854,6.6882,6.4445,6.1582,5.8758,5.5492,5.1747,0.0,0.0,0.0,0.0,0.0,0.0,0.0,0.0,0.0,0.0,0.0,0.0,0.0,0.0,0.0,0.0,0.0,0.0,0.0,0.0,0.0,0.0,0.0,6.1401,6.8371,7.3005,7.1152,7.8475,8.1444,7.57,7.9542,8.1584,7.9513,8.1321,8.2862,8.3708,8.4555,8.5363,8.6132,8.617,8.617,8.6094,8.6978,8.6978,8.6094,8.6978,8.694,8.6055,8.5286,8.4939,8.4863,8.4016,8.3131,8.2247,8.1439,8.0054,7.8246,7.5745,7.4745,7.463,7.386,7.3553,7.3553,7.3553,7.2976,7.2091,7.1245,6.9898,6.8398,6.7513,6.7244,6.7244,6.7205,6.8436,6.9937,7.0744,7.0937,7.1129,7.1975,7.1514,7.0925,7.0979,7.1056,7.058,6.8911,6.8627,6.8087,6.623,6.5936,6.5667,6.482,6.4666,0.0,6.6974,6.7898,6.8744,6.9629,7.0437,7.1245,7.2091,7.1493,7.1414,7.2225,7.0026,6.8738,6.8738,6.6301,6.4135,6.2394,5.7443,5.3597,5.1035,0.0,0.0,0.0,0.0,0.0,0.0,0.0,0.0,0.0,0.0,0.0,0.0,0.0,0.0,0.0,0.0,0.0,0.0,0.0,0.0,0.0,0.0,6.9047,6.8971,7.4216,7.8622,8.0197,8.3252,8.4643,8.3057,8.4144,8.4812,8.4632,8.6041,8.7055,8.7286,8.7517,8.7478,8.7055,8.7671,8.7363,8.6094,8.7594,8.7594,8.6094,8.6978,8.694,8.6094,8.5863,8.544,8.4901,8.467,8.3708,8.2247,8.1439,8.0054,7.8361,7.7092,7.5822,7.4745,7.5168,7.4899,7.4361,7.4361,7.3822,7.3091,7.286,7.2476,7.1937,7.1052,7.0783,7.0667,7.0014,7.0206,7.0783,7.1629,7.136,7.1129,7.1975,7.1514,7.0898,7.0925,7.103,7.0927,7.0414,7.0362,6.9437,6.6423,6.6898,6.7436,6.6551,6.5936,0.0,6.8706,6.8629,6.8975,7.0398,7.0783,7.1014,7.1245,7.0645,7.0064,6.9678,6.7939,6.692,6.692,6.5064,6.3245,6.1505,5.8255,5.5647,0.0,0.0,0.0,0.0,0.0,0.0,0.0,0.0,0.0,0.0,0.0,0.0,0.0,0.0,0.0,0.0,0.0,0.0,0.0,0.0,0.0,0.0,6.9988,7.4832,7.7147,8.0023,8.2951,8.57,8.6967,8.74,8.7041,8.7356,8.7375,8.6904,8.8001,8.8709,8.8709,8.8709,8.8479,8.794,8.844,8.8017,8.6671,8.8363,8.8171,8.6094,8.7363,8.7286,8.6094,8.6094,8.5863,0.0,8.5401,8.4439,8.2824,8.2324,8.0708,0.0,0.0,0.0,0.0,0.0,7.5668,7.5245,7.5245,7.4938,7.4476,7.413,7.4014,7.386,7.3014,7.2745,7.2552,7.1706,7.1437,7.1552,7.2052,7.1552,7.1129,7.1975,7.1822,7.1387,7.1056,7.1326,7.1453,7.0695,7.0874,0.0,6.7474,6.8078,6.8667,6.7782,6.7244,6.7628,6.9475,6.9244,6.9436,7.0744,7.1245,7.1437,7.1437,7.0799,0.0,0.0,0.0,6.5721,6.4638,6.3225,0.0,0.0,0.0,5.71,5.5857,0.0,0.0,0.0,5.0503,4.9949,0.0,0.0,0.0,0.0,0.0,0.0,0.0,0.0,0.0,0.0,0.0,0.0,0.0,0.0,0.0,0.0,7.6109,8.0477,8.4632,8.5363,8.6286,8.8556,8.9521,8.9612,8.8729,8.9416,8.9267,8.7581,8.85,8.9133,8.9133,0.0,0.0,0.0,0.0,8.8517,8.7555,8.921,8.8825,8.6401,8.794,8.7825,8.6247,8.6132,8.6094,8.6094,8.6017,8.5055,8.3593,8.3478,8.1477,7.84,7.74,7.6592,7.5976,7.5899,7.5938,7.6015,7.6015,0.0,0.0,7.512,7.4889,7.4707,7.4014,7.3668,7.336,7.2552,7.2206,7.2091,7.2168,7.1552,7.1129,7.1975,7.2129,7.1849,7.121,7.1723,7.1825,7.0429,7.0652,7.0618,6.9065,6.9297,6.9436,6.8667,6.8398,6.859,6.959,6.9629,6.986,7.0667,0.0,0.0,7.2206,7.1609,7.0874,7.0025,6.7785,6.5373,6.2936,6.1885,6.1074,6.0344,5.93,5.8374,5.7598,5.7598,5.7172,5.6205,5.291,5.1758,0.0,0.0,0.0,0.0,0.0,0.0,0.0,0.0,0.0,0.0,0.0,0.0,0.0,0.0,0.0,7.322,7.8705,8.3632,8.6517,8.8094,8.9133,8.9633,9.0033,9.0256,9.0007,9.0214,9.0138,8.9778,9.103,9.1748,9.1748,9.1748,0.0,9.0748,9.071,8.9979,8.844,9.0094,9.0017,8.8209,0.0,0.0,8.7132,8.644,8.6094,8.6055,8.5401,8.4555,8.3555,8.2824,8.0939,7.8284,7.6053,7.5515,7.5899,7.5207,7.5399,7.6015,7.6062,7.6062,7.6052,7.5952,7.5887,7.5793,7.5639,7.461,0.0,7.3322,7.2245,7.1321,7.2014,7.1552,7.1129,7.1975,7.1668,7.1118,7.1043,7.1172,7.1284,7.1008,7.1038,7.099,7.0657,7.0093,6.9629,6.9475,6.8244,6.7936,6.9513,6.909,6.8975,6.986,7.1283,7.2206,7.2206,7.2187,7.18,7.0913,6.9253,6.7462,6.5528,6.5087,6.4315,6.2975,6.1923,6.0706,5.9416,5.9416,5.8952,5.8062,5.5959,5.5055,0.0,0.0,0.0,0.0,0.0,0.0,0.0,0.0,0.0,0.0,0.0,6.5923,0.0,0.0,7.5178,7.8327,8.2573,8.6094,8.7825,8.9479,9.0556,9.0556,9.1067,9.1064,9.0098,9.0867,9.1255,9.0707,9.1796,9.2479,9.2479,9.2864,9.2518,9.1248,9.1633,9.1018,8.9325,9.0556,9.0364,8.8709,8.9094,8.8632,8.7401,8.694,8.6517,8.6094,8.567,8.4786,8.3478,8.1747,8.0285,7.8977,7.7284,7.6361,7.5938,7.5572,7.5687,7.6034,7.6118,7.6118,7.6118,7.6172,7.6118,7.6034,7.609,7.5148,7.4014,7.363,7.2552,7.1552,7.1552,7.1245,7.1014,7.1437,7.1898,7.2118,7.1763,7.2084,7.2288,7.1959,7.1487,7.1106,7.1106,7.1017,7.0667,6.9821,6.9283,6.9167,6.9629,6.9667,6.9975,7.086,7.2091,7.3014,7.3437,7.3189,7.2712,7.1897,7.0281,6.8816,6.7539,6.6752,6.587,6.4801,6.363,6.2784,6.2253,6.1404,6.0848,6.046,5.9166,5.8066,0.0,0.0,0.0,0.0,0.0,0.0,0.0,0.0,6.5436,6.8667,6.9706,7.1321,7.5438,7.7746,8.0169,8.3747,8.6324,8.8171,8.9056,9.0479,9.1518,9.1672,9.2326,9.2105,9.0371,9.1755,9.2334,9.1359,9.233,9.2979,9.2979,9.3595,9.3249,9.1748,9.221,9.1748,9.0171,9.0864,9.0517,8.9171,8.9671,8.9133,8.7632,8.7478,8.6901,8.6094,8.5747,8.467,8.2939,8.09,7.9939,7.9746,7.9015,7.7746,7.6245,7.6332,7.636,7.6321,7.6249,7.6172,7.6118,7.6198,7.6145,7.6005,7.609,7.5446,7.4553,7.3745,7.286,7.2014,7.1129,7.1014,7.1168,7.1168,7.236,7.3273,7.2521,7.3073,7.3484,7.2716,7.2028,7.1607,7.1607,7.2057,7.1937,7.0398,7.0744,7.0937,7.0283,7.0591,7.1245,7.2091,7.2976,7.3899,7.4889,7.4499,7.3857,7.3148,7.1756,7.0634,6.9821,6.8552,6.7576,6.6896,6.5542,6.4824,6.4855,6.3207,6.2408,6.2394,6.1505,6.0326,6.1589,6.0704,6.1897,6.5282,6.5705,6.7282,0.0,0.0,7.4053,7.6669,7.9015,8.0785,8.1323,8.3478,8.5517,8.6786,8.8479,8.994,9.0787,9.1748,9.2633,9.3326,9.3518,9.3256,9.2618,9.314,9.3294,9.269,9.3985,9.4711,9.4711,9.4788,9.4403,9.3441,9.2826,9.2018,9.1056,9.1171,9.1095,9.0902,9.0248,8.944,8.8517,8.7748,8.6901,8.6017,8.4516,8.2939,8.1362,8.1054,8.0516,7.9785,7.9708,7.8631,7.7169,7.713,7.7189,7.713,7.6442,7.6198,7.6198,7.635,7.625,7.609,7.6172,7.5474,7.4553,7.3745,7.286,7.2014,7.1129,7.1475,7.2052,7.2052,7.2783,7.3273,7.2469,7.3022,7.3484,7.2669,7.3007,7.3421,7.3421,7.3366,7.3053,7.2052,7.2014,7.2014,7.1937,7.1321,7.1245,7.2091,7.2976,7.4186,7.5902,7.5941,7.5594,7.4866,7.4657,7.4193,7.338,7.2263,7.1274,7.0465,6.8758,6.7218,6.5741,6.4265,6.311,6.2394,6.1505,6.0945,6.6758,6.6216,0.0,0.0,7.0552,7.2822,7.6861,7.7323,7.79,8.1477,8.3054,8.4093,8.5093,8.6555,8.7902,0.0,9.0287,9.1556,9.1902,9.3095,9.3903,9.371,9.4595,9.46,9.3043,9.3552,9.39,9.3693,9.4203,9.4636,9.498,9.548,9.5134,9.3749,9.3364,9.2787,9.1979,9.1441,9.121,9.121,9.0825,8.9979,8.8671,8.8325,8.7132,8.5324,8.4132,8.2901,8.1747,8.1285,8.09,8.0554,8.0554,8.0131,7.9323,7.7911,7.712,7.6673,7.6392,7.6276,7.6225,7.635,7.6276,7.6118,7.6172,7.5501,7.4686,7.4284,7.3591,7.2745,7.186,7.1937,7.2206,7.2206,7.286,7.3542,7.3793,7.4128,7.4333,7.4045,7.3843,7.3691,7.3691,7.3983,7.4091,7.3707,7.3245,7.2783,7.2283,7.2322,7.2745,7.3553,7.4437,7.5495,7.6854,7.6507,7.6328,7.6591,7.5662,7.4966,7.4618,7.3562,7.2531,7.1545,7.02,6.8714,6.7176,6.5526,6.4193,6.3129,6.2781,6.2258,6.8526,0.0,0.0,7.2168,7.5207,7.8092,7.94,8.0169,8.1554,8.4901,8.5786,8.6401,8.7825,8.8786,8.9671,9.0479,9.1672,9.2672,9.3133,9.421,9.4749,9.4134,9.5172,9.5291,9.3632,9.4118,9.461,9.478,9.4654,9.478,9.5365,9.5942,9.5595,9.4095,9.3826,9.3326,9.2518,9.1633,9.121,9.121,9.121,9.0441,8.9017,8.8556,8.7094,8.4863,8.3978,8.2978,8.19,8.1323,8.1093,8.1093,8.1093,8.0939,8.0516,7.8816,7.7599,7.6854,7.6751,7.6649,7.6559,7.6451,7.643,7.6453,7.6249,7.5721,7.5089,7.4812,7.4284,7.363,7.2783,7.2706,7.2899,7.2899,7.3553,7.4312,7.473,7.5053,7.5221,7.5089,7.4692,7.4411,7.4385,7.478,7.5082,7.5053,7.4553,7.3976,7.3322,7.3783,7.4322,7.4668,7.5476,7.6419,7.7394,7.67,7.6714,7.7983,7.6436,7.5585,7.5817,7.4847,7.3636,7.2272,7.1306,6.9896,6.7982,6.6375,6.5037,6.3959,6.3767,6.3322,0.0,0.0,7.0898,7.5861,7.9631,8.2747,8.5247,8.5863,8.617,8.7132,8.7979,8.8825,8.9671,9.0556,9.1402,9.2287,9.2479,9.3056,9.4711,9.4941,9.498,9.4941,9.5018,9.5018,0.0,9.5205,9.5581,9.6212,9.5703,9.5661,9.6212,9.6288,9.5903,9.498,9.4134,9.3326,9.2518,9.1633,9.121,9.121,9.121,9.0748,8.9825,8.8171,8.6517,8.4863,8.3978,8.267,8.1131,8.1093,8.1093,8.1093,8.1093,8.0592,7.9823,7.9836,7.9345,7.8513,7.7821,7.7576,7.7421,7.6645,7.6905,7.7279,7.6469,7.6145,7.5898,7.4966,7.4668,7.4476,7.3668,7.4053,7.463,7.463,7.5284,7.5707,7.4861,7.5474,7.5928,7.5041,7.5594,7.6199,7.6121,7.6106,7.6024,7.5976,7.5938,7.5899,7.5899,7.5899,7.563,7.4784,7.5476,7.6419,7.7394,7.67,7.6984,7.8834,7.7326,7.6746,7.7597,7.6784,7.5298,7.3116,7.2476,7.0671,6.773,6.6496,6.5433,6.4556,6.3959,6.3651,0.0,0.0,7.663,8.1208,8.4439,8.7055,8.9017,8.9479,8.9748,9.0594,8.8748,8.7055,8.7325,8.7171,8.7478,8.8902,9.1018,9.3095,9.4749,9.548,9.5441,9.4249,9.5172,0.0,0.0,0.0,0.0,9.6212,9.5741,9.5661,9.6251,9.6288,9.6172,9.5865,9.4441,9.3557,9.3287,9.1902,9.121,9.121,9.0633,9.0171,8.9863,8.8171,8.6478,8.4863,8.3978,8.2631,8.1093,8.1093,8.1093,8.1093,8.1093,8.0939,8.0669,8.0781,8.0299,7.9439,7.8709,7.8464,7.8426,7.8142,7.8233,7.8258,7.7263,7.6993,7.68,7.5813,7.5553,7.5361,7.4514,7.4514,7.4707,7.4707,7.4966,7.5292,7.5617,7.6006,7.6199,7.5939,7.6132,7.6276,7.6198,7.6145,7.6062,7.6015,7.6015,7.5784,7.5207,7.563,7.5716,7.4976,7.609,7.7313,7.8394,7.8117,7.8412,7.9724,7.8757,7.7983,7.7713,7.7403,7.6225,7.3998,7.3253,7.1444,6.8536,6.7774,6.6692,6.5457,6.5368,6.5314,0.0,7.5962,8.1047,8.5214,8.8171,9.0402,9.1787,9.1633,9.1287,9.1518,8.844,8.5478,8.4863,8.4324,8.4324,8.5401,8.794,9.0671,9.3287,9.4134,9.4403,9.4172,9.5134,9.5403,0.0,0.0,0.0,9.6212,9.5741,9.5661,9.6251,9.6288,9.6172,9.5865,9.4749,9.3864,9.3287,9.2479,9.1941,9.1633,9.0787,9.0364,9.0325,8.8632,8.694,8.5247,8.4093,8.2631,8.1093,8.1093,8.1093,8.1093,8.1093,8.1093,8.1093,8.1214,8.0887,8.0365,7.9623,7.934,7.9301,7.9005,7.9108,7.9121,7.7803,7.7456,7.729,7.6303,7.6015,7.5861,7.5322,7.5168,7.5168,7.5168,7.5225,7.5424,7.6029,7.6225,7.6326,7.635,7.635,7.6301,7.6198,7.6145,7.6062,7.6015,7.6005,7.5697,7.4822,7.5476,7.5743,7.5059,7.6376,7.7753,7.8895,7.8824,7.9262,8.055,7.9608,7.8757,7.8177,7.7867,7.6714,7.458,7.3645,7.1957,6.9447,6.8863,6.7735,6.6244,6.6543,6.6474,7.4827,7.9664,8.406,8.7952,9.0825,9.2826,9.3518,9.2402,9.0941,8.9979,8.6978,8.3978,0.0,0.0,8.2016,8.2093,8.3824,8.6594,9.0748,9.1402,9.2326,0.0,0.0,0.0,0.0,0.0,0.0,9.6249,0.0,9.57,9.6251,9.6288,9.5903,9.5095,9.5018,9.4249,9.2633,9.3287,9.3249,9.2479,9.1633,9.121,9.1133,8.944,8.7786,8.6055,8.4362,8.267,8.117,8.1131,8.1093,8.1093,8.1093,8.1093,8.1093,8.1093,8.1184,8.1203,8.0486,8.0266,8.0125,7.9301,7.9559,7.9868,7.7996,7.7494,7.729,7.6303,7.6015,7.6015,7.6015,7.6015,7.6015,7.6015,7.6034,7.609,7.609,7.6198,7.6301,7.6301,7.635,7.635,7.6225,7.6145,7.609,7.6005,7.6062,7.5754,7.4745,7.5438,7.5705,7.5005,7.6365,7.7792,7.8917,7.8863,7.9532,8.1362,7.9995,7.9105,7.8989,7.8216,7.6867,7.4923,7.3697,7.2186,7.0358,6.9628,6.8484,6.695,6.7363,6.7152,7.9609,8.4047,8.8267,9.1602,9.3403,9.4249,9.3787,9.2402,9.0594,8.8479,8.3324,7.8515,0.0,0.0,0.0,7.9246,8.4632,0.0,9.2633,9.4172,0.0,0.0,0.0,9.5711,9.5057,9.5595,0.0,0.0,9.6136,9.6136,9.6288,9.6288,9.6211,9.598,9.5326,9.4788,9.4364,9.3326,9.271,9.2479,9.1633,9.121,9.1133,8.944,8.8094,8.694,8.4593,8.2978,8.1939,8.1362,8.1093,8.1093,8.1093,8.1093,8.1093,8.1154,8.1244,8.1253,8.113,8.1143,8.113,8.0767,8.0473,7.9945,7.8633,7.7891,7.729,7.6303,7.6015,7.6015,7.6015,7.6015,7.6015,7.6015,7.609,7.6172,7.6156,7.625,7.6374,7.6374,7.6359,7.6297,7.6199,7.625,7.6225,7.6083,7.6106,7.5589,7.4014,7.5091,7.5555,7.4383,7.6083,7.7833,7.9113,7.9501,8.0188,8.1401,8.1117,8.0304,7.9067,7.8796,7.773,7.5705,7.4175,7.2677,7.1197,6.9934,6.9097,6.8714,6.8334,6.849,8.3968,8.8212,9.2106,9.4292,9.548,9.548,9.3133,9.1325,8.8748,8.3939,7.9054,0.0,0.0,0.0,0.0,0.0,0.0,0.0,9.1556,9.321,9.4441,0.0,9.6019,0.0,9.6095,9.6211,9.6442,0.0,9.6519,9.6288,9.6288,9.6288,9.6134,9.5749,9.5634,9.5557,9.5557,9.3864,9.3018,9.3018,9.2172,9.1556,9.1133,8.944,8.8209,8.7248,0.0,8.3093,8.2247,8.1439,8.1093,8.1093,8.1093,8.1093,8.1093,8.1154,8.1244,8.1291,8.1347,8.1427,8.1478,8.1374,8.1053,8.0564,7.9499,7.8921,7.837,7.741,7.6852,7.6553,7.6592,7.6284,7.6092,7.6476,7.6678,7.685,7.7213,7.7446,7.7543,7.7543,7.7195,7.6838,7.6778,7.6508,7.6276,7.6135,7.616,7.5682,7.4245,7.5207,7.5605,7.4557,7.6173,7.7807,7.9058,7.9671,8.042,8.144,8.1504,8.0923,7.9569,7.9183,7.8283,7.6791,7.4988,7.3514,7.2364,7.1142,7.0392,7.0113,6.9437,6.9424,8.8056,9.1898,9.5115,9.6327,9.698,9.6249,9.1979,8.9479,8.5901,7.8477,0.0,7.186,6.8667,7.0783,7.3476,7.4976,0.0,8.5363,8.994,9.1248,9.2864,9.5942,9.6288,9.6557,9.7288,9.6711,9.6596,9.7288,9.6711,9.6288,9.6288,9.6288,9.5942,9.5211,9.5903,9.6288,9.6288,9.4672,9.3864,9.3864,9.2941,9.2095,9.1325,8.9517,8.8286,8.744,8.4863,0.0,8.2401,8.1593,8.1208,8.1093,8.1093,8.1093,8.1093,8.1093,8.1184,8.1291,8.1291,8.1374,8.1478,8.1427,8.1375,8.1169,8.0238,7.9941,7.9643,7.8816,7.8036,7.7438,7.7476,7.6899,7.6515,7.7275,7.7574,7.7862,7.854,7.8863,7.8975,7.9013,7.8355,7.7713,7.7512,7.6932,7.6405,7.6121,7.6147,7.5928,7.5082,7.5592,7.5782,7.5214,7.6453,7.783,7.905,7.9674,8.042,8.144,8.1504,8.1117,8.0227,7.9531,7.8718,7.7713,7.5942,7.4564,7.369,7.2777,7.2006,7.1313,7.0599,7.0303,9.1871,9.3935,9.5834,9.7865,9.7442,9.5403,9.1095,8.7209,0.0,0.0,0.0,6.8667,6.6705,6.8552,0.0,7.7015,0.0,0.0,0.0,0.0,9.4826,0.0,0.0,0.0,0.0,0.0,0.0,0.0,0.0,9.6288,9.6288,9.6288,9.6249,9.6095,9.6211,9.6288,9.6288,9.5288,9.4749,9.4749,9.321,9.2402,9.2172,8.9787,8.8632,8.8325,8.5786,0.0,8.3285,8.2439,8.1708,8.1093,8.1093,8.1093,8.1093,8.1093,8.1184,8.1291,8.1291,8.1374,8.1478,8.1427,8.0989,8.0357,8.0084,7.9516,7.8872,7.8661,7.8421,7.8284,7.8284,7.8169,7.8092,7.8276,7.8402,7.8525,7.8668,7.8851,7.9003,7.9028,7.8873,7.8501,7.7653,7.7498,7.7164,7.6289,7.6198,7.6145,7.5991,7.5985,7.6013,7.6064,7.68,7.8062,7.9903,8.0022,8.042,8.144,8.1504,8.1117,8.0227,8.0072,7.926,7.7713,7.6645,7.5619,7.4576,7.3728,7.3201,7.3073,7.2212,7.1965,9.4494,9.6226,9.7872,9.9633,9.8211,9.4826,8.921,0.0,0.0,0.0,0.0,6.6705,6.5474,0.0,0.0,0.0,0.0,0.0,0.0,0.0,0.0,0.0,0.0,0.0,0.0,0.0,0.0,0.0,0.0,9.6288,9.6288,9.6288,9.6288,9.6288,9.6288,9.6288,9.6288,9.5903,9.5441,9.498,9.371,9.2903,9.2441,9.0287,8.9094,8.8556,8.644,0.0,8.3516,8.267,8.1823,8.1093,8.1093,8.1093,8.1093,8.1093,8.1184,8.1291,8.1291,8.1374,8.1504,8.1453,8.1208,8.086,8.0808,8.0447,8.0084,8.0029,7.9635,7.9229,7.9208,7.8861,7.8631,7.9092,7.9615,8.0087,8.0126,8.0254,8.0318,8.0304,7.9608,7.8965,7.8825,7.8207,7.7653,7.7524,7.7177,7.6931,7.6878,7.6784,7.6755,7.6789,7.7102,7.8055,7.9984,8.0061,8.042,8.144,8.1504,8.131,8.0885,8.0459,7.984,7.9028,7.7713,7.6582,7.5619,7.477,7.432,7.4281,7.3007,7.2708,9.6254,9.8134,9.9726,10.1018,9.8634,9.4249,8.7401,8.2439,0.0,0.0,6.632,6.5474,6.4974,0.0,0.0,0.0,0.0,0.0,0.0,0.0,0.0,0.0,0.0,0.0,0.0,0.0,0.0,0.0,0.0,0.0,9.6288,9.6288,9.6288,9.6288,9.6288,9.6288,9.6288,9.6288,9.5942,9.5249,9.421,9.3364,9.2672,9.0787,8.9556,8.8863,8.7132,0.0,0.0,8.3016,8.2093,8.1323,8.117,8.1093,8.1093,8.1093,8.1184,8.1291,8.1291,8.1374,8.1504,8.1504,8.1504,8.1504,8.1504,8.1453,8.1374,8.1319,8.0772,8.0145,8.0092,7.9561,7.9246,7.9939,8.0712,8.1362,8.1465,8.1504,8.1504,8.1504,8.042,7.9622,7.9957,7.8992,7.8348,7.8669,7.8233,7.7846,7.7764,7.7708,7.7689,7.7823,7.7823,7.8498,8.0144,8.0288,8.0613,8.144,8.1504,8.1504,8.1504,8.0846,8.0382,8.0188,7.8912,7.7713,7.6668,7.5972,7.5546,7.5353,7.3844,7.3419,9.7107,9.8929,10.0211,10.1096,9.8173,9.3326,8.6555,0.0,0.0,6.8552,6.582,6.4936,6.5628,0.0,0.0,0.0,0.0,7.9592,0.0,0.0,0.0,0.0,0.0,0.0,0.0,0.0,0.0,0.0,0.0,0.0,9.6288,9.6288,9.6288,9.6288,9.6288,9.6288,9.6288,9.6288,9.6249,9.6172,9.448,9.3672,9.3518,9.1018,8.9863,8.971,8.8017,0.0,0.0,8.4132,8.2978,8.2131,8.14,8.1093,8.1093,8.1093,8.1184,8.1291,8.1291,8.1374,8.1504,8.1504,8.1504,8.1504,8.1504,8.1453,8.1374,8.1319,8.1196,8.1069,8.1008,8.0939,8.0893,8.1119,8.1242,8.1323,8.1478,8.1504,8.1504,8.1504,8.1387,8.0989,8.0161,7.9971,7.9674,7.881,7.876,7.8721,7.8629,7.8517,7.8776,7.9477,7.9592,7.9999,8.107,8.1175,8.1269,8.1478,8.1504,8.1504,8.1504,8.1426,8.1001,8.0227,8.0072,7.9183,7.7558,7.7481,7.7055,7.6243,7.5314,7.4541,9.5864,9.8623,10.0502,10.1095,9.698,9.1325,8.6094,0.0,7.3514,6.8167,6.6167,6.5474,6.582,6.5897,0.0,7.036,7.1629,0.0,0.0,0.0,0.0,0.0,0.0,0.0,0.0,0.0,0.0,0.0,0.0,0.0,9.6288,9.6288,9.6288,9.6288,9.6288,9.6288,9.6288,9.6288,9.6288,9.6288,9.4518,9.371,9.3633,9.1595,9.0133,8.9094,8.7902,0.0,0.0,8.3324,8.2324,8.1554,8.1246,8.1093,8.1093,8.1093,8.1154,8.1273,8.1263,8.1347,8.1453,8.1478,8.1478,8.1453,8.1478,8.1478,8.1453,8.1374,8.1291,8.1234,8.1184,8.1124,8.1124,8.1263,8.1291,8.1347,8.1478,8.1504,8.1504,8.1504,8.1078,8.0744,8.0833,8.0435,8.019,8.0331,7.9906,7.9597,7.9559,7.945,7.9558,7.9807,7.9845,8.0251,8.1214,8.1319,8.14,8.1504,8.1504,8.1504,8.1504,8.1504,8.1349,8.1001,8.0459,7.9647,7.8486,7.7945,7.7248,7.6359,7.5508,7.4928,9.364,9.7396,10.0109,10.0586,9.5867,9.0017,0.0,0.0,7.2206,6.7667,6.6282,6.5897,6.5897,6.5897,6.6359,6.7782,6.8975,7.1398,7.6207,0.0,0.0,0.0,0.0,0.0,0.0,0.0,0.0,0.0,0.0,0.0,0.0,9.6288,9.6172,9.5903,9.6172,9.6057,9.5557,9.5788,9.5788,9.5518,9.4057,9.3364,9.3287,9.1595,9.0171,8.8979,8.7632,0.0,0.0,8.2862,8.1977,8.1439,8.1208,8.1093,8.1093,8.1093,8.1154,8.1244,8.1263,8.1347,8.1427,8.1478,8.1453,8.14,8.1478,8.1478,8.1453,8.14,8.1319,8.1234,8.1184,8.1124,8.1124,8.1263,8.1291,8.1319,8.1478,8.1504,8.1504,8.1504,8.1001,8.0744,8.1285,8.0898,8.0731,8.1323,8.086,8.0499,8.0473,8.0431,8.0347,8.029,8.029,8.055,8.1253,8.1347,8.1427,8.1504,8.1504,8.1504,8.1504,8.1504,8.1504,8.1504,8.0923,8.0072,7.8989,7.837,7.7481,7.6397,7.5779,7.533,9.0409,9.5172,9.8864,9.9135,9.5172,8.9863,0.0,0.0,7.2052,6.6974,6.5897,6.5897,6.5897,6.5897,6.6167,6.6974,6.8552,7.1168,7.5438,0.0,0.0,0.0,0.0,0.0,0.0,0.0,0.0,0.0,0.0,0.0,0.0,9.6288,9.5903,9.5018,9.5865,9.548,9.3749,9.4557,9.4557,9.371,9.2903,9.2518,9.2441,9.0713,8.9906,0.0,0.0,0.0,0.0,8.333,8.2292,8.2215,8.14,8.1093,8.1093,8.1093,8.1184,8.1291,8.1291,8.1374,8.1504,8.1504,8.1453,8.14,8.1478,8.1453,8.14,8.14,8.1291,8.1184,8.1124,8.1093,8.1124,8.1263,8.1291,8.1319,8.1478,8.1504,8.1504,8.1504,8.1504,8.1478,8.14,8.1453,8.1478,8.14,8.1453,8.1478,8.14,8.133,8.1244,8.1176,8.1176,8.1205,8.1291,8.1347,8.1427,8.1504,8.1504,8.1504,8.1504,8.1504,8.1504,8.1504,8.1504,8.0691,7.8989,7.8989,7.8099,7.6397,7.6397,7.5823,8.3461,8.7159,8.9897,8.9535,8.6657,8.2901,7.9254,0.0,7.0629,6.6705,6.5897,6.5897,6.5897,6.5897,6.6359,6.7744,6.8936,7.036,0.0,0.0,0.0,0.0,0.0,0.0,0.0,0.0,0.0,0.0,0.0,0.0,0.0,9.6288,9.5903,9.5018,9.5249,9.4864,9.371,9.398,9.398,9.3672,9.2864,9.221,9.1559,9.0406,8.9252,0.0,0.0,0.0,0.0,8.2285,8.1477,8.1477,8.1208,8.1093,8.1093,8.1093,8.1124,8.1184,8.1263,8.1319,8.1374,8.1478,8.144,8.1414,8.1504,8.1439,8.1374,8.1347,8.1291,8.1234,8.1124,8.1093,8.1124,8.1214,8.1263,8.1319,8.14,8.1453,8.1504,8.1504,8.1504,8.1478,8.1478,8.1453,8.1427,8.1453,8.1453,8.1427,8.1453,8.1347,8.1301,8.1263,8.1263,8.1263,8.1291,8.1347,8.1427,8.1504,8.1504,8.1504,8.1504,8.1504,8.1504,8.1504,8.1504,8.0691,7.8989,7.8989,7.8099,7.6397,7.6397,7.5862,0.0,8.1918,8.4933,8.4618,8.2646,0.0,0.0,0.0,0.0,6.6513,6.5897,0.0,0.0,0.0,0.0,0.0,0.0,0.0,0.0,0.0,0.0,0.0,0.0,0.0,0.0,0.0,0.0,0.0,0.0,0.0,0.0,9.5826,9.5249,9.4095,9.4672,9.4287,9.2787,9.3095,9.3095,9.2749,9.1902,9.1248,9.0675,8.9483,8.8367,0.0,0.0,0.0,0.0,8.1785,8.1093,8.1093,8.1093,8.1093,8.1093,8.1093,8.1131,8.1131,8.1253,8.133,8.1335,8.1478,8.1465,8.144,8.1451,8.1451,8.1427,8.1319,8.1291,8.1263,8.1124,8.1093,8.1124,8.1176,8.1234,8.1319,8.1362,8.1478,8.1504,8.1504,8.1504,8.1504,8.1504,8.1453,8.1453,8.1504,8.1453,8.1453,8.1504,8.1374,8.1291,8.1291,8.1234,8.1273,8.1291,8.1374,8.1453,8.1504,8.1504,8.1504,8.1504,8.1504,8.1504,8.1504,8.1504,8.0807,7.9453,7.8834,7.779,7.6397,7.6049,7.5731,0.0,0.0,0.0,0.0,0.0,0.0,0.0,0.0,0.0,0.0,0.0,0.0,0.0,0.0,0.0,0.0,0.0,0.0,0.0,0.0,0.0,0.0,0.0,0.0,0.0,0.0,0.0,0.0,0.0,0.0,0.0,9.4941,9.4172,9.2556,9.4018,9.3672,9.121,9.2018,9.1979,9.1095,9.0287,8.9863,8.9671,8.8132,8.7368,0.0,0.0,0.0,0.0,8.1816,8.1093,8.1093,8.1093,8.1093,8.1093,8.1093,8.1131,8.1208,8.1285,8.134,8.1426,8.1504,8.1504,8.1478,8.1424,8.1439,8.1478,8.1347,8.1291,8.1263,8.1124,8.1093,8.1124,8.1176,8.1263,8.1319,8.1375,8.144,8.1504,8.1504,8.1504,8.1504,8.1504,8.1504,8.1504,8.1504,8.1504,8.1504,8.1504,8.1374,8.1291,8.1291,8.1184,8.1184,8.1263,8.14,8.1478,8.1504,8.1504,8.1504,8.1504,8.1581,8.1581,8.1504,8.1465,8.1001,8.0188,7.8525,7.7287,7.6475,7.5585,7.5538,0.0,0.0,0.0,0.0,0.0,0.0,0.0,0.0,0.0,0.0,0.0,0.0,0.0,0.0,0.0,0.0,0.0,0.0,0.0,0.0,0.0,0.0,0.0,0.0,0.0,0.0,0.0,0.0,0.0,0.0,9.5018,9.4364,9.3518,9.2518,9.2864,9.2479,9.121,9.1402,9.1056,9.021,9.0017,8.9248,8.7979,8.7594,8.7055,0.0,0.0,0.0,8.3464,8.1816,8.1093,8.1093,8.1093,8.1093,8.1093,8.1093,8.1093,8.1131,8.1246,8.1301,8.1349,8.1465,8.1504,8.1504,8.1491,8.1478,8.1478,8.1335,8.1319,8.1263,8.1124,8.1093,8.1093,8.1124,8.1205,8.1291,8.1319,8.1427,8.1504,8.1504,8.1504,8.1504,8.1504,8.1504,8.1504,8.1504,8.1504,8.1504,8.1504,8.1427,8.1347,8.1291,8.1263,8.1301,8.1291,8.1319,8.1374,8.1478,8.1504,8.1504,8.1504,8.2122,8.2161,8.1504,8.0846,8.042,8.0188,7.8525,7.7597,7.7365,7.6514,7.5832,6.4436,6.6995,0.0,0.0,0.0,0.0,0.0,0.0,0.0,0.0,0.0,0.0,0.0,0.0,0.0,0.0,0.0,0.0,0.0,0.0,0.0,0.0,0.0,0.0,0.0,0.0,0.0,0.0,0.0,9.4826,9.4403,9.3595,9.2787,9.1941,9.1902,9.1672,9.121,9.121,9.0748,8.9902,8.9517,8.8671,8.7401,8.6978,8.6555,0.0,0.0,0.0,8.3464,8.1816,8.1093,8.1093,8.1093,8.1093,8.1093,8.1093,8.1093,8.1093,8.1208,8.1301,8.1387,8.1465,8.1504,8.1504,8.1504,8.1504,8.1478,8.1362,8.128,8.1263,8.1124,8.1093,8.1093,8.1093,8.1214,8.1291,8.1319,8.1427,8.1504,8.1504,8.1504,8.1504,8.1504,8.1504,8.1504,8.1504,8.1504,8.1504,8.1504,8.1427,8.1374,8.1291,8.1263,8.1263,8.1291,8.1291,8.1347,8.1478,8.1504,8.1697,8.2084,8.2548,8.2587,8.2122,8.162,8.1001,8.0188,7.9299,7.8448,7.7674,7.6823,7.591,6.3782,6.691,6.991,0.0,0.0,0.0,0.0,0.0,0.0,0.0,0.0,0.0,0.0,0.0,0.0,0.0,0.0,0.0,0.0,0.0,0.0,0.0,0.0,0.0,0.0,0.0,0.0,0.0,0.0,9.4441,9.3557,9.2749,9.1979,9.121,9.1056,9.1018,9.1018,9.1018,9.0517,8.9517,8.8825,8.8055,8.7171,8.644,8.6017,8.5824,0.0,0.0,8.3272,8.1739,8.1093,8.1093,8.1093,8.1093,8.1093,8.1093,8.1093,8.1093,8.1201,8.133,8.1426,8.1504,8.1504,8.1504,8.1504,8.1504,8.1478,8.1335,8.1319,8.1263,8.1124,8.1093,8.1093,8.1093,8.1214,8.1291,8.1308,8.1388,8.1504,8.1504,8.1504,8.1504,8.1504,8.1504,8.1504,8.1504,8.1504,8.1504,8.1504,8.1453,8.1374,8.1291,8.1234,8.1234,8.1291,8.1291,8.1374,8.1478,8.1504,8.1968,8.2973,8.2857,8.2857,8.3012,8.2857,8.2006,8.042,8.0266,7.9453,7.8061,7.7055,7.6127,6.5936,6.909,7.0975,0.0,0.0,0.0,0.0,0.0,0.0,0.0,0.0,0.0,0.0,0.0,0.0,0.0,0.0,0.0,0.0,0.0,0.0,0.0,0.0,0.0,0.0,0.0,0.0,0.0,0.0,9.3518,9.271,9.1864,9.1325,9.121,9.0479,9.0094,9.0094,9.0094,8.9325,8.7786,8.7671,8.7132,8.6286,8.617,8.5747,8.5016,0.0,8.317,8.2439,8.1477,8.1093,8.1093,8.1093,8.1093,8.1093,8.1093,8.1093,8.1124,8.1244,8.1335,8.1426,8.1504,8.1504,8.1504,8.1504,8.1504,8.1453,8.133,8.1301,8.1263,8.1124,8.1093,8.1093,8.1093,8.1214,8.1291,8.1291,8.14,8.1504,8.1504,8.1504,8.1504,8.1504,8.1504,8.1504,8.1504,8.1504,8.1504,8.1504,8.1478,8.1427,8.1291,8.1347,8.1347,8.1291,8.1347,8.14,8.1504,8.1504,8.2238,8.3824,8.3167,8.3128,8.3902,8.3167,8.2316,8.131,8.0575,8.0072,7.9801,7.8216,7.7016,6.4205,6.6859,6.909,0.0,0.0,0.0,0.0,0.0,0.0,0.0,0.0,0.0,0.0,0.0,0.0,0.0,0.0,0.0,0.0,0.0,0.0,0.0,0.0,0.0,0.0,0.0,0.0,0.0,0.0,0.0,9.2556,9.1672,9.0979,9.0517,9.0133,8.9479,8.8556,8.8094,8.7709,8.7401,8.7401,8.6709,8.544,8.544,8.4978,8.4132,0.0,8.267,8.2247,8.1439,8.1093,8.1093,8.1093,8.1093,8.1093,8.1093,8.1124,8.1184,8.1301,8.1347,8.1414,8.1478,8.1504,8.1504,8.1504,8.1504,8.1478,8.1358,8.1301,8.1263,8.1124,8.1093,8.1093,8.1093,8.1214,8.1291,8.1291,8.14,8.1504,8.1504,8.1504,8.1504,8.1504,8.1504,8.1504,8.1504,8.1504,8.1504,8.1504,8.1504,8.1453,8.1291,8.1347,8.1374,8.1291,8.1347,8.1427,8.1504,8.1929,8.278,8.4057,8.4134,8.4134,8.4095,8.3708,8.2857,8.1504,8.1117,8.0653,8.0188,7.895,7.7674,6.3051,6.5282,6.7821,0.0,0.0,0.0,0.0,0.0,0.0,0.0,0.0,0.0,0.0,0.0,0.0,0.0,0.0,0.0,0.0,0.0,0.0,0.0,0.0,0.0,0.0,0.0,0.0,0.0,0.0,0.0,9.2249,9.1556,9.0902,9.0248,8.9825,8.9017,8.7709,8.644,8.6247,8.7094,8.6709,8.594,8.4901,8.4709,8.4132,8.3247,8.2593,8.2208,8.1977,8.1362,8.1093,8.1093,8.1093,8.1093,8.1093,8.1093,8.1124,8.1184,8.1234,8.1319,8.1374,8.1453,8.1478,8.1504,8.1504,8.1504,8.1478,8.1319,8.1291,8.1263,8.1124,8.1093,8.1093,8.1093,8.1214,8.1291,8.1291,8.14,8.1504,8.1504,8.1504,8.1504,8.1504,8.1504,8.1504,8.1504,8.1504,8.1504,8.1504,8.1504,8.1453,8.1291,8.1374,8.14,8.1347,8.14,8.1453,8.1504,8.2122,8.2896,8.3747,8.4598,8.4714,8.4095,8.4095,8.3322,8.1788,8.1594,8.113,8.0473,7.9453,7.8293,6.5205,6.7513,6.9321,0.0,0.0,0.0,0.0,0.0,0.0,0.0,0.0,0.0,0.0,0.0,0.0,0.0,0.0,0.0,0.0,0.0,0.0,0.0,0.0,0.0,0.0,0.0,0.0,0.0,0.0,0.0,9.1364,9.1248,9.1171,9.1133,8.9594,8.8709,8.8594,8.6209,8.5401,8.617,8.4632,8.4209,8.4863,8.4055,8.3208,8.2401,8.2324,8.1862,8.117,8.1131,8.1093,8.1093,8.1093,8.1093,8.1093,8.1093,8.1093,8.1124,8.1184,8.1234,8.1319,8.1374,8.1453,8.1504,8.1504,8.1504,8.1478,8.1319,8.1291,8.1263,8.1124,8.1093,8.1093,8.1093,8.1214,8.1291,8.1291,8.14,8.1504,8.1504,8.1504,8.1504,8.1504,8.1504,8.1504,8.1504,8.1504,8.1504,8.1504,8.1504,8.1453,8.1291,8.14,8.1478,8.1478,8.1478,8.1504,8.1504,8.1581,8.1968,8.2857,8.3708,8.4173,8.4095,8.4095,8.3605,8.2625,8.1865,8.1414,8.1285,7.9738,7.8912,6.3474,6.6167,6.8821,0.0,0.0,0.0,0.0,0.0,0.0,0.0,0.0,0.0,0.0,0.0,0.0,0.0,0.0,0.0,0.0,0.0,0.0,0.0,0.0,0.0,0.0,0.0,0.0,0.0,0.0,0.0,9.1287,9.121,9.0941,9.0402,8.9286,8.844,8.7902,8.5363,8.4516,8.5363,8.417,8.3478,8.3285,8.2939,8.2324,8.1554,8.1554,8.1362,8.1093,8.1093,8.1093,8.1093,8.1093,8.1093,8.1093,8.1093,8.1124,8.1184,8.1214,8.1234,8.1291,8.1374,8.14,8.1453,8.1478,8.1504,8.1478,8.1319,8.1291,8.1263,8.1124,8.1093,8.1093,8.1093,8.1214,8.1291,8.1291,8.14,8.1504,8.1504,8.1504,8.1504,8.1504,8.1504,8.1504,8.1504,8.1504,8.1504,8.1504,8.1504,8.1453,8.1291,8.1347,8.14,8.1478,8.1504,8.1504,8.1504,8.1504,8.189,8.2741,8.3631,8.4095,8.4095,8.4598,8.4147,8.2675,8.2445,8.202,8.1362,8.028,7.9492,6.2704,6.4782,6.7282,0.0,0.0,0.0,0.0,0.0,0.0,0.0,0.0,0.0,0.0,0.0,0.0,0.0,0.0,0.0,0.0,0.0,0.0,0.0,0.0,0.0,0.0,0.0,0.0,0.0,0.0,0.0,0.0,9.121,9.0787,8.994,8.9133,8.8132,8.7017,8.5016,8.4016,8.4055,8.3478,8.2862,8.2285,8.2054,8.1631,8.1093,8.1093,8.1093,8.1093,8.1093,8.1093,8.1093,8.1093,8.1093,8.1093,8.1093,8.1124,8.1184,8.1184,8.1214,8.1263,8.1347,8.1374,8.14,8.1478,8.1504,8.1478,8.1319,8.1291,8.1263,8.1154,8.1124,8.1124,8.1124,8.1205,8.1319,8.1291,8.14,8.1504,8.1504,8.1504,8.1504,8.1504,8.1504,8.1504,8.1504,8.1504,8.1504,8.1504,8.1504,8.1453,8.1374,8.1347,8.1374,8.1478,8.1504,8.1504,8.1504,8.1504,8.1774,8.2355,8.3476,8.4095,8.4095,8.4908,8.4688,8.3487,8.2999,8.2458,8.1787,8.068,7.9738,6.3551,6.3935,0.0,0.0,0.0,0.0,0.0,0.0,0.0,0.0,0.0,0.0,0.0,0.0,0.0,0.0,0.0,0.0,0.0,0.0,0.0,0.0,0.0,0.0,0.0,0.0,0.0,0.0,0.0,0.0,0.0,9.1171,9.0787,8.994,8.9094,8.7863,8.6132,8.5286,8.4016,8.2285,8.2285,8.2285,8.2247,8.1477,8.1093,8.1093,8.1093,8.1093,8.1093,8.1093,8.1093,8.1093,8.1093,8.1093,8.1093,8.1093,8.1093,8.1093,8.1093,8.1154,8.1214,8.1263,8.1347,8.14,8.1478,8.1504,8.1478,8.1319,8.1291,8.1263,8.1244,8.1214,8.1214,8.1214,8.1291,8.1374,8.1291,8.14,8.1504,8.1504,8.1504,8.1504,8.1504,8.1504,8.1504,8.1504,8.1504,8.1504,8.1504,8.1504,8.1504,8.1504,8.1427,8.1427,8.1504,8.1504,8.1504,8.1504,8.1504,8.1504,8.1504,8.3167,8.4095,8.4095,8.4908,8.5268,8.5187,8.3525,8.2714,8.2637,8.0937,7.9726,6.2666,0.0,0.0,0.0,0.0,0.0,0.0,0.0,0.0,0.0,0.0,0.0,0.0,0.0,0.0,0.0,0.0,0.0,0.0,0.0,0.0,0.0,0.0,0.0,0.0,0.0,0.0,0.0,0.0,0.0,0.0,8.944,8.9325,8.9056,8.7632,8.6665,8.6159,8.4125,8.2855,8.2378,8.1739,8.1477,8.1439,8.1208,8.1093,8.1093,8.1093,8.1093,8.1093,8.1093,8.1093,8.1093,8.1093,8.1093,8.1093,8.1093,8.1093,8.1093,8.1093,8.1124,8.1154,8.1234,8.1291,8.1347,8.1453,8.1504,8.1478,8.1319,8.1291,8.1291,8.1263,8.1263,8.1263,8.1263,8.1319,8.14,8.1374,8.1427,8.1504,8.1504,8.1504,8.1504,8.1504,8.1504,8.1504,8.1504,8.1504,8.1504,8.1504,8.1453,8.1453,8.1504,8.1427,8.1427,8.1504,8.1504,8.1504,8.1504,8.1504,8.1504,8.1504,8.2587,8.3476,8.4095,8.4908,8.5268,8.5187,8.4684,8.3807,8.2631,8.2146,8.113,6.3858,0.0,0.0,0.0,0.0,0.0,0.0,0.0,0.0,0.0,0.0,0.0,0.0,0.0,0.0,0.0,0.0,0.0,0.0,0.0,0.0,0.0,0.0,0.0,0.0,0.0,0.0,0.0,0.0,0.0,0.0,8.8979,8.8863,8.8209,8.7171,8.6165,8.5221,8.3933,8.2855,8.1908,8.1662,8.14,8.1093,8.1093,8.1093,8.1093,8.1093,8.1093,8.1093,8.1093,8.1093,8.1093,8.1093,8.1093,8.1093,8.1093,8.1093,8.1093,8.1093,8.1093,8.1124,8.1273,8.1291,8.1319,8.1453,8.1504,8.1478,8.1319,8.1291,8.1291,8.1291,8.1291,8.1291,8.1319,8.1374,8.1427,8.14,8.1453,8.1504,8.1504,8.1504,8.1504,8.1504,8.1504,8.1504,8.1504,8.1504,8.1504,8.1504,8.1453,8.1453,8.1504,8.1453,8.1453,8.1504,8.1504,8.1504,8.1504,8.1813,8.2006,8.2006,8.2509,8.3051,8.3554,8.4714,8.5268,8.5241,8.5187,8.4628,8.3625,8.3259,8.2235,0.0,0.0,0.0,0.0,0.0,0.0,0.0,0.0,0.0,0.0,0.0,0.0,0.0,0.0,0.0,0.0,0.0,0.0,0.0,0.0,0.0,0.0,0.0,0.0,0.0,0.0,0.0,0.0,0.0,0.0,0.0,8.9056,8.8709,8.7094,8.7055,8.5934,8.3603,8.4202,8.3433,8.1214,8.1855,8.1823,8.1093,8.1093,8.1093,8.1093,8.1093,8.1093,8.1093,8.1093,8.1093,8.1093,8.1093,8.1093,8.1093,8.1093,8.1093,8.1093,8.1093,8.1093,8.1124,8.1273,8.1291,8.1319,8.1453,8.1504,8.1478,8.1347,8.1291,8.1291,8.1291,8.1291,8.1319,8.1374,8.1453,8.1478,8.1427,8.1453,8.1504,8.1504,8.1504,8.1504,8.1504,8.1504,8.1504,8.1504,8.1504,8.1504,8.1504,8.1504,8.1504,8.1504,8.1504,8.1504,8.1504,8.1504,8.1504,8.1504,8.2393,8.2935,8.2935,8.2973,8.2973,8.2896,8.4559,8.5333,8.5178,8.5225,8.5188,8.5028,8.4219,8.2998,0.0,0.0,0.0,0.0,0.0,0.0,0.0,0.0,0.0,0.0,0.0,0.0,0.0,0.0,0.0,0.0,0.0,0.0,0.0,0.0,0.0,0.0,0.0,0.0,0.0,0.0,0.0,0.0,0.0,0.0,8.5747,8.5901,8.5517,8.4439,8.4401,8.3888,8.2844,8.2232,8.1693,0.0,8.1308,8.1285,8.1093,8.1093,8.1093,8.1093,8.1093,8.1093,8.1093,8.1093,8.1093,8.1093,8.1093,8.1093,8.1093,8.1093,8.1093,8.1093,8.1093,8.1093,8.1124,8.1273,8.1291,8.1319,8.1453,8.1504,8.1478,8.14,8.1319,8.1291,8.1347,8.1319,8.1319,8.1453,8.1478,8.1504,8.1478,8.1478,8.1504,8.1504,8.1504,8.1504,8.1504,8.1504,8.1504,8.1504,8.1504,8.1504,8.1504,8.1504,8.1504,8.1504,8.1504,8.1504,8.1504,8.1504,8.1504,8.1504,8.2973,8.3799,8.3811,8.4417,8.4482,8.3824,8.5488,8.5681,8.4366,8.5545,8.5428,8.4111,8.4528,8.3796,0.0,0.0,0.0,0.0,0.0,0.0,0.0,0.0,0.0,0.0,0.0,0.0,0.0,0.0,0.0,0.0,0.0,0.0,0.0,0.0,0.0,0.0,0.0,0.0,0.0,0.0,0.0,0.0,0.0,8.517,8.4324,8.467,8.4516,8.3632,8.3593,8.3233,8.2507,8.1955,8.157,8.1234,8.1184,8.1124,8.1093,8.1093,8.1093,8.1093,8.1093,8.1124,8.1154,8.1124,8.1124,8.1154,8.1124,8.1093,8.1093,8.1093,8.1093,8.1093,8.1093,8.1093,8.1124,8.1273,8.1291,8.1319,8.1453,8.1504,8.1478,8.1427,8.1347,8.1291,8.1347,8.1319,8.1319,8.1427,8.1478,8.1504,8.1504,8.1504,8.1504,8.1504,8.1504,8.1504,8.1504,8.1504,8.1504,8.1504,8.1504,8.1504,8.1504,8.1504,8.1504,8.1504,8.1504,8.1504,8.1504,8.1504,8.1504,8.1504,8.3128,8.4289,8.4649,8.63,8.6571,8.5333,8.6172,8.5978,8.4675,8.5825,8.5707,8.4412,8.519,8.4882,0.0,0.0,0.0,0.0,0.0,0.0,0.0,0.0,0.0,0.0,0.0,0.0,0.0,0.0,0.0,0.0,0.0,0.0,0.0,0.0,0.0,0.0,0.0,0.0,0.0,0.0,0.0,0.0,0.0,8.4132,8.3401,8.4055,8.4055,8.3208,8.3285,8.3002,8.2246,8.2177,8.1869,8.1205,8.1214,8.1184,8.1093,8.1093,8.1093,8.1093,8.1124,8.1154,8.1214,8.1154,8.1154,8.1214,8.1124,8.1093,8.1093,8.1124,8.1093,8.1093,8.1124,8.1093,8.1124,8.1273,8.1291,8.1319,8.1453,8.1504,8.1478,8.1427,8.1347,8.1291,8.1319,8.1319,8.1319,8.14,8.1453,8.1504,8.1504,8.1504,8.1504,8.1504,8.1504,8.1504,8.1504,8.1504,8.1504,8.1504,8.1504,8.1504,8.1504,8.1504,8.1504,8.1504,8.1504,8.1504,8.1504,8.1504,8.1504,8.1504,8.3283,8.4598,8.5294,8.7925,8.8737,8.7267,8.7255,8.6623,8.5282,8.6057,8.5861,8.4897,8.5581,8.5472,0.0,0.0,0.0,0.0,0.0,0.0,0.0,0.0,0.0,0.0,0.0,0.0,0.0,0.0,0.0,0.0,0.0,0.0,0.0,0.0,0.0,0.0,0.0,0.0,0.0,0.0,0.0,0.0,8.3131,8.2593,8.2477,8.2593,8.2285,8.1477,8.2093,8.2117,8.1456,8.1398,8.135,8.1374,8.1273,8.1184,8.1093,8.1093,8.1093,8.1093,8.1154,8.1214,8.1214,8.1214,8.1214,8.1214,8.1124,8.1093,8.1093,8.1184,8.1154,8.1093,8.1184,8.1154,8.1124,8.1273,8.1291,8.1319,8.1453,8.1504,8.1504,8.1478,8.14,8.1319,8.1427,8.1374,8.1319,8.1453,8.1478,8.1504,8.1504,8.1504,8.1504,8.1504,8.1504,8.1504,8.1504,8.1504,8.1504,8.1504,8.1504,8.1504,8.1504,8.1504,8.1504,8.1504,8.1504,8.1504,8.1504,8.1504,8.1504,8.1504,8.3799,8.5191,8.5307,8.8505,9.013,8.9898,8.9898,8.835,8.532,8.6047,8.5544,8.398,8.4703,8.4593,0.0,0.0,0.0,0.0,0.0,0.0,0.0,0.0,0.0,0.0,0.0,0.0,0.0,0.0,0.0,0.0,0.0,0.0,0.0,0.0,0.0,0.0,0.0,0.0,0.0,0.0,0.0,0.0,8.2124,8.1662,8.1693,8.1662,8.1477,8.1093,8.1439,8.147,8.1184,8.1205,8.1263,8.1347,8.1273,8.1184,8.1093,8.1093,8.1093,8.1093,8.1184,8.1244,8.1234,8.1244,8.1244,8.1273,8.1154,8.1093,8.1093,8.1184,8.1184,8.1154,8.1214,8.1184,8.1184,8.1263,8.1291,8.1319,8.1453,8.1504,8.1504,8.1504,8.14,8.1291,8.1374,8.1347,8.1291,8.1374,8.1453,8.1504,8.1504,8.1504,8.1504,8.1504,8.1504,8.1504,8.1504,8.1504,8.1504,8.1504,8.1504,8.1504,8.1504,8.1504,8.1504,8.1504,8.1504,8.1504,8.1504,8.1504,8.1697,8.22,8.3747,8.5062,8.5964,8.8428,8.9936,9.04,9.04,8.9433,8.7461,8.6742,8.5767,8.4511,8.4273,8.4209,0.0,0.0,0.0,0.0,0.0,0.0,0.0,0.0,0.0,0.0,0.0,0.0,0.0,0.0,0.0,0.0,0.0,0.0,0.0,0.0,0.0,0.0,0.0,0.0,0.0,0.0,0.0,0.0,8.1501,8.1154,8.1214,8.1154,8.1124,8.1093,8.1093,8.1093,8.1124,8.1234,8.1319,8.1319,8.1273,8.1214,8.1124,8.1093,8.1093,8.1093,8.1184,8.1234,8.1263,8.1244,8.1234,8.1234,8.1154,8.1093,8.1093,8.1214,8.1214,8.1214,8.1244,8.1244,8.1214,8.1291,8.1291,8.1319,8.1453,8.1504,8.1504,8.1504,8.14,8.1319,8.1347,8.1319,8.1319,8.1347,8.1427,8.1504,8.1504,8.1504,8.1504,8.1504,8.1504,8.1504,8.1504,8.1504,8.1504,8.1504,8.1504,8.1504,8.1504,8.1504,8.1504,8.1504,8.1504,8.1581,8.1813,8.1852,8.22,8.3089,8.394,8.4985,8.6223,8.7925,8.9163,8.9743,9.0168,9.0091,8.9511,8.7427,8.6066,8.5419,8.3957,8.374,0.0,0.0,0.0,0.0,0.0,0.0,0.0,0.0,0.0,0.0,0.0,0.0,0.0,0.0,0.0,0.0,0.0,0.0,0.0,0.0,0.0,0.0,0.0,0.0,0.0,0.0,0.0,0.0,8.1214,8.1214,8.1214,8.1214,8.1184,8.1093,8.1093,8.1124,8.1214,8.1319,8.14,8.14,8.1319,8.1234,8.1214,8.1124,8.1093,8.1093,8.1244,8.1234,8.1214,8.1263,8.1234,8.1214,8.1124,8.1093,8.1124,8.1273,8.1234,8.1244,8.1347,8.1291,8.1244,8.1347,8.1347,8.1319,8.1453,8.1504,8.1504,8.1504,8.1453,8.14,8.1478,8.1427,8.14,8.1478,8.1504,8.1504,8.1504,8.1504,8.1504,8.1504,8.1504,8.1504,8.1504,8.1504,8.1504,8.1504,8.1504,8.1504,8.1504,8.1504,8.1504,8.1504,8.1504,8.1852,8.2664,8.2741,8.3089,8.3979,8.4792,8.5294,8.5372,8.7035,8.8002,8.8041,8.9588,9.0362,9.0323,8.7726,8.6433,8.6268,8.3672,8.2887,0.0,0.0,0.0,0.0,0.0,0.0,0.0,0.0,0.0,0.0,0.0,0.0,0.0,0.0,0.0,0.0,0.0,0.0,0.0,0.0,0.0,0.0,0.0,0.0,0.0,0.0,0.0,0.0,0.0,8.1244,8.1234,8.1244,8.1184,8.1093,8.1093,8.1154,8.1234,8.1291,8.1347,8.14,8.1319,8.1234,8.1214,8.1124,8.1093,8.1093,8.1234,8.1234,8.1214,8.1263,8.1234,8.1214,8.1124,8.1124,8.1184,8.1301,8.1291,8.1319,8.1374,8.1319,8.1263,8.1374,8.1347,8.1319,8.1453,8.1504,8.1504,8.1504,8.1453,8.14,8.1427,8.1427,8.14,8.1478,8.1504,8.1504,8.1504,8.1504,8.1504,8.1504,8.1504,8.1504,8.1504,8.1504,8.1504,8.1504,8.1968,8.2122,8.1581,8.2471,8.2935,8.2393,8.2819,8.3283,8.3592,8.3631,8.3979,8.483,8.514,8.5565,8.6107,8.7267,8.8157,8.8737,8.982,9.04,9.04,8.8344,8.7592,8.7889,8.4134,8.3149,0.0,0.0,0.0,0.0,0.0,0.0,0.0,0.0,0.0,0.0,0.0,0.0,0.0,0.0,0.0,0.0,0.0,0.0,0.0,0.0,0.0,0.0,0.0,0.0,0.0,0.0,0.0,0.0,0.0,0.0,8.1291,8.1273,8.1214,8.1093,8.1093,8.1184,8.1291,8.1291,8.1347,8.1427,8.1347,8.1263,8.1244,8.1154,8.1124,8.1154,8.1234,8.1234,8.1214,8.1263,8.1234,8.1214,8.1124,8.1154,8.1214,8.1263,8.1347,8.14,8.1427,8.1374,8.1347,8.14,8.1374,8.1347,8.1453,8.1504,8.1504,8.1504,8.1478,8.1427,8.1427,8.1427,8.1453,8.1478,8.1504,8.1504,8.1504,8.1504,8.1504,8.1504,8.1504,8.1581,8.189,8.1929,8.1929,8.1929,8.2664,8.2935,8.2045,8.2935,8.3554,8.3283,8.3476,8.3902,8.4443,8.4482,8.4869,8.5681,8.5759,8.6145,8.6996,8.7577,8.8312,8.9163,8.9975,9.04,9.04,8.8952,8.8664,8.9239,8.4897,8.311,0.0,0.0,0.0,0.0,0.0,0.0,0.0,0.0,0.0,0.0,0.0,0.0,0.0,0.0,0.0,0.0,0.0,0.0,0.0,0.0,0.0,0.0,0.0,0.0,0.0,8.1224,8.1184,8.1263,8.1291,8.1291,8.1291,8.1291,8.1244,8.1093,8.1093,8.1146,8.1253,8.1291,8.1374,8.1465,8.1347,8.1291,8.1291,8.1154,8.1124,8.1214,8.1263,8.1234,8.1214,8.1263,8.1234,8.1214,8.1124,8.1154,8.1214,8.1263,8.1347,8.14,8.1478,8.1453,8.14,8.1478,8.1453,8.14,8.1478,8.1504,8.1504,8.1504,8.1504,8.1504,8.1504,8.1504,8.1504,8.1504,8.1504,8.1504,8.1504,8.1504,8.1504,8.1504,8.1504,8.1774,8.2625,8.278,8.278,8.278,8.3554,8.3824,8.2935,8.2857,8.3244,8.4057,8.3399,8.3554,8.5217,8.5333,8.572,8.6571,8.661,8.6996,8.7847,8.7925,8.8312,8.9201,9.0014,9.04,9.0439,8.9627,8.9581,9.0126,8.5844,8.2901,5.1679,0.0,0.0,0.0,0.0,0.0,0.0,0.0,0.0,0.0,0.0,0.0,0.0,0.0,0.0,0.0,0.0,0.0,0.0,0.0,8.1615,8.1639,8.1749,8.1767,8.164,8.1437,8.1335,0.0,8.1291,8.1319,8.1374,8.1263,8.1184,8.1093,8.1093,8.0876,8.0365,8.0983,8.1065,8.0575,8.1038,8.1291,8.1291,8.1154,8.1093,8.1124,8.1234,8.1263,8.1263,8.1291,8.1234,8.1214,8.1124,8.1184,8.1263,8.1291,8.1374,8.1478,8.1478,8.1453,8.14,8.1478,8.1453,8.14,8.1478,8.1504,8.1504,8.1504,8.1504,8.1504,8.1504,8.1504,8.1504,8.1504,8.1504,8.1504,8.1504,8.1504,8.1504,8.1504,8.1504,8.1581,8.1813,8.2393,8.278,8.278,8.4057,8.4675,8.3863,8.4792,8.541,8.5024,8.5333,8.5759,8.6184,8.6261,8.6339,8.6571,8.661,8.6996,8.7847,8.7925,8.8582,9.0052,9.0284,9.071,9.1329,9.0478,9.046,9.1145,8.7357,8.4612,0.0,0.0,0.0,0.0,0.0,0.0,6.2799,6.4849,0.0,0.0,0.0,7.5784,7.8477,7.9276,7.9661,7.9977,8.0354,8.0761,8.1157,8.1501,8.1732,8.183,8.1928,8.1928,8.1726,8.1536,8.1375,8.1291,8.1291,8.1319,8.1347,8.1273,8.1184,8.1093,8.0746,8.0538,8.0558,8.0327,8.0215,8.0188,8.0188,8.0211,8.0211,8.0423,8.0585,8.0654,8.109,8.133,8.1319,8.1335,8.128,8.1205,8.1124,8.1184,8.1234,8.1263,8.1374,8.1453,8.1478,8.1478,8.1453,8.1478,8.1478,8.1453,8.1478,8.1504,8.1504,8.1504,8.1504,8.1504,8.1504,8.1504,8.1504,8.1504,8.1504,8.1504,8.1504,8.1504,8.1504,8.1504,8.1504,8.1736,8.2471,8.2703,8.3051,8.3747,8.4675,8.514,8.4675,8.5449,8.5991,8.5875,8.5991,8.6223,8.6648,8.6687,8.6726,8.6764,8.7074,8.7615,8.8466,8.8776,8.9588,9.0903,9.0942,9.1174,9.1716,9.1174,9.0643,8.9977,8.7819,8.5459,0.0,0.0,0.0,0.0,0.0,0.0,6.2975,6.318,6.3599,0.0,0.0,7.3091,7.4976,7.6072,7.6833,7.7314,7.8536,7.9923,8.1208,8.1551,8.1762,8.1991,8.2036,8.1953,8.1739,8.1561,8.1375,8.1291,8.1291,8.1291,8.1291,8.1234,8.1184,8.1093,8.0362,8.0307,8.0993,7.9594,7.9211,7.9918,7.9211,7.8822,7.8872,7.9644,7.9999,8.0097,8.0935,8.133,8.1374,8.1337,8.1285,8.1301,8.1154,8.1154,8.1244,8.1263,8.1347,8.1427,8.1478,8.1504,8.1504,8.1504,8.1504,8.1504,8.1504,8.1504,8.1504,8.1504,8.1504,8.1504,8.1504,8.1504,8.1504,8.1504,8.1504,8.1504,8.1504,8.1504,8.1504,8.1504,8.1504,8.2006,8.367,8.3399,8.3438,8.4946,8.5333,8.541,8.5294,8.5372,8.5759,8.6532,8.5913,8.5836,8.6726,8.6817,8.6867,8.6984,8.7694,8.8481,8.9383,9.0014,9.0826,9.1677,9.1716,9.1716,9.1716,9.1716,9.045,8.8084,8.7704,8.5799,0.0,0.0,0.0,0.0,0.0,0.0,5.6269,5.8304,6.1022,0.0,6.5365,6.7282,7.036,7.1591,7.1772,7.0552,7.3976,7.7852,8.0976,8.1569,8.1776,8.1968,8.2131,8.212,8.1753,8.164,8.1567,8.1291,8.14,8.14,8.1291,8.1263,8.1244,8.1093,8.0977,8.0384,7.9201,7.9615,7.9262,7.8201,7.9274,7.9816,7.9769,8.055,8.0915,8.0893,8.1176,8.133,8.1335,8.1308,8.1291,8.1311,8.1154,8.1184,8.1263,8.1291,8.1374,8.1478,8.1504,8.1504,8.1504,8.1504,8.1504,8.1504,8.1504,8.1504,8.1504,8.1504,8.1504,8.1504,8.1504,8.1504,8.1504,8.1504,8.1504,8.1504,8.1504,8.1504,8.1504,8.1504,8.1504,8.1852,8.2857,8.3476,8.394,8.4289,8.5488,8.6107,8.5372,8.5913,8.6455,8.6726,8.661,8.6648,8.6919,8.6982,8.6966,8.7005,8.768,8.8468,8.9356,9.0052,9.0826,9.1677,9.1716,9.1716,9.1716,9.1716,9.1069,8.9784,8.8266,8.6825,0.0,0.0,0.0,5.5981,0.0,0.0,0.0,5.6835,5.8217,6.1582,6.215,6.2974,6.5974,6.7256,6.7821,6.7744,7.1029,7.4359,7.663,7.8959,8.0481,8.07,8.0875,8.086,8.0494,8.0455,8.0516,8.0717,8.1221,8.1427,8.1291,8.1291,8.1244,8.1093,8.0285,7.9691,7.9326,7.8535,7.7988,7.7674,7.8037,7.8426,7.8795,7.9548,8.0106,8.0477,8.106,8.133,8.1296,8.1335,8.1319,8.1282,8.1124,8.1154,8.1234,8.1263,8.1347,8.1453,8.1478,8.1504,8.1504,8.1504,8.1504,8.1504,8.1504,8.1504,8.1504,8.1504,8.1504,8.1504,8.1504,8.1504,8.1504,8.1504,8.1504,8.1504,8.1504,8.1504,8.162,8.2045,8.2161,8.2432,8.336,8.3476,8.3902,8.5256,8.572,8.5952,8.5952,8.6339,8.6648,8.6803,8.6803,8.688,8.7074,8.7087,8.7136,8.7234,8.8281,8.9042,8.9472,9.0516,9.1445,9.2335,9.2335,9.2335,9.2335,9.1909,9.1223,9.0344,8.9338,8.7935,0.0,0.0,0.0,0.0,0.0,5.712,0.0,0.0,0.0,6.0381,6.0035,0.0,0.0,0.0,0.0,0.0,0.0,0.0,0.0,7.4439,0.0,7.8332,7.8884,7.9149,7.9013,7.865,7.8812,7.9778,8.01,8.0448,8.0817,8.079,8.081,8.0893,7.9477,7.9084,7.9712,7.7742,7.6958,7.7442,7.7046,7.7164,7.7753,7.87,7.949,8.0123,8.0935,8.1319,8.1323,8.1375,8.1335,8.1311,8.1184,8.1184,8.1244,8.1291,8.1347,8.1427,8.1478,8.1504,8.1504,8.1504,8.1504,8.1504,8.1504,8.1504,8.1542,8.1697,8.1736,8.1736,8.1736,8.1736,8.1697,8.1542,8.1504,8.1504,8.1504,8.162,8.1968,8.2664,8.2935,8.3399,8.4353,8.3889,8.4057,8.6223,8.5991,8.5797,8.6339,8.6532,8.6687,8.6842,8.688,8.6958,8.7248,8.7248,8.7332,8.7493,8.8832,8.9604,8.9599,9.1107,9.2335,9.3224,9.3224,9.3224,9.3224,9.2373,9.1406,9.04,9.0265,8.9007,0.0,0.0,0.0,0.0,6.113,0.0,0.0,0.0,5.9054,5.721,0.0,0.0,0.0,0.0,0.0,0.0,0.0,0.0,6.4638,6.7795,7.1261,7.4496,7.64,7.7674,7.8184,7.6692,7.6596,7.8851,7.7046,7.6814,7.9044,7.9042,7.9307,7.9991,7.9854,7.9438,7.8776,7.8657,7.7891,7.6475,7.7959,7.8632,7.8623,8.0242,8.1012,8.1051,8.1242,8.1323,8.1401,8.1388,8.1347,8.1291,8.128,8.128,8.1291,8.1347,8.1427,8.1478,8.1504,8.1504,8.1504,8.1504,8.1504,8.1504,8.1504,8.1504,8.1658,8.2432,8.265,8.265,8.265,8.265,8.2432,8.1697,8.1504,8.1504,8.1504,8.2122,8.2664,8.278,8.3515,8.4392,8.5243,8.5282,8.5294,8.5577,8.6223,8.6377,8.5681,8.63,8.688,8.7112,8.7151,8.7254,8.744,8.749,8.7492,8.752,8.8832,8.9604,8.9599,9.1687,9.3224,9.4037,9.4037,9.4037,9.4037,9.3263,9.2025,9.04,9.0265,8.9625,0.0,0.0,0.0,0.0,0.0,0.0,0.0,0.0,5.7195,0.0,0.0,0.0,0.0,0.0,0.0,0.0,5.9263,0.0,0.0,0.0,6.6958,0.0,0.0,0.0,7.3503,7.4147,7.4934,7.5925,7.5886,7.6248,7.7344,7.8695,7.9373,7.9172,7.9122,7.8908,7.86,7.8243,7.7962,7.7808,7.8114,7.8657,7.9461,7.9682,8.0309,8.1167,8.0751,8.0872,8.135,8.0912,8.0963,8.1347,8.1427,8.1374,8.1291,8.1374,8.1427,8.1504,8.1504,8.1504,8.1504,8.1504,8.1504,8.1504,8.1504,8.1852,8.2316,8.2728,8.3153,8.3554,8.3554,8.3554,8.3438,8.3089,8.3012,8.3012,8.3012,8.3283,8.367,8.4173,8.4637,8.5304,8.6224,8.5894,8.5698,8.6282,8.6615,8.6687,8.63,8.6644,8.698,8.7204,8.7642,8.8031,8.8161,8.8672,8.8967,8.8962,9.0266,9.119,9.1561,9.3418,9.4617,9.4965,9.4965,9.4965,9.4965,9.4114,9.307,9.1909,9.1192,9.0435,6.3785,0.0,0.0,0.0,0.0,0.0,0.0,0.0,0.0,0.0,0.0,0.0,0.0,0.0,0.0,0.0,0.0,5.9653,0.0,6.0709,0.0,0.0,0.0,0.0,0.0,7.1875,7.2677,7.3512,7.376,7.4277,7.5243,7.7177,7.8177,7.7996,7.8142,7.8237,7.8284,7.7996,7.7988,7.8181,7.8089,7.8606,7.9632,7.9246,7.9874,8.1167,8.0376,8.0536,8.135,8.055,8.068,8.14,8.1478,8.1427,8.1319,8.14,8.1453,8.1504,8.1504,8.1504,8.1504,8.1504,8.1504,8.1504,8.1504,8.1929,8.2548,8.3012,8.3592,8.4134,8.434,8.4443,8.4366,8.4134,8.4134,8.4134,8.4134,8.4366,8.4714,8.5294,8.572,8.6195,8.6921,8.6456,8.6263,8.7211,8.7087,8.7049,8.7507,8.7468,8.7561,8.7915,8.8536,8.8948,8.906,8.9622,9.0169,9.056,9.1494,9.2538,9.365,9.4849,9.5623,9.5855,9.5855,9.5855,9.5855,9.4965,9.4114,9.3302,9.2234,9.1322,0.0,0.0,0.0,6.2998,0.0,0.0,0.0,0.0,6.1002,0.0,0.0,0.0,0.0,0.0,0.0,0.0,0.0,0.0,0.0,0.0,0.0,0.0,0.0,0.0,0.0,7.0019,6.9413,0.0,6.9684,6.9241,7.2529,7.3495,7.4642,7.6339,7.7032,7.7467,7.7522,7.8412,7.8039,7.6417,7.8153,7.8876,7.8783,7.9594,8.0442,8.1253,8.0365,8.0563,8.1426,8.0575,8.068,8.14,8.1478,8.1453,8.14,8.1478,8.1504,8.1504,8.1504,8.1504,8.1504,8.1504,8.1504,8.1504,8.1504,8.1542,8.189,8.3579,8.4069,8.4263,8.5075,8.5256,8.5062,8.4289,8.4211,8.4314,8.4314,8.5049,8.5746,8.5785,8.652,8.7178,8.7178,8.7178,8.741,8.8145,8.7654,8.7739,8.9309,8.8882,8.8847,8.9797,8.9921,8.9961,8.9961,8.9986,9.0555,9.1958,9.196,9.2963,9.5313,9.5468,9.5893,9.6744,9.6744,9.6744,9.6744,9.5893,9.5004,9.4153,9.3153,9.2241,0.0,0.0,7.2305,6.6562,0.0,0.0,0.0,0.0,0.0,0.0,0.0,0.0,0.0,0.0,0.0,0.0,0.0,0.0,0.0,0.0,0.0,0.0,0.0,0.0,0.0,0.0,0.0,6.8488,6.7917,0.0,7.0015,7.2877,7.4526,7.464,7.6442,7.74,7.7428,7.8359,7.8528,7.7884,7.8631,7.9211,7.9609,7.9404,7.9752,8.0459,8.0188,8.028,8.0614,8.0343,8.0705,8.1478,8.1478,8.1478,8.1478,8.1478,8.1504,8.1504,8.1504,8.1504,8.1504,8.1504,8.1504,8.1504,8.1504,8.189,8.2587,8.3786,8.4559,8.5217,8.6068,8.6377,8.6339,8.6068,8.6029,8.6093,8.6088,8.6822,8.7444,8.7444,8.8274,8.8945,8.8945,8.8996,8.893,8.8492,8.8245,8.8494,8.9593,8.9596,8.9633,8.996,9.0508,9.0859,9.0859,9.1916,9.2678,9.293,9.4005,9.4888,9.5468,9.6048,9.6512,9.6783,9.6783,9.6783,9.6783,9.6512,9.5893,9.5042,9.4103,9.2883,7.0839,7.2773,0.0,6.9375,6.8672,0.0,6.2599,0.0,0.0,0.0,0.0,0.0,0.0,0.0,0.0,0.0,0.0,0.0,0.0,5.4872,0.0,0.0,0.0,0.0,0.0,0.0,6.5798,6.6037,6.5838,0.0,0.0,7.0637,7.2761,7.2886,7.5298,7.6712,7.7047,7.8258,7.8554,7.7898,7.894,7.9481,7.9662,7.916,7.9353,8.0087,7.9816,7.9842,8.0188,8.0188,8.073,8.1504,8.1504,8.1504,8.1504,8.1504,8.1504,8.1504,8.1504,8.1504,8.1504,8.1504,8.1504,8.1504,8.1504,8.2122,8.3089,8.4559,8.5217,8.5939,8.7693,8.7614,8.7071,8.7403,8.7265,8.7177,8.7487,8.8001,8.8548,8.886,8.9443,8.9877,8.9875,8.9949,8.9883,8.9492,8.9184,8.943,9.0559,9.0557,9.0586,9.0898,9.1445,9.1875,9.2187,9.3203,9.3973,9.4296,9.5349,9.5932,9.5971,9.6512,9.7092,9.7673,9.7092,9.7092,9.7673,9.7092,9.6358,9.5468,9.4558,9.3398]},{"header":{"parameterUnit":"m.s-1","parameterCategory":1,"la1":30.6,"la2":29.2853,"lo1":-89.7004,"lo2":-87.6739,"dy":0.0162,"dx":0.0183,"nx":112,"ny":82,"refTime":"2023-03-18T18:00:00:Z","depth":0,"parameterNumber":3,"parameterNumberName":"V-component_of_WINDS"},"data":[0.0,0.0,0.0,0.0,0.0,0.0,0.0,0.0,0.0,0.0,0.0,0.0,0.0,0.0,0.0,0.0,0.0,0.0,0.0,0.0,0.0,0.0,0.0,0.0,0.0,0.0,0.0,0.0,0.0,0.0,0.0,0.0,0.0,0.0,0.0,0.0,0.0,0.0,0.0,0.0,0.0,0.0,0.0,0.0,0.0,0.0,0.0,0.0,0.0,0.0,0.0,0.0,0.0,0.0,0.0,0.0,0.0,0.0,0.0,0.0,0.0,0.0,0.0,0.0,0.0,0.0,0.0,0.0,0.0,0.0,0.0,0.0,0.0,0.0,0.0,0.0,0.0,0.0,0.0,0.0,0.0,0.0,0.0,0.0,0.0,0.0,0.0,0.0,0.0,0.0,0.0,-1.0941,-1.1676,-1.2075,-1.2099,-1.1095,-0.9954,-0.8671,0.0,0.0,0.0,0.0,0.0,0.0,0.0,0.0,0.0,0.0,0.0,0.0,0.0,0.0,0.0,0.0,0.0,0.0,0.0,0.0,0.0,0.0,0.0,0.0,0.0,0.0,0.0,0.0,0.0,0.0,0.0,0.0,0.0,0.0,0.0,0.0,0.0,0.0,0.0,0.0,0.0,0.0,0.0,0.0,0.0,0.0,0.0,0.0,0.0,0.0,0.0,0.0,0.0,0.0,0.0,0.0,0.0,0.0,0.0,0.0,0.0,0.0,0.0,0.0,0.0,0.0,0.0,0.0,0.0,0.0,0.0,0.0,0.0,0.0,0.0,0.0,0.0,0.0,0.0,0.0,0.0,0.0,0.0,0.0,0.0,0.0,0.0,0.0,0.0,0.0,0.0,0.0,0.0,0.0,0.0,0.0,0.0,0.0,0.0,0.0,0.0,0.0,0.0,0.0,-1.0487,-1.2237,-1.2204,-1.2118,-1.2234,-1.0992,-0.978,-0.866,0.0,0.0,0.0,0.0,0.0,0.0,0.0,0.0,0.0,0.0,0.0,0.0,0.0,0.0,0.0,0.0,0.0,0.0,0.0,0.0,0.0,0.0,0.0,0.0,0.0,0.0,0.0,0.0,0.0,0.0,0.0,0.0,0.0,0.0,0.0,0.0,0.0,0.0,0.0,0.0,0.0,0.0,0.0,0.0,0.0,0.0,0.0,0.0,0.0,0.0,0.0,0.0,0.0,0.0,0.0,0.0,0.0,0.0,0.0,0.0,0.0,0.0,0.0,0.0,0.0,0.0,0.0,0.0,0.0,0.0,0.0,0.0,0.0,0.0,0.0,0.0,0.0,0.0,0.0,0.0,0.0,0.0,0.0,0.0,0.0,0.0,0.0,0.0,0.0,0.0,0.0,0.0,0.0,0.0,0.0,0.0,0.0,0.0,0.0,0.0,0.0,0.0,0.0,-0.9958,-1.09,-1.244,-1.2268,-1.2093,-1.216,-1.0992,-0.984,-0.8753,-0.8454,0.0,0.0,0.0,0.0,0.0,0.0,0.0,0.0,0.0,0.0,0.0,0.0,0.0,0.0,0.0,0.0,0.0,0.0,0.0,0.0,0.0,0.0,0.0,0.0,0.0,0.0,0.0,0.0,0.0,0.0,0.0,0.0,0.0,0.0,0.0,0.0,0.0,0.0,0.0,0.0,0.0,0.0,0.0,0.0,0.0,0.0,0.0,0.0,0.0,0.0,0.0,0.0,0.0,0.0,0.0,0.0,0.0,0.0,0.0,0.0,0.0,0.0,0.0,0.0,0.0,0.0,0.0,0.0,0.0,0.0,0.0,0.0,0.0,0.0,0.0,0.0,0.0,0.0,0.0,0.0,0.0,0.0,0.0,0.0,0.0,0.0,0.0,0.0,0.0,0.0,0.0,0.0,0.0,0.0,0.0,0.0,0.0,0.0,0.0,0.0,0.0,0.0,-1.0636,-1.1348,-1.244,-1.2385,-1.2198,-1.2069,-1.1034,-0.9926,-0.8829,-0.8329,0.0,0.0,0.0,0.0,0.0,0.0,0.0,0.0,0.0,0.0,0.0,0.0,0.0,0.0,0.0,0.0,0.0,0.0,0.0,0.0,0.0,0.0,0.0,0.0,0.0,0.0,0.0,0.0,0.0,0.0,0.0,0.0,0.0,0.0,0.0,0.0,0.0,0.0,0.0,0.0,0.0,0.0,0.0,0.0,0.0,0.0,0.0,0.0,0.0,0.0,0.0,0.0,0.0,0.0,0.0,0.0,0.0,0.0,0.0,0.0,0.0,0.0,0.0,0.0,0.0,0.0,0.0,0.0,0.0,0.0,0.0,0.0,0.0,0.0,0.0,0.0,0.0,0.0,0.0,0.0,0.0,0.0,0.0,0.0,0.0,0.0,0.0,0.0,0.0,0.0,0.0,0.0,0.0,0.0,0.0,0.0,0.0,0.0,0.0,0.0,0.0,0.0,-1.0941,-1.1857,-1.263,-1.2514,-1.2421,-1.2056,-1.094,-0.9763,-0.8802,-0.8013,0.0,0.0,0.0,0.0,0.0,0.0,0.0,0.0,0.0,0.0,0.0,0.0,0.0,0.0,0.0,0.0,0.0,0.0,0.0,0.0,0.0,0.0,0.0,0.0,0.0,0.0,0.0,0.0,0.0,0.0,0.0,0.0,0.0,0.0,0.0,0.0,0.0,0.0,0.0,0.0,0.0,0.0,0.0,0.0,0.0,0.0,0.0,0.0,0.0,0.0,0.0,0.0,0.0,0.0,0.0,0.0,0.0,0.0,0.0,0.0,0.0,0.0,0.0,0.0,0.0,0.0,0.0,0.0,0.0,0.0,0.0,0.0,0.0,0.0,0.0,0.0,0.0,0.0,0.0,0.0,0.0,0.0,0.0,0.0,0.0,0.0,0.0,0.0,0.0,0.0,0.0,0.0,0.0,0.0,0.0,0.0,0.0,0.0,0.0,0.0,0.0,0.0,-1.0663,-1.1558,0.0,-1.2383,-1.2319,-1.205,-1.1118,-0.9996,-0.8921,0.0,0.0,0.0,0.0,0.0,0.0,0.0,0.0,0.0,0.0,0.0,0.0,0.0,0.0,0.0,0.0,0.0,0.0,0.0,0.0,0.0,0.0,0.0,0.0,0.0,0.0,0.0,0.0,0.0,0.0,0.0,0.0,0.0,0.0,0.0,0.0,0.0,0.0,0.0,0.0,0.0,0.0,0.0,0.0,0.0,0.0,0.0,0.0,0.0,0.0,0.0,0.0,0.0,0.0,0.0,0.0,0.0,0.0,0.0,0.0,0.0,0.0,0.0,0.0,0.0,0.0,0.0,0.0,0.0,0.0,0.0,0.0,0.0,0.0,0.0,0.0,0.0,0.0,0.0,0.0,0.0,0.0,0.0,0.0,0.0,0.0,0.0,0.0,0.0,0.0,0.0,0.0,0.0,0.0,0.0,0.0,0.0,0.0,0.0,0.0,0.0,0.0,-0.9686,-1.0602,-1.1504,0.0,-1.2417,-1.2359,-1.1983,-1.1041,-1.0087,-0.8932,0.0,0.0,0.0,0.0,0.0,0.0,0.0,0.0,0.0,0.0,0.0,0.0,0.0,0.0,0.0,0.0,0.0,0.0,0.0,0.0,0.0,0.0,0.0,0.0,0.0,0.0,0.0,0.0,0.0,0.0,0.0,0.0,0.0,0.0,0.0,0.0,0.0,0.0,0.0,0.0,0.0,0.0,0.0,0.0,0.0,0.0,0.0,0.0,0.0,0.0,0.0,0.0,0.0,0.0,0.0,0.0,0.0,0.0,0.0,0.0,0.0,0.0,0.0,0.0,0.0,0.0,0.0,0.0,0.0,0.0,0.0,0.0,0.0,0.0,0.0,0.0,0.0,0.0,0.0,0.0,0.0,0.0,0.0,0.0,0.0,0.0,0.0,0.0,0.0,0.0,0.0,0.0,0.0,0.0,0.0,0.0,0.0,0.0,0.0,0.0,0.0,0.0,-0.9727,-1.0873,-1.1843,-1.244,-1.2637,-1.2529,-1.2006,-1.1039,-1.0016,0.0,0.0,0.0,0.0,0.0,0.0,0.0,0.0,0.0,0.0,0.0,0.0,0.0,0.0,0.0,0.0,0.0,0.0,0.0,0.0,0.0,0.0,0.0,0.0,0.0,0.0,0.0,0.0,0.0,0.0,0.0,0.0,0.0,0.0,0.0,0.0,0.0,0.0,0.0,0.0,0.0,0.0,0.0,0.0,0.0,0.0,0.0,0.0,0.0,0.0,0.0,0.0,0.0,0.0,0.0,0.0,0.0,0.0,0.0,0.0,0.0,0.0,0.0,0.0,0.0,0.0,0.0,0.0,0.0,0.0,0.0,0.0,0.0,0.0,0.0,0.0,0.0,0.0,0.0,0.0,0.0,0.0,0.0,0.0,0.0,0.0,0.0,0.0,0.0,0.0,0.0,0.0,0.0,0.0,0.0,0.0,0.0,0.0,0.0,0.0,0.0,0.0,0.0,-0.9876,-1.0846,-1.1769,-1.2576,-1.261,-1.2417,-1.1993,-1.114,-1.0161,-0.8938,0.0,0.0,0.0,0.0,0.0,0.0,0.0,0.0,0.0,0.0,0.0,0.0,0.0,0.0,0.0,0.0,0.0,0.0,0.0,0.0,0.0,0.0,0.0,0.0,0.0,0.0,0.0,0.0,0.0,0.0,0.0,0.0,0.0,0.0,0.0,0.0,0.0,0.0,0.0,0.0,0.0,0.0,0.0,0.0,0.0,0.0,0.0,0.0,0.0,0.0,0.0,0.0,0.0,0.0,0.0,0.0,0.0,0.0,0.0,0.0,0.0,0.0,0.0,0.0,0.0,0.0,0.0,0.0,0.0,0.0,0.0,0.0,0.0,0.0,0.0,0.0,0.0,0.0,0.0,0.0,0.0,0.0,0.0,0.0,0.0,0.0,0.0,0.0,0.0,0.0,0.0,0.0,0.0,0.0,0.0,0.0,0.0,0.0,0.0,0.0,0.0,0.0,-0.9937,-1.0833,-1.1735,-1.2637,-1.2589,-1.2344,-1.1919,-1.1219,-1.0262,-0.8872,0.0,0.0,0.0,0.0,0.0,0.0,0.0,0.0,0.0,0.0,0.0,0.0,0.0,0.0,0.0,0.0,0.0,0.0,0.0,0.0,0.0,0.0,0.0,0.0,0.0,0.0,0.0,0.0,0.0,0.0,0.0,0.0,0.0,0.0,0.0,0.0,0.0,0.0,0.0,0.0,0.0,0.0,0.0,0.0,0.0,0.0,0.0,0.0,0.0,0.0,0.0,0.0,0.0,0.0,0.0,0.0,0.0,0.0,0.0,0.0,0.0,0.0,0.0,0.0,0.0,0.0,0.0,0.0,0.0,0.0,0.0,0.0,0.0,0.0,0.0,0.0,0.0,0.0,0.0,0.0,0.0,0.0,0.0,0.0,0.0,0.0,0.0,0.0,0.0,0.0,0.0,0.0,0.0,0.0,0.0,0.0,0.0,0.0,0.0,0.0,0.0,0.0,-0.9958,-1.0853,-1.1748,-1.2637,-1.2603,-1.2331,-1.1814,-1.1201,-1.0268,-0.8682,0.0,0.0,0.0,0.0,0.0,0.0,0.0,0.0,0.0,0.0,0.0,0.0,0.0,0.0,0.0,0.0,0.0,0.0,0.0,0.0,0.0,0.0,0.0,0.0,0.0,0.0,0.0,0.0,0.0,0.0,0.0,0.0,0.0,0.0,0.0,0.0,0.0,0.0,0.0,0.0,0.0,0.0,0.0,0.0,0.0,0.0,0.0,0.0,0.0,0.0,0.0,0.0,0.0,0.0,0.0,0.0,0.0,0.0,0.0,0.0,-0.9408,0.0,0.0,0.0,0.0,0.0,0.0,0.0,0.0,0.0,0.0,0.0,0.0,0.0,0.0,0.0,0.0,0.0,0.0,0.0,0.0,0.0,0.0,0.0,0.0,0.0,0.0,0.0,0.0,0.0,0.0,0.0,0.0,0.0,0.0,0.0,0.0,0.0,0.0,0.0,0.0,0.0,-1.0127,-1.1016,-1.187,-1.2644,-1.2698,-1.2443,-1.182,-1.1366,-1.0577,-0.9057,-0.7969,0.0,0.0,0.0,0.0,0.0,0.0,0.0,0.0,0.0,0.0,0.0,0.0,0.0,0.0,0.0,0.0,0.0,0.0,0.0,0.0,0.0,0.0,0.0,0.0,0.0,0.0,0.0,0.0,0.0,0.0,0.0,0.0,0.0,0.0,0.0,0.0,0.0,0.0,0.0,0.0,0.0,0.0,0.0,0.0,0.0,0.0,0.0,0.0,0.0,0.0,0.0,0.0,0.0,0.0,0.0,0.0,0.0,0.0,0.0,0.0,-0.97,0.0,0.0,0.0,0.0,0.0,0.0,0.0,0.0,0.0,0.0,0.0,0.0,0.0,0.0,0.0,0.0,0.0,0.0,0.0,0.0,0.0,0.0,0.0,0.0,0.0,0.0,0.0,0.0,0.0,0.0,0.0,0.0,0.0,0.0,0.0,0.0,0.0,0.0,0.0,0.0,-1.0073,-1.0955,-1.1796,-1.2542,-1.2684,-1.2476,-1.182,-1.1421,-1.0702,-0.9247,-0.8486,0.0,0.0,0.0,0.0,0.0,0.0,0.0,0.0,0.0,0.0,0.0,0.0,0.0,0.0,0.0,0.0,0.0,0.0,0.0,0.0,0.0,0.0,0.0,0.0,0.0,0.0,0.0,0.0,0.0,0.0,0.0,0.0,0.0,0.0,0.0,0.0,0.0,0.0,0.0,0.0,0.0,0.0,0.0,0.0,0.0,0.0,0.0,0.0,0.0,0.0,0.0,0.0,0.0,-1.1023,-1.1172,-1.1369,-1.1545,-1.1538,-1.1362,-1.0744,-1.046,-1.0405,0.0,0.0,0.0,0.0,0.0,0.0,0.0,0.0,0.0,0.0,0.0,0.0,0.0,0.0,0.0,0.0,0.0,0.0,0.0,0.0,0.0,0.0,0.0,0.0,0.0,-1.0032,-0.9924,0.0,0.0,0.0,0.0,0.0,0.0,0.0,0.0,0.0,0.0,0.0,0.0,-0.9998,-1.0873,-1.1694,-1.2393,-1.2623,-1.2476,-1.1659,-1.1464,-1.0815,-0.9454,-0.8911,-0.8096,0.0,0.0,0.0,0.0,0.0,0.0,0.0,0.0,0.0,0.0,0.0,0.0,0.0,0.0,0.0,0.0,0.0,0.0,0.0,0.0,0.0,0.0,0.0,0.0,0.0,0.0,0.0,0.0,0.0,0.0,0.0,0.0,-1.2409,-1.013,0.0,0.0,0.0,0.0,0.0,0.0,0.0,0.0,0.0,0.0,0.0,0.0,0.0,0.0,-1.1016,-1.1423,-1.1647,-1.1694,-1.2216,-1.2352,-1.2149,-1.2427,-1.2467,-1.2318,-1.2223,0.0,-1.1029,-1.0846,0.0,0.0,0.0,0.0,0.0,0.0,0.0,0.0,0.0,0.0,0.0,0.0,0.0,0.0,0.0,0.0,0.0,0.0,0.0,0.0,0.0,0.0,-1.0521,-1.0426,-1.0419,-1.0399,0.0,-0.9869,-0.9388,-0.894,-0.8879,0.0,0.0,0.0,0.0,0.0,0.0,0.0,-1.0188,-1.1036,-1.1775,-1.2264,-1.2562,-1.2476,-1.1659,-1.1641,-1.1172,-0.9943,-0.881,-0.8198,-0.8333,-0.722,0.0,0.0,0.0,0.0,0.0,0.0,0.0,0.0,0.0,0.0,0.0,0.0,0.0,0.0,0.0,0.0,0.0,0.0,0.0,0.0,0.0,0.0,0.0,0.0,0.0,0.0,0.0,0.0,0.0,-1.3163,-1.2209,-0.994,-0.9808,-0.9693,0.0,0.0,0.0,0.0,0.0,0.0,0.0,0.0,0.0,-1.1226,-1.1396,-1.1701,-1.2169,-1.2447,-1.2712,-1.2963,-1.3227,-1.3329,-1.3295,-1.3424,-1.3403,-1.3254,-1.3254,-1.2983,-1.2488,-1.166,-1.107,-1.0622,0.0,0.0,0.0,0.0,-0.97,-0.9802,-1.012,-1.0236,0.0,0.0,0.0,0.0,0.0,0.0,0.0,0.0,0.0,0.0,0.0,0.0,0.0,-1.0995,-1.1124,-1.1199,-1.1036,-1.0658,-1.0121,0.0,-0.9435,-0.9266,-0.8737,0.0,0.0,0.0,0.0,0.0,-1.0351,-1.1185,-1.1877,-1.225,-1.263,-1.2569,-1.1987,-1.19,-1.1505,-1.0611,-0.9596,-0.8874,-0.8402,-0.7837,-0.7408,0.0,0.0,0.0,0.0,0.0,0.0,0.0,0.0,0.0,0.0,0.0,0.0,0.0,0.0,0.0,0.0,0.0,0.0,0.0,0.0,0.0,0.0,0.0,0.0,0.0,0.0,0.0,0.0,-1.2337,-1.2366,-1.0523,-1.0684,-1.0596,0.0,0.0,0.0,0.0,0.0,0.0,-1.1043,-1.1246,-1.1633,-1.2271,-1.244,-1.2773,-1.3302,-1.341,-1.3648,-1.4014,-1.4014,-1.4075,-1.4183,-1.4183,-1.4102,-1.3953,-1.3919,-1.3838,-1.3648,-1.2454,-1.1762,-1.1389,-1.0799,-1.0446,-1.0283,-1.0283,-1.0304,-1.0385,-1.0765,-1.0894,-1.0873,-1.0758,0.0,-1.0432,-1.0093,0.0,0.0,0.0,0.0,-1.0385,-1.0833,-1.1138,-1.1369,-1.1525,-1.1728,-1.183,-1.1613,-1.1219,-1.0757,0.0,-0.9928,-0.9741,-0.9266,0.0,0.0,0.0,0.0,-1.027,-1.0568,-1.1321,-1.1932,-1.2203,-1.2596,-1.2715,-1.2308,-1.2081,-1.1583,-1.0941,-1.0063,-0.9252,-0.8627,-0.8474,-0.8039,-0.7074,0.0,0.0,0.0,0.0,0.0,0.0,0.0,0.0,0.0,0.0,0.0,0.0,0.0,0.0,0.0,0.0,0.0,0.0,0.0,0.0,0.0,0.0,0.0,0.0,0.0,0.0,0.0,0.0,0.0,-1.2545,-1.2273,0.0,0.0,0.0,0.0,-1.0894,-1.1165,-1.1531,-1.1972,-1.2271,-1.2766,-1.3512,-1.3675,-1.3905,-1.4231,-1.4238,-1.4326,-1.4475,-1.4475,-1.4482,-1.4489,-1.4489,-1.4414,-1.4272,-1.4122,-1.4055,-1.3987,-1.3214,-1.263,-1.2176,-1.1572,-1.1158,-1.09,-1.09,-1.0989,-1.1131,-1.1301,-1.1355,-1.1355,-1.1348,-1.0962,-1.0487,-1.0466,-1.0263,0.0,0.0,-1.067,-1.1009,-1.1457,-1.1687,-1.1837,-1.1993,-1.204,-1.2047,-1.2033,-1.1517,-1.0857,0.0,-1.0412,-0.9961,-0.9761,0.0,-0.9951,-0.9788,-1.0168,-1.0582,-1.0887,-1.1457,-1.1891,-1.2054,-1.2345,-1.2487,-1.2295,-1.1838,-1.1565,-1.1184,-0.9827,-0.9281,-0.965,-0.8619,-0.8228,-0.8541,-0.7964,0.0,0.0,0.0,0.0,0.0,0.0,0.0,0.0,0.0,0.0,0.0,0.0,0.0,0.0,0.0,0.0,0.0,0.0,0.0,0.0,0.0,0.0,0.0,0.0,0.0,0.0,0.0,0.0,-1.4148,-1.4446,0.0,0.0,-1.4635,-1.379,-1.3691,-1.3013,-1.2834,-1.3186,-1.3403,-1.3722,-1.4183,-1.4245,-1.4421,-1.4726,-1.4733,-1.4801,-1.4943,-1.4943,-1.4896,-1.4808,-1.4808,-1.4672,-1.4434,-1.438,-1.4306,-1.4183,-1.3715,-1.3261,-1.2807,-1.2305,-1.1986,-1.1809,-1.1809,-1.1843,-1.1898,-1.1952,-1.1972,-1.1938,-1.1735,-1.1463,-1.1199,-1.1097,-1.1063,-1.1084,-1.1185,-1.1362,-1.1579,-1.1837,-1.2013,-1.2115,-1.2074,-1.2135,-1.2182,-1.2081,-1.1534,-1.111,-1.1482,-1.1067,-1.0444,-1.0357,-1.0602,-1.0649,-1.0304,-1.0636,-1.1036,-1.1341,-1.1728,-1.2074,-1.2318,-1.2528,-1.2534,-1.2483,-1.1943,-1.1653,-1.145,-1.0329,-0.9666,-0.9737,-0.9123,-0.8755,-0.8595,-0.8231,-0.7911,0.0,0.0,0.0,0.0,0.0,0.0,0.0,0.0,0.0,0.0,0.0,0.0,0.0,0.0,0.0,0.0,0.0,0.0,0.0,0.0,0.0,0.0,0.0,0.0,0.0,0.0,-1.368,-1.4761,-1.5168,-1.6164,-1.7808,-1.6119,-1.5105,-1.5897,-1.4651,-1.3885,-1.4129,-1.4292,-1.4489,-1.4733,-1.474,-1.4835,-1.5038,-1.5092,-1.514,-1.5181,-1.5235,-1.5181,-1.5038,-1.4991,-1.4862,-1.4665,-1.4611,-1.4509,-1.4353,-1.4102,-1.3763,-1.3356,-1.2901,-1.2671,-1.2583,-1.2535,-1.2515,-1.2515,-1.2515,-1.2481,-1.2393,-1.2142,-1.1925,-1.1742,-1.1586,-1.1613,-1.1687,-1.1687,-1.183,-1.202,-1.2169,-1.2284,-1.2345,-1.2298,-1.2325,-1.2332,-1.2079,-1.1454,-1.1277,-1.1782,-1.1377,-1.0921,-1.0953,-1.1185,-1.1199,-1.0846,-1.105,-1.1348,-1.1653,-1.1904,-1.2155,-1.2406,-1.2562,-1.2671,-1.2725,-1.1982,-1.1513,-1.147,-1.048,-0.9835,-0.9677,-0.94,-0.9057,-0.8655,-0.8258,-0.7922,-0.7618,0.0,0.0,0.0,0.0,0.0,0.0,0.0,0.0,0.0,0.0,0.0,0.0,0.0,0.0,0.0,0.0,0.0,0.0,0.0,0.0,0.0,0.0,0.0,-1.1242,-1.221,-1.3366,-1.4315,-1.4722,-1.5831,-1.8174,-1.6183,-1.5305,-1.6901,-1.5439,-1.4611,-1.476,-1.4909,-1.5052,-1.5187,-1.5194,-1.5194,-1.5181,-1.5337,-1.5337,-1.5181,-1.5337,-1.533,-1.5174,-1.5038,-1.4977,-1.4964,-1.4814,-1.4658,-1.4502,-1.436,-1.4116,-1.3797,-1.3356,-1.318,-1.3159,-1.3024,-1.2969,-1.2969,-1.2969,-1.2868,-1.2712,-1.2562,-1.2325,-1.206,-1.1904,-1.1857,-1.1857,-1.185,-1.2067,-1.2332,-1.2474,-1.2508,-1.2542,-1.2691,-1.261,-1.2347,-1.2037,-1.1572,-1.1337,-1.1377,-1.1177,-1.1089,-1.1529,-1.1626,-1.1579,-1.143,-1.1402,0.0,-1.1809,-1.1972,-1.2121,-1.2277,-1.242,-1.2562,-1.2712,-1.1804,-1.1311,-1.1439,-1.0309,-0.9661,-0.9661,-0.9318,-0.9014,-0.8769,-0.8073,-0.7652,-0.7627,0.0,0.0,0.0,0.0,0.0,0.0,0.0,0.0,0.0,0.0,0.0,0.0,0.0,0.0,0.0,0.0,0.0,0.0,0.0,0.0,0.0,0.0,-1.2641,-1.2627,-1.3253,-1.4572,-1.6681,-1.8457,-1.9736,-2.0324,-1.9813,-1.8997,-1.7989,-1.6335,-1.535,-1.5391,-1.5432,-1.5425,-1.535,-1.5459,-1.5404,-1.5181,-1.5445,-1.5445,-1.5181,-1.5337,-1.533,-1.5181,-1.514,-1.5065,-1.497,-1.493,-1.476,-1.4502,-1.436,-1.4116,-1.3817,-1.3593,-1.337,-1.318,-1.3254,-1.3207,-1.3112,-1.3112,-1.3017,-1.2888,-1.2847,-1.2779,-1.2684,-1.2528,-1.2481,-1.2461,-1.2345,-1.2379,-1.2481,-1.263,-1.2583,-1.2542,-1.2691,-1.261,-1.2501,-1.2347,-1.1727,-1.1392,-1.1625,-1.1459,-1.1308,-1.1563,-1.1796,-1.1891,-1.1735,-1.1626,0.0,-1.2115,-1.2101,-1.2162,-1.2413,-1.2481,-1.2522,-1.2562,-1.1664,-1.1097,-1.1036,-1.0002,-0.9405,-0.9405,-0.9144,-0.8889,-0.8644,-0.8187,-0.7944,0.0,0.0,0.0,0.0,0.0,0.0,0.0,0.0,0.0,0.0,0.0,0.0,0.0,0.0,0.0,0.0,0.0,0.0,0.0,0.0,0.0,0.0,-1.3763,-1.3363,-1.395,-1.429,-1.5,-1.6658,-1.8089,-1.9777,-2.1299,-1.9967,-1.9171,-1.9664,-1.7106,-1.5642,-1.5642,-1.5642,-1.5601,-1.5506,-1.5594,-1.552,-1.5282,-1.5581,-1.5547,-1.5181,-1.5404,-1.5391,-1.5181,-1.5181,-1.514,0.0,-1.5059,-1.4889,-1.4604,-1.4516,-1.4231,0.0,0.0,0.0,0.0,0.0,-1.3342,-1.3268,-1.3268,-1.3214,-1.3132,-1.3071,-1.3051,-1.3024,-1.2874,-1.2827,-1.2793,-1.2644,-1.2596,-1.2617,-1.2705,-1.2617,-1.2542,-1.2691,-1.2664,-1.2427,-1.205,-1.1616,-1.1317,-1.1355,-1.1225,0.0,-1.1443,-1.1851,-1.2108,-1.1952,-1.1857,-1.1925,-1.225,-1.221,-1.2244,-1.2474,-1.2562,-1.2596,-1.2596,-1.1689,0.0,0.0,0.0,-0.9237,-0.9084,-0.9308,0.0,0.0,0.0,-0.8534,-0.785,0.0,0.0,0.0,-0.7999,-0.8247,0.0,0.0,0.0,0.0,0.0,0.0,0.0,0.0,0.0,0.0,0.0,0.0,0.0,0.0,0.0,0.0,-1.3763,-1.419,-1.4923,-1.5052,-1.5215,-1.5615,-1.5986,-1.7622,-2.1302,-1.8395,-1.7756,-2.1229,-1.7805,-1.5716,-1.5716,0.0,0.0,0.0,0.0,-1.5608,-1.5438,-1.573,-1.5662,-1.5235,-1.5506,-1.5486,-1.5208,-1.5187,-1.5181,-1.5181,-1.5167,-1.4997,-1.474,-1.4719,-1.4367,-1.3824,-1.3648,-1.3505,-1.3397,-1.3383,-1.339,-1.3403,-1.3403,0.0,0.0,-1.3077,-1.3037,-1.3173,-1.3051,-1.299,-1.2935,-1.2793,-1.2732,-1.2712,-1.2725,-1.2617,-1.2542,-1.2691,-1.2718,-1.2507,-1.1597,-1.136,-1.1215,-1.0526,-1.0874,-1.1343,-1.1403,-1.1907,-1.2244,-1.2108,-1.206,-1.2094,-1.2271,-1.2277,-1.2318,-1.2461,0.0,0.0,-1.2732,-1.1823,-1.1225,-1.1091,-0.9979,-0.9188,-0.8845,-0.9802,-0.9673,-0.8481,-0.9392,-0.9246,-0.8095,-0.8095,-0.8035,-0.7899,-0.8026,-0.8314,0.0,0.0,0.0,0.0,0.0,0.0,0.0,0.0,0.0,0.0,0.0,0.0,0.0,0.0,0.0,-1.4731,-1.4765,-1.4746,-1.5255,-1.5533,-1.5716,-1.5805,-1.7501,-1.8773,-1.9748,-1.897,-1.8954,-1.9698,-1.7489,-1.6178,-1.6178,-1.6178,0.0,-1.6001,-1.5995,-1.5866,-1.5594,-1.5886,-1.5872,-1.5554,0.0,0.0,-1.5364,-1.5242,-1.5181,-1.5174,-1.5059,-1.4909,-1.4733,-1.4604,-1.4272,-1.3804,-1.341,-1.3315,-1.3383,-1.3261,-1.3295,-1.3403,-1.2899,-1.2899,-1.2727,-1.237,-1.2529,-1.2853,-1.2827,-1.282,0.0,-1.2929,-1.2739,-1.2576,-1.2698,-1.2617,-1.2542,-1.2691,-1.2637,-1.238,-1.1889,-1.1591,-1.1131,-1.0612,-1.0934,-1.1244,-1.1349,-1.1887,-1.2277,-1.225,-1.2033,-1.1979,-1.2257,-1.2182,-1.2162,-1.2318,-1.2569,-1.2732,-1.2732,-1.1918,-1.1372,-1.1231,-1.0196,-0.9481,-0.9209,-1.0309,-1.0187,-0.8851,-0.9808,-0.9751,-0.835,-0.835,-0.8285,-0.816,-0.8238,-0.8474,0.0,0.0,0.0,0.0,0.0,0.0,0.0,0.0,0.0,0.0,0.0,-1.1921,0.0,0.0,-1.3425,-1.4871,-1.5118,-1.5181,-1.5486,-1.5778,-1.5967,-1.5967,-1.7084,-1.8527,-2.0594,-1.89,-1.8566,-2.0733,-1.8051,-1.6307,-1.6307,-1.6374,-1.6313,-1.609,-1.6157,-1.6049,-1.575,-1.5967,-1.5934,-1.5642,-1.571,-1.5628,-1.5411,-1.533,-1.5255,-1.5181,-1.5106,-1.495,-1.4719,-1.4414,-1.4156,-1.3926,-1.3627,-1.3464,-1.339,-1.2986,-1.3005,-1.3065,-1.2567,-1.2567,-1.2567,-1.2235,-1.2567,-1.3065,-1.2733,-1.2913,-1.3051,-1.2983,-1.2793,-1.2617,-1.2617,-1.2562,-1.2522,-1.2596,-1.2678,-1.2554,-1.1848,-1.1578,-1.1288,-1.0594,-1.0843,-1.1262,-1.1262,-1.2044,-1.2461,-1.2311,-1.2216,-1.2196,-1.2277,-1.2284,-1.2338,-1.2494,-1.2712,-1.2874,-1.2949,-1.2084,-1.1354,-1.0745,-1.019,-0.9671,-0.9492,-1.1021,-1.1319,-1.0119,-1.165,-1.1495,-0.9721,-0.9588,-0.9094,-0.8497,-0.8447,-0.8678,0.0,0.0,0.0,0.0,0.0,0.0,0.0,0.0,-1.1538,-1.2108,-1.2291,-1.2576,-1.3302,-1.3709,-1.4136,-1.4767,-1.5221,-1.5547,-1.5703,-1.5954,-1.6137,-1.6164,-1.6279,-1.7695,-2.1488,-1.8459,-1.7948,-2.1723,-1.8575,-1.6395,-1.6395,-1.6503,-1.6442,-1.6178,-1.6259,-1.6178,-1.59,-1.6022,-1.5961,-1.5723,-1.5811,-1.5716,-1.5452,-1.5425,-1.5323,-1.5181,-1.512,-1.493,-1.4624,-1.4265,-1.4095,-1.4061,-1.3933,-1.3709,-1.3444,-1.2945,-1.2778,-1.2772,-1.2247,-1.2235,-1.2567,-1.2069,-1.2401,-1.3231,-1.2733,-1.2795,-1.3146,-1.3003,-1.2847,-1.2698,-1.2542,-1.2522,-1.2549,-1.2549,-1.2759,-1.2755,-1.1811,-1.1574,-1.1474,-1.0543,-1.0925,-1.1341,-1.1341,-1.222,-1.2684,-1.2413,-1.2474,-1.2508,-1.2393,-1.2447,-1.2562,-1.2712,-1.2868,-1.303,-1.3037,-1.23,-1.1368,-1.028,-1.0085,-0.9927,-0.9813,-1.1626,-1.222,-1.1345,-1.2888,-1.2894,-1.0999,-1.0435,-0.9745,-0.8769,-0.8644,-0.8881,-1.086,-1.0704,-1.0914,-1.1511,-1.1586,-1.1864,0.0,0.0,-1.3057,-1.3519,-1.3933,-1.4245,-1.434,-1.4719,-1.5079,-1.5303,-1.5601,-1.5859,-1.6008,-1.6178,-1.6334,-1.6456,-1.649,-1.7494,-1.9687,-1.7894,-1.7502,-1.9913,-1.7844,-1.67,-1.67,-1.6714,-1.6646,-1.6476,-1.6368,-1.6225,-1.6056,-1.6076,-1.6062,-1.6029,-1.5913,-1.5771,-1.5608,-1.5472,-1.5323,-1.5167,-1.4903,-1.4624,-1.4346,-1.4292,-1.4197,-1.4068,-1.4055,-1.3865,-1.3607,-1.36,-1.3263,-1.2907,-1.2278,-1.2069,-1.2069,-1.107,-1.1736,-1.2733,-1.2235,-1.263,-1.3146,-1.3003,-1.2847,-1.2698,-1.2542,-1.2603,-1.2705,-1.2705,-1.2834,-1.2755,-1.2127,-1.1892,-1.1474,-1.0861,-1.1237,-1.1629,-1.1629,-1.2442,-1.2881,-1.2705,-1.2698,-1.2698,-1.2684,-1.2576,-1.2562,-1.2712,-1.2868,-1.2747,-1.2191,-1.2198,-1.1635,-1.0688,-1.0492,-1.0427,-1.0313,-1.1445,-1.1927,-1.1792,-1.1815,-1.155,-1.1149,-0.9748,-0.901,-0.8769,-0.8644,-0.8972,-1.2976,-1.2272,0.0,0.0,-1.244,-1.284,-1.3553,-1.3634,-1.3736,-1.4367,-1.4645,-1.4828,-1.5004,-1.5262,-1.5499,0.0,-1.592,-1.6144,-1.6205,-1.6415,-1.6558,-1.6524,-1.668,-1.7533,-1.9565,-1.9033,-1.8891,-1.9702,-1.9166,-1.8181,-1.6748,-1.6836,-1.6775,-1.653,-1.6463,-1.6361,-1.6218,-1.6123,-1.6083,-1.6083,-1.6015,-1.5866,-1.5635,-1.5574,-1.5364,-1.5045,-1.4835,-1.4618,-1.4414,-1.4333,-1.4265,-1.4204,-1.4204,-1.4129,-1.3987,-1.3213,-1.2733,-1.2315,-1.1587,-1.157,-1.1902,-1.107,-1.157,-1.2567,-1.2235,-1.2465,-1.2833,-1.3098,-1.2976,-1.2827,-1.2671,-1.2684,-1.2732,-1.2732,-1.2847,-1.2802,-1.2018,-1.1907,-1.1607,-1.0901,-1.1201,-1.1671,-1.1671,-1.2546,-1.3064,-1.2996,-1.2915,-1.2834,-1.2745,-1.2752,-1.2827,-1.2969,-1.3125,-1.2972,-1.2173,-1.2118,-1.1748,-1.0764,-1.0634,-1.0536,-1.0487,-1.1487,-1.2463,-1.3099,-1.3487,-1.3357,-1.245,-1.1701,-1.0455,-0.8872,-0.8823,-0.9166,-1.4097,0.0,0.0,-1.2725,-1.3261,-1.377,-1.4,-1.4136,-1.438,-1.497,-1.5126,-1.5235,-1.5486,-1.5655,-1.5811,-1.5954,-1.6164,-1.6341,-1.6422,-1.6612,-1.6707,-1.6598,-1.6781,-1.7446,-1.8837,-1.9577,-1.9894,-1.9068,-1.9688,-1.9068,-1.6815,-1.6917,-1.6856,-1.6592,-1.6544,-1.6456,-1.6313,-1.6157,-1.6083,-1.6083,-1.6083,-1.5947,-1.5696,-1.5615,-1.5357,-1.4964,-1.4808,-1.4631,-1.4441,-1.434,-1.4299,-1.4299,-1.4299,-1.4272,-1.4197,-1.3013,-1.2464,-1.2173,-1.1299,-1.1455,-1.1784,-1.0915,-1.1593,-1.2451,-1.2247,-1.2332,-1.2566,-1.3023,-1.3098,-1.2983,-1.2834,-1.282,-1.2854,-1.2854,-1.2969,-1.2936,-1.2338,-1.2055,-1.1746,-1.1055,-1.1329,-1.1619,-1.1781,-1.2514,-1.307,-1.3234,-1.3146,-1.3044,-1.2929,-1.301,-1.3105,-1.3166,-1.3308,-1.3131,-1.2258,-1.2148,-1.1807,-1.096,-1.0742,-1.0623,-1.0655,-1.1353,-1.2488,-1.3885,-1.4345,-1.4221,-1.3831,-1.2902,-1.1322,-0.9416,-0.9104,-0.9181,0.0,0.0,-1.2501,-1.3376,-1.4041,-1.459,-1.5031,-1.514,-1.5194,-1.5364,-1.5513,-1.5662,-1.5811,-1.5967,-1.6117,-1.6273,-1.6307,-1.6408,-1.67,-1.6741,-1.6748,-1.6741,-1.6754,-1.6754,0.0,-1.8937,-1.9446,-1.7181,-1.9037,-1.9245,-1.7181,-1.6978,-1.691,-1.6748,-1.6598,-1.6456,-1.6313,-1.6157,-1.6083,-1.6083,-1.6083,-1.6001,-1.5839,-1.5547,-1.5255,-1.4964,-1.4808,-1.4577,-1.4306,-1.4299,-1.4299,-1.4299,-1.4299,-1.4211,-1.4075,-1.3539,-1.2922,-1.2435,-1.1804,-1.1594,-1.1571,-1.0942,-1.1322,-1.224,-1.2111,-1.2401,-1.2701,-1.305,-1.3166,-1.3132,-1.299,-1.3057,-1.3159,-1.3159,-1.3275,-1.3349,-1.32,-1.263,-1.2026,-1.1885,-1.1635,-1.1558,-1.2056,-1.2395,-1.2893,-1.3397,-1.339,-1.3383,-1.3383,-1.3383,-1.3336,-1.3186,-1.3308,-1.3131,-1.2258,-1.2148,-1.1849,-1.1079,-1.0867,-1.0786,-1.0905,-1.0791,-1.1758,-1.4047,-1.2779,-1.3098,-1.5015,-1.2474,-1.1096,-1.0658,-0.9416,-0.9087,0.0,0.0,-1.3512,-1.4319,-1.4889,-1.535,-1.5696,-1.5778,-1.5825,-1.5974,-1.5649,-1.535,-1.5398,-1.5371,-1.5425,-1.5676,-1.6049,-1.6415,-1.6707,-1.6836,-1.6829,-1.6619,-1.6781,0.0,0.0,0.0,0.0,-1.7181,-1.9044,-1.9245,-1.7188,-1.6978,-1.6958,-1.6904,-1.6653,-1.6497,-1.6449,-1.6205,-1.6083,-1.6083,-1.5981,-1.59,-1.5845,-1.5547,-1.5248,-1.4964,-1.4808,-1.457,-1.4299,-1.4299,-1.4299,-1.4299,-1.4299,-1.4272,-1.4224,-1.3337,-1.2898,-1.2582,-1.1939,-1.1727,-1.1721,-1.1504,-1.1692,-1.2045,-1.2583,-1.2539,-1.2508,-1.3197,-1.3322,-1.3288,-1.3139,-1.3139,-1.3173,-1.3173,-1.305,-1.2768,-1.2484,-1.2038,-1.1558,-1.118,-1.1208,-1.157,-1.2069,-1.2401,-1.2899,-1.3403,-1.3403,-1.3363,-1.3261,-1.3336,-1.284,-1.154,-1.2733,-1.2764,-1.0843,-1.1675,-1.2069,-1.1204,-1.1069,-1.096,-1.0922,-1.0878,-1.1902,-1.4216,-1.3742,-1.4049,-1.5351,-1.3481,-1.206,-1.0954,-0.9769,-0.9325,0.0,-1.6319,-1.5204,-1.5217,-1.5547,-1.594,-1.6185,-1.6157,-1.6096,-1.6137,-1.5594,-1.5072,-1.4964,-1.4869,-1.4869,-1.5059,-1.5506,-1.5988,-1.6449,-1.6598,-1.6646,-1.6605,-1.6775,-1.6822,0.0,0.0,0.0,-1.7181,-1.9044,-1.9245,-1.7188,-1.6978,-1.6958,-1.6904,-1.6707,-1.6551,-1.6449,-1.6307,-1.6212,-1.6157,-1.6008,-1.5934,-1.5927,-1.5628,-1.533,-1.5031,-1.4828,-1.457,-1.4299,-1.4299,-1.4299,-1.4299,-1.4299,-1.4299,-1.4299,-1.3591,-1.3173,-1.2729,-1.19,-1.1681,-1.1675,-1.1807,-1.1646,-1.1825,-1.2671,-1.2614,-1.2415,-1.3111,-1.3403,-1.3376,-1.3281,-1.3254,-1.3254,-1.3254,-1.2926,-1.2453,-1.2382,-1.1902,-1.1237,-1.107,-1.107,-1.1403,-1.2069,-1.2401,-1.2899,-1.3403,-1.3231,-1.3177,-1.3193,-1.3308,-1.2675,-1.0716,-1.2439,-1.2489,-1.0037,-1.1429,-1.22,-1.15,-1.1188,-1.1069,-1.0987,-1.0944,-1.1807,-1.3654,-1.3982,-1.4476,-1.5396,-1.401,-1.286,-1.1681,-1.0093,-0.949,-1.7964,-1.8209,-1.7485,-1.6103,-1.6015,-1.6368,-1.649,-1.6293,-1.6035,-1.5866,-1.5337,-1.4808,0.0,0.0,-1.4462,-1.4475,-1.478,-1.5269,-1.6001,-1.6117,-1.6279,0.0,0.0,0.0,0.0,0.0,0.0,-1.6971,0.0,-1.9253,-1.7188,-1.6978,-1.691,-1.6768,-1.6754,-1.6619,-1.6334,-1.6449,-1.6442,-1.6307,-1.6157,-1.6083,-1.6069,-1.5771,-1.5479,-1.5174,-1.4875,-1.4577,-1.4312,-1.4306,-1.4299,-1.4299,-1.4299,-1.4299,-1.4299,-1.4299,-1.3768,-1.268,-1.167,-1.1281,-1.1439,-1.1675,-1.1535,-1.158,-1.2702,-1.2621,-1.2415,-1.3111,-1.3403,-1.3403,-1.3403,-1.3403,-1.3403,-1.3403,-1.3065,-1.2733,-1.2733,-1.2069,-1.1403,-1.1403,-1.107,-1.107,-1.1902,-1.2401,-1.2733,-1.3231,-1.2899,-1.2847,-1.318,-1.3302,-1.2669,-1.0541,-1.2266,-1.2495,-0.9865,-1.1435,-1.2241,-1.1616,-1.1243,-1.1118,-1.1101,-1.0992,-1.1316,-1.237,-1.3493,-1.4523,-1.5437,-1.4166,-1.3312,-1.3014,-1.0669,-0.9438,-1.9296,-1.9018,-1.836,-1.6771,-1.6469,-1.6619,-1.6537,-1.6293,-1.5974,-1.5601,-1.4692,-1.3844,0.0,0.0,0.0,-1.3973,-1.4923,0.0,-1.6334,-1.6605,0.0,0.0,0.0,-1.6876,-1.6761,-1.6856,0.0,0.0,-1.7601,-1.7601,-1.6978,-1.6978,-1.6965,-1.6924,-1.6809,-1.6714,-1.6639,-1.6456,-1.6347,-1.6307,-1.6157,-1.6083,-1.6069,-1.5771,-1.5533,-1.533,-1.4916,-1.4631,-1.4448,-1.4346,-1.4299,-1.4299,-1.4299,-1.4299,-1.4299,-1.3945,-1.3413,-1.2869,-1.2125,-1.1765,-1.1583,-1.2431,-1.2027,-1.1591,-1.3159,-1.286,-1.2415,-1.3111,-1.3403,-1.3403,-1.3403,-1.3403,-1.3403,-1.3403,-1.2733,-1.2235,-1.2573,-1.1736,-1.0904,-1.0904,-1.0732,-1.0893,-1.1558,-1.1736,-1.1902,-1.205,-1.2395,-1.2649,-1.3051,-1.3241,-1.2136,-0.8639,-1.154,-1.198,-0.8141,-1.082,-1.2342,-1.1621,-1.14,-1.1286,-1.1112,-1.1074,-1.1617,-1.2669,-1.2579,-1.3634,-1.5621,-1.4228,-1.3431,-1.3357,-1.1742,-1.0542,-2.0547,-2.0771,-2.0209,-1.7476,-1.6836,-1.6836,-1.6422,-1.6103,-1.5649,-1.4801,-1.3939,0.0,0.0,0.0,0.0,0.0,0.0,0.0,-1.6144,-1.6435,-1.6653,0.0,-1.6931,0.0,-1.6944,-1.6965,-1.7005,0.0,-1.7019,-1.6978,-1.6978,-1.6978,-1.6951,-1.6883,-1.6863,-1.6849,-1.6849,-1.6551,-1.6402,-1.6402,-1.6252,-1.6144,-1.6069,-1.5771,-1.5554,-1.5384,0.0,-1.4652,-1.4502,-1.436,-1.4299,-1.4299,-1.4299,-1.4299,-1.4299,-1.3945,-1.3413,-1.2875,-1.252,-1.1988,-1.1632,-1.2343,-1.2113,-1.1681,-1.2947,-1.2853,-1.2588,-1.3128,-1.3378,-1.3498,-1.3505,-1.3451,-1.3417,-1.3485,-1.3004,-1.2688,-1.2402,-1.1402,-1.0725,-1.0725,-1.0677,-1.097,-1.1646,-1.1605,-1.157,-1.1718,-1.2063,-1.2326,-1.3091,-1.3261,-1.2313,-0.9154,-1.1724,-1.2149,-0.8658,-1.102,-1.2378,-1.1627,-1.1455,-1.1373,-1.1183,-1.1128,-1.135,-1.1819,-1.2213,-1.2963,-1.423,-1.3346,-1.2888,-1.2678,-1.1308,-1.0376,-2.1751,-2.2487,-2.1959,-1.8071,-1.71,-1.6971,-1.6218,-1.5778,-1.5147,-1.3838,0.0,-1.2671,-1.2108,-1.2481,-1.2956,-1.322,0.0,-1.5052,-1.5859,-1.609,-1.6374,-1.6917,-1.6978,-1.7026,-1.7154,-1.7053,-1.7032,-1.7154,-1.7053,-1.6978,-1.6978,-1.6978,-1.6917,-1.6788,-1.691,-1.6978,-1.6978,-1.6693,-1.6551,-1.6551,-1.6388,-1.6239,-1.6103,-1.5784,-1.5567,-1.5418,-1.4964,0.0,-1.4529,-1.4387,-1.4319,-1.4299,-1.4299,-1.4299,-1.4299,-1.4299,-1.3768,-1.2875,-1.2875,-1.2343,-1.1632,-1.1988,-1.1799,-1.1588,-1.2529,-1.2661,-1.2792,-1.3013,-1.3409,-1.3654,-1.3661,-1.3559,-1.3492,-1.3452,-1.333,-1.303,-1.2264,-1.1435,-1.0923,-1.0929,-1.0838,-1.0922,-1.1757,-1.1669,-1.176,-1.2056,-1.189,-1.2026,-1.307,-1.3329,-1.2682,-1.0738,-1.2451,-1.2501,-1.0056,-1.1552,-1.2378,-1.1627,-1.1455,-1.14,-1.1275,-1.1177,-1.1063,-1.0922,-1.1689,-1.2144,-1.2166,-1.2179,-1.205,-1.1934,-1.0709,-1.0037,-2.2268,-2.1687,-2.0152,-1.7918,-1.7182,-1.6822,-1.6062,-1.5377,0.0,0.0,0.0,-1.2108,-1.1762,-1.2088,0.0,-1.358,0.0,0.0,0.0,0.0,-1.672,0.0,0.0,0.0,0.0,0.0,0.0,0.0,0.0,-1.6978,-1.6978,-1.6978,-1.6971,-1.6944,-1.6965,-1.6978,-1.6978,-1.6802,-1.6707,-1.6707,-1.6435,-1.6293,-1.6252,-1.5832,-1.5628,-1.5574,-1.5126,0.0,-1.4685,-1.4536,-1.4407,-1.4299,-1.4299,-1.4299,-1.4299,-1.4299,-1.3768,-1.2875,-1.2875,-1.2343,-1.1632,-1.1988,-1.1743,-1.1472,-1.2505,-1.2594,-1.2668,-1.2987,-1.3475,-1.3804,-1.3804,-1.3783,-1.377,-1.3626,-1.312,-1.2613,-1.246,-1.1784,-1.1279,-1.1107,-1.1085,-1.1207,-1.1605,-1.1582,-1.1704,-1.1742,-1.2069,-1.2401,-1.2376,-1.2886,-1.272,-1.0859,-1.2508,-1.2538,-1.0165,-1.1603,-1.2378,-1.1627,-1.1455,-1.14,-1.1275,-1.1253,-1.1139,-1.0922,-1.0942,-1.147,-1.2313,-1.2173,-1.225,-1.2064,-1.1761,-1.1076,-2.1165,-2.1113,-2.0135,-1.8241,-1.7317,-1.672,-1.573,0.0,0.0,0.0,0.0,-1.1762,-1.1545,0.0,0.0,0.0,0.0,0.0,0.0,0.0,0.0,0.0,0.0,0.0,0.0,0.0,0.0,0.0,0.0,-1.6978,-1.6978,-1.6978,-1.6978,-1.6978,-1.6978,-1.6978,-1.6978,-1.691,-1.6829,-1.6748,-1.6524,-1.6381,-1.63,-1.592,-1.571,-1.5615,-1.5242,0.0,-1.4726,-1.4577,-1.4428,-1.4299,-1.4299,-1.4299,-1.4299,-1.4299,-1.3768,-1.2875,-1.2875,-1.2343,-1.1455,-1.181,-1.1594,-1.1544,-1.1897,-1.2202,-1.2505,-1.2854,-1.3326,-1.3614,-1.3966,-1.3905,-1.3865,-1.3946,-1.2966,-1.1969,-1.1975,-1.1636,-1.1467,-1.1286,-1.1188,-1.1274,-1.1956,-1.1863,-1.1605,-1.1413,-1.1879,-1.2185,-1.252,-1.2849,-1.3017,-1.2334,-1.3075,-1.3062,-1.1597,-1.2144,-1.2378,-1.1627,-1.1455,-1.1427,-1.1368,-1.1308,-1.1221,-1.1107,-1.0922,-1.1104,-1.147,-1.1341,-1.1439,-1.1433,-1.1237,-1.0866,-2.024,-2.0412,-1.9837,-1.8267,-1.7392,-1.6619,-1.5411,-1.4536,0.0,0.0,-1.1694,-1.1545,-1.1457,0.0,0.0,0.0,0.0,0.0,0.0,0.0,0.0,0.0,0.0,0.0,0.0,0.0,0.0,0.0,0.0,0.0,-1.6978,-1.6978,-1.6978,-1.6978,-1.6978,-1.6978,-1.6978,-1.6978,-1.6917,-1.6795,-1.6612,-1.6463,-1.6341,-1.6008,-1.5791,-1.5669,-1.5364,0.0,0.0,-1.4638,-1.4475,-1.434,-1.4312,-1.4299,-1.4299,-1.4299,-1.3768,-1.2875,-1.2875,-1.2343,-1.1455,-1.1455,-1.1455,-1.1455,-1.1455,-1.181,-1.2343,-1.2698,-1.3154,-1.3591,-1.4122,-1.4208,-1.3973,-1.4095,-1.2784,-1.1616,-1.1449,-1.1455,-1.1455,-1.1455,-1.1302,-1.1367,-1.2307,-1.2158,-1.1709,-1.1407,-1.1692,-1.2155,-1.2665,-1.3004,-1.3349,-1.3722,-1.3722,-1.3488,-1.2873,-1.2716,-1.2408,-1.1627,-1.1455,-1.1455,-1.1455,-1.1362,-1.1297,-1.127,-1.109,-1.0922,-1.0775,-1.0677,-1.0617,-1.059,-1.0378,-1.0318,-1.9977,-1.923,-1.7895,-1.7826,-1.7311,-1.6456,-1.5262,0.0,0.0,-1.2088,-1.1606,-1.145,-1.1572,0.0,0.0,0.0,0.0,-1.4034,0.0,0.0,0.0,0.0,0.0,0.0,0.0,0.0,0.0,0.0,0.0,0.0,-1.6978,-1.6978,-1.6978,-1.6978,-1.6978,-1.6978,-1.6978,-1.6978,-1.6971,-1.6958,-1.6659,-1.6517,-1.649,-1.6049,-1.5845,-1.5818,-1.552,0.0,0.0,-1.4835,-1.4631,-1.4482,-1.4353,-1.4299,-1.4299,-1.4299,-1.3768,-1.2875,-1.2875,-1.2343,-1.1455,-1.1455,-1.1455,-1.1455,-1.1455,-1.181,-1.2343,-1.2698,-1.3224,-1.3748,-1.4102,-1.4272,-1.4082,-1.3211,-1.2686,-1.2154,-1.1632,-1.1455,-1.1455,-1.1455,-1.1438,-1.1743,-1.2517,-1.1952,-1.1552,-1.2306,-1.2122,-1.2116,-1.2454,-1.3139,-1.3713,-1.4014,-1.4034,-1.3746,-1.3022,-1.2857,-1.2509,-1.1632,-1.1455,-1.1455,-1.1455,-1.1444,-1.1384,-1.1275,-1.1253,-1.1128,-1.09,-1.0889,-1.0829,-1.0715,-1.0585,-1.0476,-1.8417,-1.917,-1.9536,-1.8281,-1.71,-1.6103,-1.5181,0.0,-1.2963,-1.202,-1.1667,-1.1545,-1.1606,-1.1619,0.0,-1.2406,-1.263,0.0,0.0,0.0,0.0,0.0,0.0,0.0,0.0,0.0,0.0,0.0,0.0,0.0,-1.6978,-1.6978,-1.6978,-1.6978,-1.6978,-1.6978,-1.6978,-1.6978,-1.6978,-1.6978,-1.6666,-1.6524,-1.651,-1.6151,-1.5893,-1.571,-1.5499,0.0,0.0,-1.4692,-1.4516,-1.438,-1.4326,-1.4299,-1.4299,-1.4299,-1.3945,-1.3236,-1.3053,-1.252,-1.181,-1.1632,-1.1632,-1.181,-1.1632,-1.1632,-1.181,-1.2343,-1.2875,-1.323,-1.3768,-1.4122,-1.4122,-1.3053,-1.2875,-1.252,-1.1632,-1.1455,-1.1455,-1.1455,-1.1395,-1.1527,-1.2261,-1.2021,-1.1806,-1.2185,-1.212,-1.2073,-1.2068,-1.2761,-1.3313,-1.3713,-1.372,-1.3429,-1.2863,-1.2698,-1.2165,-1.1455,-1.1455,-1.1455,-1.1455,-1.1455,-1.1433,-1.1384,-1.1308,-1.1194,-1.1031,-1.0954,-1.0857,-1.0732,-1.0612,-1.053,-1.7778,-1.8932,-1.9913,-1.9097,-1.7552,-1.5872,0.0,0.0,-1.2732,-1.1932,-1.1687,-1.1619,-1.1619,-1.1619,-1.1701,-1.1952,-1.2162,-1.2589,-1.3437,0.0,0.0,0.0,0.0,0.0,0.0,0.0,0.0,0.0,0.0,0.0,0.0,-1.6978,-1.6958,-1.691,-1.6958,-1.6937,-1.6849,-1.689,-1.689,-1.6842,-1.6585,-1.6463,-1.6449,-1.6151,-1.59,-1.5689,-1.5452,0.0,0.0,-1.4611,-1.4455,-1.436,-1.4319,-1.4299,-1.4299,-1.4299,-1.3945,-1.3413,-1.3053,-1.252,-1.1988,-1.1632,-1.181,-1.2165,-1.1632,-1.1632,-1.181,-1.2165,-1.2698,-1.323,-1.3768,-1.4122,-1.4122,-1.3053,-1.2875,-1.2698,-1.1632,-1.1455,-1.1455,-1.1455,-1.1384,-1.1527,-1.2148,-1.209,-1.1885,-1.2154,-1.2085,-1.1851,-1.2027,-1.2559,-1.3085,-1.3436,-1.3436,-1.3299,-1.2869,-1.252,-1.1988,-1.1455,-1.1455,-1.1455,-1.1455,-1.1455,-1.1455,-1.1455,-1.1373,-1.1253,-1.1101,-1.1014,-1.0889,-1.0737,-1.065,-1.0755,-1.8805,-1.8499,-1.81,-2.0394,-1.8499,-1.5845,0.0,0.0,-1.2705,-1.1809,-1.1619,-1.1619,-1.1619,-1.1619,-1.1667,-1.1809,-1.2088,-1.2549,-1.3302,0.0,0.0,0.0,0.0,0.0,0.0,0.0,0.0,0.0,0.0,0.0,0.0,-1.6978,-1.691,-1.6754,-1.6904,-1.6836,-1.653,-1.6673,-1.6673,-1.6524,-1.6381,-1.6313,-1.63,-1.6199,-1.6055,0.0,0.0,0.0,0.0,-1.4881,-1.4695,-1.4682,-1.4353,-1.4299,-1.4299,-1.4299,-1.3768,-1.2875,-1.2875,-1.2343,-1.1455,-1.1455,-1.181,-1.2165,-1.1632,-1.181,-1.2165,-1.2165,-1.2875,-1.3768,-1.4122,-1.4299,-1.4122,-1.3053,-1.2875,-1.2698,-1.1632,-1.1455,-1.1455,-1.1455,-1.1455,-1.1632,-1.2165,-1.181,-1.1632,-1.2165,-1.181,-1.1632,-1.2165,-1.2881,-1.3413,-1.3584,-1.3584,-1.3407,-1.2875,-1.252,-1.1988,-1.1455,-1.1455,-1.1455,-1.1455,-1.1455,-1.1455,-1.1455,-1.1455,-1.134,-1.1101,-1.1101,-1.0976,-1.0737,-1.0737,-1.1163,-1.5469,-1.7931,-1.9519,-1.7404,-1.6648,-1.6114,-1.4153,0.0,-1.2454,-1.1762,-1.1619,-1.1619,-1.1619,-1.1619,-1.1701,-1.1945,-1.2155,-1.2406,0.0,0.0,0.0,0.0,0.0,0.0,0.0,0.0,0.0,0.0,0.0,0.0,0.0,-1.6978,-1.691,-1.6754,-1.6795,-1.6727,-1.6524,-1.6571,-1.6571,-1.6517,-1.6374,-1.6259,-1.635,-1.6144,-1.5938,0.0,0.0,0.0,0.0,-1.4509,-1.4367,-1.4367,-1.4319,-1.4299,-1.4299,-1.4299,-1.4122,-1.3768,-1.3053,-1.2698,-1.2343,-1.1632,-1.1627,-1.1804,-1.1999,-1.2171,-1.2343,-1.252,-1.2875,-1.323,-1.4122,-1.4299,-1.4122,-1.3591,-1.3053,-1.2698,-1.2165,-1.181,-1.1455,-1.1455,-1.1455,-1.1632,-1.1632,-1.181,-1.1988,-1.181,-1.181,-1.1988,-1.181,-1.252,-1.3059,-1.3053,-1.3053,-1.3053,-1.2875,-1.252,-1.1988,-1.1455,-1.1455,-1.1455,-1.1455,-1.1455,-1.1455,-1.1455,-1.1455,-1.134,-1.1101,-1.1101,-1.0976,-1.0737,-1.0737,-1.1168,0.0,-1.7039,-1.8635,-1.9147,-1.7567,0.0,0.0,0.0,0.0,-1.1728,-1.1619,0.0,0.0,0.0,0.0,0.0,0.0,0.0,0.0,0.0,0.0,0.0,0.0,0.0,0.0,0.0,0.0,0.0,0.0,0.0,0.0,-1.6897,-1.6795,-1.6592,-1.6693,-1.6625,-1.6361,-1.6415,-1.6415,-1.6354,-1.6205,-1.609,-1.6192,-1.598,-1.578,0.0,0.0,0.0,0.0,-1.4421,-1.4299,-1.4299,-1.4299,-1.4299,-1.4299,-1.4299,-1.4306,-1.4306,-1.3597,-1.2881,-1.2337,-1.1632,-1.1449,-1.1627,-1.2355,-1.2355,-1.1988,-1.2698,-1.2875,-1.3053,-1.4122,-1.4299,-1.4122,-1.3584,-1.323,-1.2698,-1.216,-1.1632,-1.1455,-1.1455,-1.1455,-1.1455,-1.1455,-1.181,-1.181,-1.1455,-1.181,-1.181,-1.1455,-1.2343,-1.2875,-1.2875,-1.323,-1.3236,-1.2875,-1.2343,-1.181,-1.1455,-1.1455,-1.1455,-1.1455,-1.1455,-1.1455,-1.1455,-1.1455,-1.1357,-1.1166,-1.1079,-1.0933,-1.0737,-1.0688,-1.0981,0.0,0.0,0.0,0.0,0.0,0.0,0.0,0.0,0.0,0.0,0.0,0.0,0.0,0.0,0.0,0.0,0.0,0.0,0.0,0.0,0.0,0.0,0.0,0.0,0.0,0.0,0.0,0.0,0.0,0.0,0.0,-1.6741,-1.6605,-1.632,-1.6578,-1.6517,-1.6083,-1.6225,-1.6218,-1.6062,-1.592,-1.5845,-1.5811,-1.554,-1.5602,0.0,0.0,0.0,0.0,-1.4242,-1.4299,-1.4299,-1.4299,-1.4299,-1.4299,-1.4299,-1.4306,-1.4319,-1.4333,-1.3065,-1.1444,-1.1455,-1.1455,-1.1632,-1.2532,-1.2171,-1.1632,-1.252,-1.2875,-1.3053,-1.4122,-1.4299,-1.4122,-1.3584,-1.3053,-1.2698,-1.1799,-1.1627,-1.1455,-1.1455,-1.1455,-1.1455,-1.1455,-1.1455,-1.1455,-1.1455,-1.1455,-1.1455,-1.1455,-1.2343,-1.2875,-1.2875,-1.3768,-1.3768,-1.3053,-1.2165,-1.1632,-1.1455,-1.1455,-1.1455,-1.1455,-1.1465,-1.1465,-1.1455,-1.1449,-1.1384,-1.127,-1.1036,-1.0862,-1.0748,-1.0623,-1.0952,0.0,0.0,0.0,0.0,0.0,0.0,0.0,0.0,0.0,0.0,0.0,0.0,0.0,0.0,0.0,0.0,0.0,0.0,0.0,0.0,0.0,0.0,0.0,0.0,0.0,0.0,0.0,0.0,0.0,0.0,-1.6754,-1.6639,-1.649,-1.6313,-1.6374,-1.6307,-1.6083,-1.6117,-1.6056,-1.5906,-1.5872,-1.5737,-1.5513,-1.5445,-1.535,0.0,0.0,0.0,-1.4342,-1.4242,-1.4299,-1.4299,-1.4299,-1.4299,-1.4299,-1.4299,-1.4299,-1.4306,-1.4326,-1.3059,-1.1433,-1.1449,-1.1455,-1.1455,-1.1816,-1.1632,-1.1632,-1.2337,-1.2698,-1.3053,-1.4122,-1.4299,-1.4299,-1.4122,-1.3407,-1.2875,-1.2698,-1.1988,-1.1455,-1.1455,-1.1455,-1.1455,-1.1455,-1.1455,-1.1455,-1.1455,-1.1455,-1.1455,-1.1455,-1.1988,-1.252,-1.2875,-1.3053,-1.3059,-1.2875,-1.2698,-1.2343,-1.1632,-1.1455,-1.1455,-1.1455,-1.1542,-1.1547,-1.1455,-1.1362,-1.1302,-1.127,-1.1036,-1.0905,-1.0873,-1.0753,-1.0826,-1.1362,-1.2568,0.0,0.0,0.0,0.0,0.0,0.0,0.0,0.0,0.0,0.0,0.0,0.0,0.0,0.0,0.0,0.0,0.0,0.0,0.0,0.0,0.0,0.0,0.0,0.0,0.0,0.0,0.0,-1.672,-1.6646,-1.6503,-1.6361,-1.6212,-1.6205,-1.6164,-1.6083,-1.6083,-1.6001,-1.5852,-1.5784,-1.5635,-1.5411,-1.5337,-1.5262,0.0,0.0,0.0,-1.4342,-1.4242,-1.4299,-1.4299,-1.4299,-1.4299,-1.4299,-1.4299,-1.4299,-1.4299,-1.4319,-1.3059,-1.1438,-1.1449,-1.1455,-1.1455,-1.1455,-1.1455,-1.1632,-1.216,-1.2692,-1.3053,-1.4122,-1.4299,-1.4299,-1.4299,-1.3591,-1.2875,-1.2698,-1.1988,-1.1455,-1.1455,-1.1455,-1.1455,-1.1455,-1.1455,-1.1455,-1.1455,-1.1455,-1.1455,-1.1455,-1.1988,-1.2343,-1.2875,-1.3053,-1.3053,-1.2875,-1.2875,-1.252,-1.1632,-1.1455,-1.1482,-1.1536,-1.1601,-1.1607,-1.1542,-1.1471,-1.1384,-1.127,-1.1145,-1.1025,-1.0916,-1.0797,-1.0837,-1.1246,-1.1949,-1.2484,0.0,0.0,0.0,0.0,0.0,0.0,0.0,0.0,0.0,0.0,0.0,0.0,0.0,0.0,0.0,0.0,0.0,0.0,0.0,0.0,0.0,0.0,0.0,0.0,0.0,0.0,-1.6653,-1.6497,-1.6354,-1.6218,-1.6083,-1.6056,-1.6049,-1.6049,-1.6049,-1.5961,-1.5784,-1.5662,-1.5527,-1.5371,-1.5242,-1.5167,-1.5133,0.0,0.0,-1.4309,-1.4229,-1.4299,-1.4299,-1.4299,-1.4299,-1.4299,-1.4299,-1.4299,-1.4299,-1.4135,-1.2881,-1.1444,-1.1455,-1.1455,-1.1455,-1.1455,-1.1455,-1.1632,-1.2337,-1.2698,-1.3053,-1.4122,-1.4299,-1.4299,-1.4299,-1.3591,-1.2875,-1.2514,-1.1982,-1.1455,-1.1455,-1.1455,-1.1455,-1.1455,-1.1455,-1.1455,-1.1455,-1.1455,-1.1455,-1.1455,-1.181,-1.2343,-1.2875,-1.323,-1.323,-1.2875,-1.2875,-1.2343,-1.1632,-1.1455,-1.152,-1.1661,-1.1645,-1.1645,-1.1667,-1.1645,-1.1525,-1.1302,-1.1281,-1.1166,-1.0971,-1.0829,-1.0699,-1.1626,-1.2182,-1.2515,0.0,0.0,0.0,0.0,0.0,0.0,0.0,0.0,0.0,0.0,0.0,0.0,0.0,0.0,0.0,0.0,0.0,0.0,0.0,0.0,0.0,0.0,0.0,0.0,0.0,0.0,-1.649,-1.6347,-1.6198,-1.6103,-1.6083,-1.5954,-1.5886,-1.5886,-1.5886,-1.575,-1.5479,-1.5459,-1.5364,-1.5215,-1.5194,-1.512,-1.4991,0.0,-1.4665,-1.4536,-1.4367,-1.4299,-1.4299,-1.4299,-1.4299,-1.4299,-1.4299,-1.4299,-1.4122,-1.3413,-1.2337,-1.1444,-1.1455,-1.1455,-1.1455,-1.1455,-1.1455,-1.181,-1.2881,-1.3059,-1.3053,-1.4122,-1.4299,-1.4299,-1.4299,-1.3591,-1.2875,-1.2875,-1.2165,-1.1455,-1.1455,-1.1455,-1.1455,-1.1455,-1.1455,-1.1455,-1.1455,-1.1455,-1.1455,-1.1455,-1.1632,-1.1988,-1.2875,-1.252,-1.252,-1.2875,-1.252,-1.2165,-1.1455,-1.1455,-1.1558,-1.1781,-1.1688,-1.1683,-1.1792,-1.1688,-1.1569,-1.1427,-1.1324,-1.1253,-1.1215,-1.0992,-1.0824,-1.1321,-1.1789,-1.2182,0.0,0.0,0.0,0.0,0.0,0.0,0.0,0.0,0.0,0.0,0.0,0.0,0.0,0.0,0.0,0.0,0.0,0.0,0.0,0.0,0.0,0.0,0.0,0.0,0.0,0.0,0.0,-1.632,-1.6164,-1.6042,-1.5961,-1.5893,-1.5778,-1.5615,-1.5533,-1.5466,-1.5411,-1.5411,-1.5289,-1.5065,-1.5065,-1.4984,-1.4835,0.0,-1.4577,-1.4502,-1.436,-1.4299,-1.4299,-1.4299,-1.4299,-1.4299,-1.4299,-1.4122,-1.3768,-1.3059,-1.252,-1.1804,-1.1632,-1.1455,-1.1455,-1.1455,-1.1455,-1.1632,-1.2704,-1.3059,-1.3053,-1.4122,-1.4299,-1.4299,-1.4299,-1.3591,-1.2875,-1.2875,-1.2165,-1.1455,-1.1455,-1.1455,-1.1455,-1.1455,-1.1455,-1.1455,-1.1455,-1.1455,-1.1455,-1.1455,-1.1455,-1.181,-1.2875,-1.252,-1.2343,-1.2875,-1.252,-1.1988,-1.1455,-1.1514,-1.1634,-1.1813,-1.1824,-1.1824,-1.1819,-1.1764,-1.1645,-1.1455,-1.14,-1.1335,-1.127,-1.1096,-1.0916,-1.1118,-1.1511,-1.1959,0.0,0.0,0.0,0.0,0.0,0.0,0.0,0.0,0.0,0.0,0.0,0.0,0.0,0.0,0.0,0.0,0.0,0.0,0.0,0.0,0.0,0.0,0.0,0.0,0.0,0.0,0.0,-1.6266,-1.6144,-1.6029,-1.5913,-1.5839,-1.5696,-1.5466,-1.5242,-1.5208,-1.5357,-1.5289,-1.5153,-1.497,-1.4936,-1.4835,-1.4679,-1.4563,-1.4496,-1.4455,-1.4346,-1.4299,-1.4299,-1.4299,-1.4299,-1.4299,-1.4299,-1.4122,-1.3768,-1.323,-1.2698,-1.2343,-1.181,-1.1632,-1.1455,-1.1455,-1.1455,-1.1632,-1.2698,-1.2875,-1.3053,-1.4122,-1.4299,-1.4299,-1.4299,-1.3591,-1.2875,-1.2875,-1.2165,-1.1455,-1.1455,-1.1455,-1.1455,-1.1455,-1.1455,-1.1455,-1.1455,-1.1455,-1.1455,-1.1455,-1.1455,-1.181,-1.2875,-1.2343,-1.2165,-1.252,-1.2165,-1.181,-1.1455,-1.1542,-1.165,-1.177,-1.1889,-1.1906,-1.1819,-1.1819,-1.171,-1.1677,-1.1649,-1.1583,-1.1489,-1.1166,-1.1003,-1.1497,-1.1904,-1.2223,0.0,0.0,0.0,0.0,0.0,0.0,0.0,0.0,0.0,0.0,0.0,0.0,0.0,0.0,0.0,0.0,0.0,0.0,0.0,0.0,0.0,0.0,0.0,0.0,0.0,0.0,0.0,-1.611,-1.609,-1.6076,-1.6069,-1.5798,-1.5642,-1.5622,-1.5201,-1.5059,-1.5194,-1.4923,-1.4848,-1.4964,-1.4821,-1.4672,-1.4529,-1.4516,-1.4434,-1.4312,-1.4306,-1.4299,-1.4299,-1.4299,-1.4299,-1.4299,-1.4299,-1.4299,-1.4122,-1.3768,-1.323,-1.2698,-1.2343,-1.181,-1.1455,-1.1455,-1.1455,-1.1632,-1.2698,-1.2875,-1.3053,-1.4122,-1.4299,-1.4299,-1.4299,-1.3591,-1.2875,-1.2875,-1.2165,-1.1455,-1.1455,-1.1455,-1.1455,-1.1455,-1.1455,-1.1455,-1.1455,-1.1455,-1.1455,-1.1455,-1.1455,-1.181,-1.2875,-1.2165,-1.1632,-1.1632,-1.1632,-1.1455,-1.1455,-1.1465,-1.152,-1.1645,-1.1764,-1.183,-1.1819,-1.1819,-1.1936,-1.2164,-1.1688,-1.1804,-1.2148,-1.1384,-1.109,-1.1192,-1.1667,-1.2135,0.0,0.0,0.0,0.0,0.0,0.0,0.0,0.0,0.0,0.0,0.0,0.0,0.0,0.0,0.0,0.0,0.0,0.0,0.0,0.0,0.0,0.0,0.0,0.0,0.0,0.0,0.0,-1.6096,-1.6083,-1.6035,-1.594,-1.5744,-1.5594,-1.5499,-1.5052,-1.4903,-1.5052,-1.4841,-1.4719,-1.4685,-1.4624,-1.4516,-1.438,-1.438,-1.4346,-1.4299,-1.4299,-1.4299,-1.4299,-1.4299,-1.4299,-1.4299,-1.4299,-1.4122,-1.3768,-1.3591,-1.323,-1.2875,-1.2343,-1.2165,-1.181,-1.1632,-1.1455,-1.1632,-1.2698,-1.2875,-1.3053,-1.4122,-1.4299,-1.4299,-1.4299,-1.3591,-1.2875,-1.2875,-1.2165,-1.1455,-1.1455,-1.1455,-1.1455,-1.1455,-1.1455,-1.1455,-1.1455,-1.1455,-1.1455,-1.1455,-1.1455,-1.181,-1.2875,-1.252,-1.2165,-1.1632,-1.1455,-1.1455,-1.1455,-1.1455,-1.1509,-1.1629,-1.1754,-1.1819,-1.1819,-1.1889,-1.2013,-1.2356,-1.177,-1.171,-1.216,-1.1461,-1.1172,-1.1056,-1.1423,-1.1864,0.0,0.0,0.0,0.0,0.0,0.0,0.0,0.0,0.0,0.0,0.0,0.0,0.0,0.0,0.0,0.0,0.0,0.0,0.0,0.0,0.0,0.0,0.0,0.0,0.0,0.0,0.0,0.0,-1.6083,-1.6008,-1.5859,-1.5716,-1.554,-1.5343,-1.4991,-1.4814,-1.4821,-1.4719,-1.4611,-1.4509,-1.4468,-1.4394,-1.4299,-1.4299,-1.4299,-1.4299,-1.4299,-1.4299,-1.4299,-1.4299,-1.4299,-1.4299,-1.4299,-1.4122,-1.3768,-1.3768,-1.3591,-1.3053,-1.252,-1.2343,-1.2165,-1.1632,-1.1455,-1.1632,-1.2698,-1.2875,-1.3053,-1.3945,-1.4122,-1.4122,-1.4122,-1.3407,-1.2698,-1.2875,-1.2165,-1.1455,-1.1455,-1.1455,-1.1455,-1.1455,-1.1455,-1.1455,-1.1455,-1.1455,-1.1455,-1.1455,-1.1455,-1.181,-1.2343,-1.252,-1.2343,-1.1632,-1.1455,-1.1455,-1.1455,-1.1455,-1.1493,-1.1574,-1.1732,-1.1819,-1.1819,-1.1933,-1.2091,-1.2477,-1.2034,-1.1956,-1.2223,-1.1698,-1.1384,-1.1206,-1.1274,0.0,0.0,0.0,0.0,0.0,0.0,0.0,0.0,0.0,0.0,0.0,0.0,0.0,0.0,0.0,0.0,0.0,0.0,0.0,0.0,0.0,0.0,0.0,0.0,0.0,0.0,0.0,0.0,0.0,-1.6076,-1.6008,-1.5859,-1.571,-1.5493,-1.5187,-1.5038,-1.4814,-1.4509,-1.4509,-1.4509,-1.4502,-1.4367,-1.4299,-1.4299,-1.4299,-1.4299,-1.4299,-1.4299,-1.4299,-1.4299,-1.4299,-1.4299,-1.4299,-1.4299,-1.4299,-1.4299,-1.4299,-1.3945,-1.3591,-1.3053,-1.252,-1.2165,-1.1632,-1.1455,-1.1632,-1.2698,-1.2875,-1.3053,-1.3413,-1.3591,-1.3591,-1.3591,-1.2875,-1.2343,-1.2875,-1.2165,-1.1455,-1.1455,-1.1455,-1.1455,-1.1455,-1.1455,-1.1455,-1.1455,-1.1455,-1.1455,-1.1455,-1.1455,-1.1455,-1.1455,-1.1988,-1.1988,-1.1455,-1.1455,-1.1455,-1.1455,-1.1455,-1.1455,-1.1455,-1.1688,-1.1819,-1.1819,-1.1933,-1.2173,-1.2731,-1.2483,-1.2362,-1.235,-1.2096,-1.1737,-1.105,0.0,0.0,0.0,0.0,0.0,0.0,0.0,0.0,0.0,0.0,0.0,0.0,0.0,0.0,0.0,0.0,0.0,0.0,0.0,0.0,0.0,0.0,0.0,0.0,0.0,0.0,0.0,0.0,0.0,0.0,-1.5771,-1.575,-1.5703,-1.5452,-1.5087,-1.4805,-1.4644,-1.4423,-1.397,-1.4229,-1.4367,-1.436,-1.4319,-1.4299,-1.4299,-1.4299,-1.4299,-1.4299,-1.4299,-1.4299,-1.4299,-1.4299,-1.4299,-1.4299,-1.4299,-1.4299,-1.4299,-1.4299,-1.4122,-1.3945,-1.323,-1.2875,-1.252,-1.181,-1.1455,-1.1632,-1.2698,-1.2875,-1.2875,-1.3053,-1.3053,-1.3053,-1.3053,-1.2698,-1.2165,-1.2343,-1.1988,-1.1455,-1.1455,-1.1455,-1.1455,-1.1455,-1.1455,-1.1455,-1.1455,-1.1455,-1.1455,-1.1455,-1.181,-1.181,-1.1455,-1.1988,-1.1988,-1.1455,-1.1455,-1.1455,-1.1455,-1.1455,-1.1455,-1.1455,-1.1607,-1.1732,-1.1819,-1.1933,-1.2173,-1.2731,-1.2656,-1.2712,-1.2903,-1.246,-1.2125,-1.126,0.0,0.0,0.0,0.0,0.0,0.0,0.0,0.0,0.0,0.0,0.0,0.0,0.0,0.0,0.0,0.0,0.0,0.0,0.0,0.0,0.0,0.0,0.0,0.0,0.0,0.0,0.0,0.0,0.0,0.0,-1.5689,-1.5669,-1.5554,-1.5371,-1.4999,-1.4261,-1.4611,-1.4423,-1.3707,-1.4216,-1.4353,-1.4299,-1.4299,-1.4299,-1.4299,-1.4299,-1.4299,-1.4299,-1.4299,-1.4299,-1.4299,-1.4299,-1.4299,-1.4299,-1.4299,-1.4299,-1.4299,-1.4299,-1.4299,-1.4122,-1.3236,-1.2875,-1.2698,-1.181,-1.1455,-1.1632,-1.2698,-1.2875,-1.2875,-1.2875,-1.2875,-1.2875,-1.2698,-1.2343,-1.1988,-1.2165,-1.181,-1.1455,-1.1455,-1.1455,-1.1455,-1.1455,-1.1455,-1.1455,-1.1455,-1.1455,-1.1455,-1.1455,-1.181,-1.181,-1.1455,-1.181,-1.181,-1.1455,-1.1455,-1.1455,-1.1455,-1.1498,-1.1525,-1.1525,-1.1596,-1.1672,-1.1743,-1.1906,-1.2173,-1.2359,-1.2731,-1.3026,-1.3619,-1.3187,-1.2657,0.0,0.0,0.0,0.0,0.0,0.0,0.0,0.0,0.0,0.0,0.0,0.0,0.0,0.0,0.0,0.0,0.0,0.0,0.0,0.0,0.0,0.0,0.0,0.0,0.0,0.0,0.0,0.0,0.0,0.0,0.0,-1.5703,-1.5642,-1.5357,-1.535,-1.4959,-1.399,-1.4658,-1.4524,-1.3591,-1.4249,-1.4428,-1.4299,-1.4299,-1.4299,-1.4299,-1.4299,-1.4299,-1.4299,-1.4299,-1.4299,-1.4299,-1.4299,-1.4299,-1.4299,-1.4299,-1.4299,-1.4299,-1.4299,-1.4299,-1.4122,-1.3236,-1.2875,-1.2698,-1.181,-1.1455,-1.1632,-1.252,-1.2875,-1.2875,-1.2875,-1.2875,-1.2698,-1.2343,-1.181,-1.1632,-1.1988,-1.181,-1.1455,-1.1455,-1.1455,-1.1455,-1.1455,-1.1455,-1.1455,-1.1455,-1.1455,-1.1455,-1.1455,-1.1455,-1.1455,-1.1455,-1.1455,-1.1455,-1.1455,-1.1455,-1.1455,-1.1455,-1.158,-1.1656,-1.1656,-1.1661,-1.1661,-1.165,-1.1884,-1.1993,-1.1971,-1.2737,-1.3492,-1.4229,-1.4093,-1.3331,0.0,0.0,0.0,0.0,0.0,0.0,0.0,0.0,0.0,0.0,0.0,0.0,0.0,0.0,0.0,0.0,0.0,0.0,0.0,0.0,0.0,0.0,0.0,0.0,0.0,0.0,0.0,0.0,0.0,0.0,-1.512,-1.5147,-1.5079,-1.4889,-1.4882,-1.4415,-1.3307,-1.413,-1.4037,0.0,-1.3971,-1.4333,-1.4299,-1.4299,-1.4299,-1.4299,-1.4299,-1.4299,-1.4299,-1.4299,-1.4299,-1.4299,-1.4299,-1.4299,-1.4299,-1.4299,-1.4299,-1.4299,-1.4299,-1.4299,-1.4122,-1.3236,-1.2875,-1.2698,-1.181,-1.1455,-1.1632,-1.2165,-1.2698,-1.2875,-1.252,-1.2698,-1.2698,-1.181,-1.1632,-1.1455,-1.1632,-1.1632,-1.1455,-1.1455,-1.1455,-1.1455,-1.1455,-1.1455,-1.1455,-1.1455,-1.1455,-1.1455,-1.1455,-1.1455,-1.1455,-1.1455,-1.1455,-1.1455,-1.1455,-1.1455,-1.1455,-1.1455,-1.1661,-1.1964,-1.2152,-1.2052,-1.1873,-1.1781,-1.2015,-1.2042,-1.1857,-1.2976,-1.3722,-1.4264,-1.4145,-1.4023,0.0,0.0,0.0,0.0,0.0,0.0,0.0,0.0,0.0,0.0,0.0,0.0,0.0,0.0,0.0,0.0,0.0,0.0,0.0,0.0,0.0,0.0,0.0,0.0,0.0,0.0,0.0,0.0,0.0,-1.5018,-1.4869,-1.493,-1.4903,-1.4746,-1.474,-1.4302,-1.3437,-1.3898,-1.3833,-1.323,-1.3768,-1.4122,-1.4299,-1.4299,-1.4299,-1.4299,-1.4299,-1.4122,-1.3945,-1.4122,-1.4122,-1.3945,-1.4122,-1.4299,-1.4299,-1.4299,-1.4299,-1.4299,-1.4299,-1.4299,-1.4122,-1.3236,-1.2875,-1.2698,-1.181,-1.1455,-1.1632,-1.1988,-1.252,-1.2875,-1.252,-1.2698,-1.2698,-1.1988,-1.1632,-1.1455,-1.1455,-1.1455,-1.1455,-1.1455,-1.1455,-1.1455,-1.1455,-1.1455,-1.1455,-1.1455,-1.1455,-1.1455,-1.1455,-1.1455,-1.1455,-1.1455,-1.1455,-1.1455,-1.1455,-1.1455,-1.1455,-1.1455,-1.1683,-1.1846,-1.2085,-1.2129,-1.2167,-1.1993,-1.1919,-1.1892,-1.19,-1.321,-1.3958,-1.4126,-1.4447,-1.4395,0.0,0.0,0.0,0.0,0.0,0.0,0.0,0.0,0.0,0.0,0.0,0.0,0.0,0.0,0.0,0.0,0.0,0.0,0.0,0.0,0.0,0.0,0.0,0.0,0.0,0.0,0.0,0.0,0.0,-1.4835,-1.4706,-1.4821,-1.4821,-1.4672,-1.4685,-1.4262,-1.3579,-1.3752,-1.37,-1.3407,-1.3591,-1.3768,-1.4299,-1.4299,-1.4299,-1.4299,-1.4122,-1.3945,-1.3591,-1.3945,-1.3945,-1.3591,-1.4122,-1.4299,-1.4299,-1.4122,-1.4299,-1.4299,-1.4122,-1.4299,-1.4122,-1.3236,-1.2875,-1.2698,-1.181,-1.1455,-1.1632,-1.1988,-1.252,-1.2875,-1.2698,-1.2698,-1.2698,-1.2165,-1.181,-1.1455,-1.1455,-1.1455,-1.1455,-1.1455,-1.1455,-1.1455,-1.1455,-1.1455,-1.1455,-1.1455,-1.1455,-1.1455,-1.1455,-1.1455,-1.1455,-1.1455,-1.1455,-1.1455,-1.1455,-1.1455,-1.1455,-1.1455,-1.1705,-1.1889,-1.1987,-1.2357,-1.2471,-1.2265,-1.2069,-1.1789,-1.1796,-1.3245,-1.3983,-1.3826,-1.4706,-1.4879,0.0,0.0,0.0,0.0,0.0,0.0,0.0,0.0,0.0,0.0,0.0,0.0,0.0,0.0,0.0,0.0,0.0,0.0,0.0,0.0,0.0,0.0,0.0,0.0,0.0,0.0,0.0,0.0,-1.4658,-1.4563,-1.4543,-1.4563,-1.4509,-1.4367,-1.4475,-1.411,-1.3084,-1.3439,-1.3249,-1.2343,-1.3236,-1.3768,-1.4299,-1.4299,-1.4299,-1.4299,-1.3945,-1.3591,-1.3591,-1.3591,-1.3591,-1.3591,-1.4122,-1.4299,-1.4299,-1.3768,-1.3945,-1.4299,-1.3768,-1.3945,-1.4122,-1.3236,-1.2875,-1.2698,-1.181,-1.1455,-1.1455,-1.1632,-1.2165,-1.2698,-1.1988,-1.2343,-1.2698,-1.181,-1.1632,-1.1455,-1.1455,-1.1455,-1.1455,-1.1455,-1.1455,-1.1455,-1.1455,-1.1455,-1.1455,-1.1455,-1.1455,-1.1455,-1.1455,-1.1455,-1.1455,-1.1455,-1.1455,-1.1455,-1.1455,-1.1455,-1.1455,-1.1455,-1.1964,-1.2162,-1.2179,-1.2439,-1.2667,-1.2634,-1.2634,-1.2417,-1.1801,-1.3052,-1.374,-1.3865,-1.4745,-1.4916,0.0,0.0,0.0,0.0,0.0,0.0,0.0,0.0,0.0,0.0,0.0,0.0,0.0,0.0,0.0,0.0,0.0,0.0,0.0,0.0,0.0,0.0,0.0,0.0,0.0,0.0,0.0,0.0,-1.4296,-1.4216,-1.4037,-1.4216,-1.4367,-1.4299,-1.436,-1.4182,-1.3768,-1.3407,-1.3053,-1.252,-1.3236,-1.3768,-1.4299,-1.4299,-1.4299,-1.4299,-1.3768,-1.3413,-1.323,-1.3413,-1.3413,-1.3236,-1.3945,-1.4299,-1.4299,-1.3768,-1.3768,-1.3945,-1.3591,-1.3768,-1.3768,-1.3053,-1.2875,-1.2698,-1.181,-1.1455,-1.1455,-1.1455,-1.2165,-1.2875,-1.2343,-1.252,-1.2875,-1.2343,-1.181,-1.1455,-1.1455,-1.1455,-1.1455,-1.1455,-1.1455,-1.1455,-1.1455,-1.1455,-1.1455,-1.1455,-1.1455,-1.1455,-1.1455,-1.1455,-1.1455,-1.1455,-1.1455,-1.1455,-1.1455,-1.1455,-1.1482,-1.1552,-1.177,-1.1955,-1.2273,-1.2428,-1.264,-1.2705,-1.2705,-1.2569,-1.2292,-1.3157,-1.3584,-1.3764,-1.4481,-1.4848,0.0,0.0,0.0,0.0,0.0,0.0,0.0,0.0,0.0,0.0,0.0,0.0,0.0,0.0,0.0,0.0,0.0,0.0,0.0,0.0,0.0,0.0,0.0,0.0,0.0,0.0,0.0,0.0,-1.4004,-1.3945,-1.3591,-1.3945,-1.4122,-1.4299,-1.4299,-1.4299,-1.4122,-1.323,-1.2698,-1.2698,-1.3236,-1.3591,-1.4122,-1.4299,-1.4299,-1.4299,-1.3768,-1.323,-1.3053,-1.3413,-1.323,-1.323,-1.3945,-1.4299,-1.4299,-1.3591,-1.3591,-1.3591,-1.3413,-1.3413,-1.3591,-1.2875,-1.2875,-1.2698,-1.181,-1.1455,-1.1455,-1.1455,-1.2165,-1.2698,-1.252,-1.2698,-1.2698,-1.252,-1.1988,-1.1455,-1.1455,-1.1455,-1.1455,-1.1455,-1.1455,-1.1455,-1.1455,-1.1455,-1.1455,-1.1455,-1.1455,-1.1455,-1.1455,-1.1455,-1.1455,-1.1455,-1.1455,-1.1465,-1.1498,-1.1504,-1.1552,-1.1677,-1.1797,-1.1944,-1.2118,-1.2357,-1.2531,-1.2613,-1.2672,-1.2661,-1.258,-1.3066,-1.3439,-1.3529,-1.4238,-1.4577,0.0,0.0,0.0,0.0,0.0,0.0,0.0,0.0,0.0,0.0,0.0,0.0,0.0,0.0,0.0,0.0,0.0,0.0,0.0,0.0,0.0,0.0,0.0,0.0,0.0,0.0,0.0,0.0,-1.3591,-1.3591,-1.3591,-1.3591,-1.3768,-1.4299,-1.4299,-1.4122,-1.3591,-1.2698,-1.2165,-1.2165,-1.2698,-1.323,-1.3591,-1.4122,-1.4299,-1.4299,-1.3413,-1.323,-1.3591,-1.3053,-1.323,-1.3591,-1.4122,-1.4299,-1.4122,-1.3236,-1.323,-1.3413,-1.252,-1.2875,-1.3413,-1.252,-1.252,-1.2698,-1.181,-1.1455,-1.1455,-1.1455,-1.181,-1.2165,-1.1632,-1.1988,-1.2165,-1.1632,-1.1455,-1.1455,-1.1455,-1.1455,-1.1455,-1.1455,-1.1455,-1.1455,-1.1455,-1.1455,-1.1455,-1.1455,-1.1455,-1.1455,-1.1455,-1.1455,-1.1455,-1.1455,-1.1455,-1.1504,-1.1618,-1.1629,-1.1677,-1.1803,-1.1917,-1.1987,-1.1998,-1.2232,-1.2368,-1.2373,-1.2591,-1.27,-1.2694,-1.2915,-1.311,-1.3664,-1.3814,-1.4243,0.0,0.0,0.0,0.0,0.0,0.0,0.0,0.0,0.0,0.0,0.0,0.0,0.0,0.0,0.0,0.0,0.0,0.0,0.0,0.0,0.0,0.0,0.0,0.0,0.0,0.0,0.0,0.0,0.0,-1.3413,-1.323,-1.3413,-1.3768,-1.4299,-1.4299,-1.3945,-1.323,-1.2875,-1.252,-1.2165,-1.2698,-1.323,-1.3591,-1.4122,-1.4299,-1.4299,-1.323,-1.323,-1.3591,-1.3053,-1.323,-1.3591,-1.4122,-1.4122,-1.3768,-1.3059,-1.2875,-1.2698,-1.2343,-1.2698,-1.3053,-1.2343,-1.252,-1.2698,-1.181,-1.1455,-1.1455,-1.1455,-1.181,-1.2165,-1.1988,-1.1988,-1.2165,-1.1632,-1.1455,-1.1455,-1.1455,-1.1455,-1.1455,-1.1455,-1.1455,-1.1455,-1.1455,-1.1455,-1.1455,-1.1455,-1.152,-1.1542,-1.1465,-1.159,-1.1656,-1.158,-1.1639,-1.1705,-1.1748,-1.1754,-1.1803,-1.1922,-1.1966,-1.2025,-1.2102,-1.2265,-1.239,-1.2471,-1.2623,-1.2705,-1.2705,-1.3006,-1.3286,-1.392,-1.3891,-1.4101,0.0,0.0,0.0,0.0,0.0,0.0,0.0,0.0,0.0,0.0,0.0,0.0,0.0,0.0,0.0,0.0,0.0,0.0,0.0,0.0,0.0,0.0,0.0,0.0,0.0,0.0,0.0,0.0,0.0,0.0,-1.2875,-1.3236,-1.3591,-1.4299,-1.4299,-1.3768,-1.2875,-1.2875,-1.252,-1.1988,-1.252,-1.3053,-1.3413,-1.3945,-1.4122,-1.3945,-1.323,-1.323,-1.3591,-1.3053,-1.323,-1.3591,-1.4122,-1.3945,-1.3591,-1.3053,-1.252,-1.2165,-1.1988,-1.2343,-1.252,-1.2165,-1.2343,-1.252,-1.181,-1.1455,-1.1455,-1.1455,-1.1632,-1.1988,-1.1988,-1.1988,-1.181,-1.1632,-1.1455,-1.1455,-1.1455,-1.1455,-1.1455,-1.1455,-1.1455,-1.1465,-1.1509,-1.1514,-1.1514,-1.1514,-1.1618,-1.1656,-1.1531,-1.1656,-1.1743,-1.1705,-1.1732,-1.1792,-1.1868,-1.1873,-1.1928,-1.2042,-1.2053,-1.2107,-1.2227,-1.2308,-1.2411,-1.2531,-1.2645,-1.2705,-1.2705,-1.2897,-1.3251,-1.4134,-1.3826,-1.4094,0.0,0.0,0.0,0.0,0.0,0.0,0.0,0.0,0.0,0.0,0.0,0.0,0.0,0.0,0.0,0.0,0.0,0.0,0.0,0.0,0.0,0.0,0.0,0.0,0.0,-1.3046,-1.3768,-1.3053,-1.2875,-1.2875,-1.2875,-1.2875,-1.3413,-1.4299,-1.4299,-1.3761,-1.2869,-1.2875,-1.2343,-1.1449,-1.252,-1.2875,-1.2875,-1.3945,-1.4122,-1.3591,-1.3053,-1.323,-1.3591,-1.3053,-1.323,-1.3591,-1.4122,-1.3945,-1.3591,-1.3053,-1.252,-1.2165,-1.1632,-1.181,-1.2165,-1.1632,-1.181,-1.2165,-1.1632,-1.1455,-1.1455,-1.1455,-1.1455,-1.1455,-1.1455,-1.1455,-1.1455,-1.1455,-1.1455,-1.1455,-1.1455,-1.1455,-1.1455,-1.1455,-1.1455,-1.1493,-1.1612,-1.1634,-1.1634,-1.1634,-1.1743,-1.1781,-1.1656,-1.1645,-1.1699,-1.1813,-1.1721,-1.1743,-1.1976,-1.1993,-1.2047,-1.2167,-1.2172,-1.2227,-1.2346,-1.2357,-1.2411,-1.2536,-1.2651,-1.2705,-1.271,-1.2596,-1.3188,-1.4275,-1.3596,-1.3687,-0.7263,0.0,0.0,0.0,0.0,0.0,0.0,0.0,0.0,0.0,0.0,0.0,0.0,0.0,0.0,0.0,0.0,0.0,0.0,0.0,-1.0926,-0.9482,-0.6793,-0.6076,-0.9121,-1.1083,-1.2337,0.0,-1.2875,-1.2698,-1.2343,-1.3053,-1.3768,-1.4299,-1.4299,-1.3716,-1.2729,-1.2826,-1.2296,-1.1324,-1.2473,-1.2875,-1.2875,-1.3945,-1.4299,-1.4122,-1.323,-1.3053,-1.3053,-1.2875,-1.323,-1.3591,-1.4122,-1.3768,-1.3053,-1.2875,-1.2343,-1.1632,-1.1632,-1.181,-1.2165,-1.1632,-1.181,-1.2165,-1.1632,-1.1455,-1.1455,-1.1455,-1.1455,-1.1455,-1.1455,-1.1455,-1.1455,-1.1455,-1.1455,-1.1455,-1.1455,-1.1455,-1.1455,-1.1455,-1.1455,-1.1465,-1.1498,-1.158,-1.1634,-1.1634,-1.1813,-1.19,-1.1786,-1.1917,-1.2004,-1.1949,-1.1993,-1.2053,-1.2112,-1.2123,-1.2134,-1.2167,-1.2172,-1.2227,-1.2346,-1.2357,-1.2449,-1.2656,-1.2689,-1.2748,-1.2835,-1.2716,-1.3116,-1.3825,-1.4031,-1.4349,0.0,0.0,0.0,0.0,0.0,0.0,-0.9245,-1.0561,0.0,0.0,0.0,-1.3363,-1.3838,-1.38,-1.3867,-1.4102,-1.3988,-1.3696,-1.3217,-1.2544,-1.0942,-0.806,-0.4832,-0.4114,-0.751,-1.0011,-1.1799,-1.2875,-1.2875,-1.2698,-1.252,-1.3236,-1.3768,-1.4299,-1.4238,-1.3839,-1.2759,-1.2722,-1.2167,-1.127,-1.2342,-1.2704,-1.2704,-1.3819,-1.4028,-1.3859,-1.3388,-1.2881,-1.2698,-1.2337,-1.2692,-1.3407,-1.4122,-1.3768,-1.323,-1.3053,-1.2343,-1.181,-1.1632,-1.1632,-1.181,-1.1632,-1.1632,-1.181,-1.1632,-1.1455,-1.1455,-1.1455,-1.1455,-1.1455,-1.1455,-1.1455,-1.1455,-1.1455,-1.1455,-1.1455,-1.1455,-1.1455,-1.1455,-1.1455,-1.1455,-1.1487,-1.159,-1.1623,-1.1672,-1.177,-1.19,-1.1966,-1.19,-1.2009,-1.2085,-1.2069,-1.2085,-1.2118,-1.2178,-1.2183,-1.2188,-1.2194,-1.2237,-1.2314,-1.2433,-1.2477,-1.2591,-1.2776,-1.2781,-1.2814,-1.289,-1.2814,-1.2941,-1.3447,-1.4106,-1.4493,0.0,0.0,0.0,0.0,0.0,0.0,-0.8851,-0.9865,-1.0928,0.0,0.0,-1.2888,-1.322,-1.3072,-1.303,-1.3459,-1.3495,-1.3016,-1.1594,-1.2734,-1.1855,-0.7173,-0.4299,-0.3578,-0.6433,-0.9473,-1.1799,-1.2875,-1.2875,-1.2875,-1.2875,-1.323,-1.3768,-1.4299,-1.417,-1.3799,-1.3009,-1.2606,-1.2015,-1.1232,-1.2015,-1.2484,-1.2668,-1.3507,-1.3746,-1.3404,-1.3362,-1.2881,-1.2343,-1.1793,-1.2148,-1.3059,-1.3945,-1.3945,-1.3413,-1.3053,-1.252,-1.1988,-1.1632,-1.1455,-1.1455,-1.1455,-1.1455,-1.1455,-1.1455,-1.1455,-1.1455,-1.1455,-1.1455,-1.1455,-1.1455,-1.1455,-1.1455,-1.1455,-1.1455,-1.1455,-1.1455,-1.1455,-1.1455,-1.1455,-1.1455,-1.1525,-1.1759,-1.1721,-1.1726,-1.1938,-1.1993,-1.2004,-1.1987,-1.1998,-1.2053,-1.2161,-1.2074,-1.2063,-1.2188,-1.1815,-1.1436,-1.1452,-1.174,-1.2042,-1.2363,-1.2651,-1.2765,-1.2884,-1.289,-1.289,-1.289,-1.289,-1.2913,-1.3164,-1.4087,-1.4358,0.0,0.0,0.0,0.0,0.0,0.0,-0.4923,-0.6901,-0.8984,0.0,-1.0792,-1.1864,-1.2406,-1.2623,-1.2494,-1.244,-1.3044,-1.2853,-1.1561,-1.0377,-0.8956,-0.6991,-0.3047,-0.215,-0.6255,-0.9121,-1.1282,-1.2875,-1.2165,-1.2165,-1.2875,-1.3053,-1.3413,-1.4299,-1.4278,-1.3813,-1.3076,-1.2966,-1.22,-1.0816,-1.1318,-1.1929,-1.2991,-1.3299,-1.3722,-1.4082,-1.3584,-1.2881,-1.2337,-1.2514,-1.2875,-1.3242,-1.3945,-1.3768,-1.3053,-1.2875,-1.2343,-1.1632,-1.1455,-1.1455,-1.1455,-1.1455,-1.1455,-1.1455,-1.1455,-1.1455,-1.1455,-1.1455,-1.1455,-1.1455,-1.1455,-1.1455,-1.1455,-1.1455,-1.1455,-1.1455,-1.1455,-1.1455,-1.1455,-1.1455,-1.1455,-1.1504,-1.1645,-1.1732,-1.1797,-1.1846,-1.2015,-1.2102,-1.1998,-1.2074,-1.215,-1.2188,-1.2172,-1.2178,-1.2216,-0.9142,-0.7226,-0.723,-0.8443,-1.0275,-1.2558,-1.2656,-1.2765,-1.2884,-1.289,-1.289,-1.289,-1.289,-1.3002,-1.3418,-1.3783,-1.414,0.0,0.0,0.0,-0.1955,0.0,0.0,0.0,-0.5974,-0.8182,-0.8929,-1.0122,-1.1104,-1.1633,-1.1557,-1.1501,-1.1945,-1.2205,-1.1944,-1.077,-0.952,-0.7395,-0.4406,-0.3178,-0.353,-0.5805,-0.8456,-1.06,-1.2243,-1.1776,-1.1988,-1.2875,-1.2875,-1.3413,-1.4299,-1.4156,-1.3693,-1.3275,-1.279,-1.2003,-1.0916,-1.1141,-1.1721,-1.2656,-1.3133,-1.3585,-1.419,-1.3565,-1.2881,-1.2331,-1.2337,-1.2698,-1.342,-1.4122,-1.3945,-1.323,-1.3053,-1.252,-1.181,-1.1632,-1.1455,-1.1455,-1.1455,-1.1455,-1.1455,-1.1455,-1.1455,-1.1455,-1.1455,-1.1455,-1.1455,-1.1455,-1.1455,-1.1455,-1.1455,-1.1455,-1.1455,-1.1455,-1.1455,-1.1471,-1.1531,-1.1547,-1.1585,-1.1716,-1.1732,-1.1792,-1.1982,-1.2047,-1.208,-1.208,-1.2134,-1.2178,-1.2199,-1.2199,-1.221,-1.2237,-1.0307,-0.839,-0.6291,-0.6948,-0.8966,-1.2574,-1.2721,-1.2852,-1.2977,-1.2977,-1.2977,-1.2977,-1.2917,-1.3024,-1.3099,-1.375,-1.4124,0.0,0.0,0.0,0.0,0.0,-0.3494,0.0,0.0,0.0,-0.8217,-0.924,0.0,0.0,0.0,0.0,0.0,0.0,0.0,0.0,-0.947,0.0,-0.2051,-0.3099,-0.4841,-0.6218,-0.844,-1.0376,-1.1923,-1.1614,-1.1664,-1.262,-1.2796,-1.3161,-1.4082,-1.4014,-1.3767,-1.3339,-1.2313,-1.1501,-1.0884,-1.1171,-1.1704,-1.2489,-1.2993,-1.348,-1.3948,-1.3362,-1.2698,-1.2154,-1.1799,-1.2337,-1.3242,-1.3768,-1.3768,-1.3413,-1.2875,-1.252,-1.1988,-1.1632,-1.1455,-1.1455,-1.1455,-1.1455,-1.1455,-1.1455,-1.1455,-1.146,-1.1482,-1.1487,-1.1487,-1.1487,-1.1487,-1.1482,-1.146,-1.1455,-1.1455,-1.1455,-1.1471,-1.152,-1.1618,-1.1656,-1.1721,-1.1667,-1.1603,-1.1813,-1.2118,-1.2085,-1.2058,-1.2134,-1.2161,-1.2183,-1.2205,-1.221,-1.1641,-0.9941,-0.9941,-0.8794,-0.6502,-0.6406,-0.8431,-1.2792,-1.3007,-1.2977,-1.3102,-1.3102,-1.3102,-1.3102,-1.2982,-1.2846,-1.2705,-1.3893,-1.4097,0.0,0.0,0.0,0.0,-0.2268,0.0,0.0,0.0,-0.4907,-0.6139,0.0,0.0,0.0,0.0,0.0,0.0,0.0,0.0,-0.8797,-1.0435,-0.9066,-0.2276,-0.1,-0.3052,-0.9427,-1.0608,-1.1277,-1.1784,-1.1171,-1.1137,-1.1813,-1.2342,-1.2916,-1.3565,-1.3901,-1.4007,-1.3713,-1.1755,-1.0774,-1.0748,-1.113,-1.1927,-1.2981,-1.3248,-1.3375,-1.3382,-1.2686,-1.2154,-1.1621,-1.1982,-1.252,-1.2875,-1.2692,-1.2692,-1.2875,-1.252,-1.1988,-1.1632,-1.1455,-1.1455,-1.1455,-1.1455,-1.1455,-1.1455,-1.1455,-1.1455,-1.1476,-1.1585,-1.1432,-1.1432,-1.1432,-1.1432,-1.1585,-1.1482,-1.1455,-1.1455,-1.1455,-1.1542,-1.1618,-1.1634,-1.1737,-1.1673,-1.1791,-1.1796,-1.1987,-1.2218,-1.2118,-1.214,-1.2042,-1.2129,-1.221,-1.2243,-1.2248,-0.9171,-0.1908,-0.1336,-0.2864,-0.612,-0.6406,-0.8431,-1.2792,-1.309,-1.3102,-1.3216,-1.3216,-1.3216,-1.3216,-1.3107,-1.2933,-1.2705,-1.3893,-1.4195,0.0,0.0,0.0,0.0,0.0,0.0,0.0,0.0,-0.4125,0.0,0.0,0.0,0.0,0.0,0.0,0.0,-0.9121,0.0,0.0,0.0,-0.8221,0.0,0.0,0.0,-0.6916,-0.9597,-1.1032,-1.1009,-1.1003,-1.1225,-1.1559,-1.2288,-1.2749,-1.3249,-1.3774,-1.4091,-1.4036,-1.2393,-1.1652,-1.1628,-1.1152,-1.1755,-1.2941,-1.2799,-1.3079,-1.3401,-1.279,-1.2267,-1.1976,-1.1732,-1.1919,-1.252,-1.1988,-1.2343,-1.2875,-1.2343,-1.1988,-1.1455,-1.1455,-1.1455,-1.1455,-1.1455,-1.1455,-1.1455,-1.1455,-1.1504,-1.1569,-1.1443,-1.1502,-1.1743,-1.1743,-1.1743,-1.1726,-1.1677,-1.1667,-1.1667,-1.1667,-1.1705,-1.1759,-1.183,-1.1895,-1.1041,-0.8872,-0.9028,-0.9385,-0.8688,-1.0635,-1.2183,-1.2129,-1.0063,-0.9526,-1.1868,-1.2122,-0.8864,-0.0769,0.0,-0.1747,-0.6221,-0.889,-1.1197,-1.2868,-1.3129,-1.3298,-1.3346,-1.3346,-1.3346,-1.3346,-1.3227,-1.308,-1.2917,-1.4036,-1.4323,-0.0696,0.0,0.0,0.0,0.0,0.0,0.0,0.0,0.0,0.0,0.0,0.0,0.0,0.0,0.0,0.0,0.0,-0.7457,0.0,-0.7185,0.0,0.0,0.0,0.0,0.0,-0.7872,-1.0538,-1.0495,-1.0695,-1.0935,-1.1077,-1.1879,-1.2557,-1.2702,-1.3252,-1.3619,-1.3804,-1.2702,-1.2003,-1.2033,-1.1322,-1.1572,-1.2612,-1.2551,-1.283,-1.3401,-1.291,-1.2396,-1.1976,-1.15,-1.1698,-1.2165,-1.1632,-1.1988,-1.2698,-1.2165,-1.181,-1.1455,-1.1455,-1.1455,-1.1455,-1.1455,-1.1455,-1.1455,-1.1455,-1.1514,-1.1601,-1.1667,-1.1748,-1.1824,-1.2041,-1.1868,-1.1857,-1.1824,-1.1824,-1.1824,-1.1824,-1.1857,-1.1906,-1.1987,-1.2047,-1.1157,-0.8178,-0.8515,-0.8876,-0.8014,-1.0307,-1.1847,-1.0744,-0.9,-0.8046,-0.8853,-0.8915,-0.6415,-0.0583,-0.2151,-0.4331,-0.6333,-1.0627,-1.3211,-1.3162,-1.333,-1.3439,-1.3471,-1.3471,-1.3471,-1.3471,-1.3346,-1.3227,-1.3113,-1.4196,-1.4464,0.0,0.0,0.0,-0.11,0.0,0.0,0.0,0.0,-0.253,0.0,0.0,0.0,0.0,0.0,0.0,0.0,0.0,0.0,0.0,0.0,0.0,0.0,0.0,0.0,0.0,-0.5972,-0.991,0.0,-0.9949,-0.9731,-1.0193,-1.1148,-1.1655,-1.1409,-1.2545,-1.279,-1.2452,-1.2069,-1.1663,-1.1421,-1.1158,-1.1612,-1.2478,-1.2606,-1.2741,-1.2869,-1.2729,-1.222,-1.1444,-1.1324,-1.1698,-1.2165,-1.1632,-1.181,-1.2165,-1.1632,-1.1455,-1.1455,-1.1455,-1.1455,-1.1455,-1.1455,-1.1455,-1.1455,-1.1455,-1.146,-1.1509,-1.2118,-1.2002,-1.203,-1.2146,-1.1982,-1.1955,-1.1846,-1.1835,-1.1662,-1.1662,-1.1764,-1.186,-1.1865,-1.1967,-1.2058,-1.2058,-1.2058,-1.209,-1.2192,-1.2319,-1.0773,-0.6833,-0.9734,-0.8946,-0.1176,-0.0392,-0.0196,-0.0,-0.7675,-1.0918,-0.7035,-1.0681,-1.3272,-1.3395,-1.3417,-1.3477,-1.3597,-1.3597,-1.3597,-1.3597,-1.3477,-1.3352,-1.3232,-1.413,-1.4403,0.0,0.0,-0.0,-0.029,0.0,0.0,0.0,0.0,0.0,0.0,0.0,0.0,0.0,0.0,0.0,0.0,0.0,0.0,0.0,0.0,0.0,0.0,0.0,0.0,0.0,0.0,0.0,-0.9473,-1.015,0.0,-0.984,-1.1054,-1.1637,-1.1155,-1.2278,-1.2952,-1.2783,-1.2411,-1.2087,-1.2162,-1.1401,-1.1485,-1.2253,-1.2044,-1.2097,-1.2384,-1.2342,-1.1998,-1.133,-1.1291,-1.1522,-1.1632,-1.1632,-1.1632,-1.1632,-1.1632,-1.1455,-1.1455,-1.1455,-1.1455,-1.1455,-1.1455,-1.1455,-1.1455,-1.1455,-1.1509,-1.1607,-1.1775,-1.1884,-1.1976,-1.2096,-1.214,-1.2134,-1.2096,-1.2091,-1.1334,-0.8669,-0.7978,-0.8035,-0.8035,-1.0253,-1.2105,-1.2105,-0.7786,-0.4077,-0.4251,-0.8691,-1.165,-1.0406,-0.6658,-0.313,-0.0393,0.0,0.0,0.0,-0.2608,-0.6278,-1.0793,-1.2585,-1.3336,-1.3417,-1.3499,-1.3564,-1.3602,-1.3602,-1.3602,-1.3602,-1.3564,-1.3477,-1.3357,-1.3854,-1.4089,-0.17,0.0,0.0,0.0,0.0,0.0,-0.1503,0.0,0.0,0.0,0.0,0.0,0.0,0.0,0.0,0.0,0.0,0.0,0.0,-0.3116,0.0,0.0,0.0,0.0,0.0,0.0,-0.1723,-0.5777,-0.8668,0.0,0.0,-1.0714,-1.1037,-1.073,-1.1758,-1.2322,-1.2203,-1.2045,-1.1915,-1.1816,-1.1446,-1.1524,-1.1906,-1.183,-1.1859,-1.1969,-1.1929,-1.1754,-1.127,-1.127,-1.1346,-1.1455,-1.1455,-1.1455,-1.1455,-1.1455,-1.1455,-1.1455,-1.1455,-1.1455,-1.1455,-1.1455,-1.1455,-1.1455,-1.1455,-1.1542,-1.1677,-1.1884,-1.1976,-1.1887,-1.2324,-1.1146,-1.0113,-0.9958,-1.1102,-1.1477,-0.8809,-0.5961,-0.3866,-0.388,-0.6058,-0.8852,-1.1633,-0.5502,0.0,0.0,-0.4479,-0.9005,-1.2123,-0.5142,0.0,0.0,0.0,0.0,0.0,0.0,-0.3076,-1.0535,-1.2553,-1.3482,-1.3488,-1.3564,-1.3645,-1.3727,-1.3645,-1.3645,-1.3727,-1.3645,-1.3542,-1.3417,-1.371,-1.3542]}]]